[[{"header":{"parameterUnit":"m.s-1","parameterCategory":1,"la1":30.6,"la2":29.2853,"lo1":-89.7004,"lo2":-87.6739,"dy":0.0162,"dx":0.0183,"nx":112,"ny":82,"refTime":"2024-02-01T06:00:00:Z","depth":0,"parameterNumber":2,"parameterNumberName":"U-component_of_WINDS"},"data":[0.0,0.0,0.0,0.0,0.0,0.0,0.0,0.0,0.0,0.0,0.0,0.0,0.0,0.0,0.0,0.0,0.0,0.0,0.0,0.0,0.0,0.0,0.0,0.0,0.0,0.0,0.0,0.0,0.0,0.0,0.0,0.0,0.0,0.0,0.0,0.0,0.0,0.0,0.0,0.0,0.0,0.0,0.0,0.0,0.0,0.0,0.0,0.0,0.0,0.0,0.0,0.0,0.0,0.0,0.0,0.0,0.0,0.0,0.0,0.0,0.0,0.0,0.0,0.0,0.0,0.0,0.0,0.0,0.0,0.0,0.0,0.0,0.0,0.0,0.0,0.0,0.0,0.0,0.0,0.0,0.0,0.0,0.0,0.0,0.0,0.0,0.0,0.0,0.0,0.0,-1.41,-1.41,-1.41,-1.4196,-1.4196,-1.44,-1.4592,-1.4592,0.0,0.0,0.0,0.0,0.0,0.0,0.0,0.0,0.0,0.0,0.0,0.0,0.0,0.0,0.0,0.0,0.0,0.0,0.0,0.0,0.0,0.0,0.0,0.0,0.0,0.0,0.0,0.0,0.0,0.0,0.0,0.0,0.0,0.0,0.0,0.0,0.0,0.0,0.0,0.0,0.0,0.0,0.0,0.0,0.0,0.0,0.0,0.0,0.0,0.0,0.0,0.0,0.0,0.0,0.0,0.0,0.0,0.0,0.0,0.0,0.0,0.0,0.0,0.0,0.0,0.0,0.0,0.0,0.0,0.0,0.0,0.0,0.0,0.0,0.0,0.0,0.0,0.0,0.0,0.0,0.0,0.0,0.0,0.0,0.0,0.0,0.0,0.0,0.0,0.0,0.0,0.0,0.0,0.0,0.0,0.0,0.0,0.0,0.0,0.0,0.0,0.0,0.0,0.0,-1.305,-1.3221,-1.3511,-1.3607,-1.3607,-1.3908,-1.41,-1.44,0.0,0.0,0.0,0.0,0.0,0.0,0.0,0.0,0.0,0.0,0.0,0.0,0.0,0.0,0.0,0.0,0.0,0.0,0.0,0.0,0.0,0.0,0.0,0.0,0.0,0.0,0.0,0.0,0.0,0.0,0.0,0.0,0.0,0.0,0.0,0.0,0.0,0.0,0.0,0.0,0.0,0.0,0.0,0.0,0.0,0.0,0.0,0.0,0.0,0.0,0.0,0.0,0.0,0.0,0.0,0.0,0.0,0.0,0.0,0.0,0.0,0.0,0.0,0.0,0.0,0.0,0.0,0.0,0.0,0.0,0.0,0.0,0.0,0.0,0.0,0.0,0.0,0.0,0.0,0.0,0.0,0.0,0.0,0.0,0.0,0.0,0.0,0.0,0.0,0.0,0.0,0.0,0.0,0.0,0.0,0.0,0.0,0.0,0.0,0.0,0.0,0.0,0.0,-1.1991,-1.1775,-1.1873,-1.1863,-1.1863,-1.1863,-1.2155,-1.2651,-1.3039,-1.3908,0.0,0.0,0.0,0.0,0.0,0.0,0.0,0.0,0.0,0.0,0.0,0.0,0.0,0.0,0.0,0.0,0.0,0.0,0.0,0.0,0.0,0.0,0.0,0.0,0.0,0.0,0.0,0.0,0.0,0.0,0.0,0.0,0.0,0.0,0.0,0.0,0.0,0.0,0.0,0.0,0.0,0.0,0.0,0.0,0.0,0.0,0.0,0.0,0.0,0.0,0.0,0.0,0.0,0.0,0.0,0.0,0.0,0.0,0.0,0.0,0.0,0.0,0.0,0.0,0.0,0.0,0.0,0.0,0.0,0.0,0.0,0.0,0.0,0.0,0.0,0.0,0.0,0.0,0.0,0.0,0.0,0.0,0.0,0.0,0.0,0.0,0.0,0.0,0.0,0.0,0.0,0.0,0.0,0.0,0.0,0.0,0.0,0.0,0.0,0.0,0.0,0.0,-1.1033,-1.0744,-1.0744,-1.0445,-1.0345,-1.0345,-1.0843,-1.134,-1.1934,-1.291,0.0,0.0,0.0,0.0,0.0,0.0,0.0,0.0,0.0,0.0,0.0,0.0,0.0,0.0,0.0,0.0,0.0,0.0,0.0,0.0,0.0,0.0,0.0,0.0,0.0,0.0,0.0,0.0,0.0,0.0,0.0,0.0,0.0,0.0,0.0,0.0,0.0,0.0,0.0,0.0,0.0,0.0,0.0,0.0,0.0,0.0,0.0,0.0,0.0,0.0,0.0,0.0,0.0,0.0,0.0,0.0,0.0,0.0,0.0,0.0,0.0,0.0,0.0,0.0,0.0,0.0,0.0,0.0,0.0,0.0,0.0,0.0,0.0,0.0,0.0,0.0,0.0,0.0,0.0,0.0,0.0,0.0,0.0,0.0,0.0,0.0,0.0,0.0,0.0,0.0,0.0,0.0,0.0,0.0,0.0,0.0,0.0,0.0,0.0,0.0,0.0,0.0,-1.0673,-1.0534,-1.0534,-1.0327,-1.0119,-1.0119,-1.0638,-1.1147,-1.1662,-1.2782,0.0,0.0,0.0,0.0,0.0,0.0,0.0,0.0,0.0,0.0,0.0,0.0,0.0,0.0,0.0,0.0,0.0,0.0,0.0,0.0,0.0,0.0,0.0,0.0,0.0,0.0,0.0,0.0,0.0,0.0,0.0,0.0,0.0,0.0,0.0,0.0,0.0,0.0,0.0,0.0,0.0,0.0,0.0,0.0,0.0,0.0,0.0,0.0,0.0,0.0,0.0,0.0,0.0,0.0,0.0,0.0,0.0,0.0,0.0,0.0,0.0,0.0,0.0,0.0,0.0,0.0,0.0,0.0,0.0,0.0,0.0,0.0,0.0,0.0,0.0,0.0,0.0,0.0,0.0,0.0,0.0,0.0,0.0,0.0,0.0,0.0,0.0,0.0,0.0,0.0,0.0,0.0,0.0,0.0,0.0,0.0,0.0,0.0,0.0,0.0,0.0,0.0,-0.9686,-0.9489,-0.9541,-0.922,-0.9108,-0.9108,-0.9429,-0.9951,-1.0672,0.0,0.0,0.0,0.0,0.0,0.0,0.0,0.0,0.0,0.0,0.0,0.0,0.0,0.0,0.0,0.0,0.0,0.0,0.0,0.0,0.0,0.0,0.0,0.0,0.0,0.0,0.0,0.0,0.0,0.0,0.0,0.0,0.0,0.0,0.0,0.0,0.0,0.0,0.0,0.0,0.0,0.0,0.0,0.0,0.0,0.0,0.0,0.0,0.0,0.0,0.0,0.0,0.0,0.0,0.0,0.0,0.0,0.0,0.0,0.0,0.0,0.0,0.0,0.0,0.0,0.0,0.0,0.0,0.0,0.0,0.0,0.0,0.0,0.0,0.0,0.0,0.0,0.0,0.0,0.0,0.0,0.0,0.0,0.0,0.0,0.0,0.0,0.0,0.0,0.0,0.0,0.0,0.0,0.0,0.0,0.0,0.0,0.0,0.0,0.0,0.0,0.0,-0.9654,-0.9349,-0.9033,-0.9133,-0.8911,-0.8716,-0.8764,-0.8988,-0.9421,-1.017,0.0,0.0,0.0,0.0,0.0,0.0,0.0,0.0,0.0,0.0,0.0,0.0,0.0,0.0,0.0,0.0,0.0,0.0,0.0,0.0,0.0,0.0,0.0,0.0,0.0,0.0,0.0,0.0,0.0,0.0,0.0,0.0,0.0,0.0,0.0,0.0,0.0,0.0,0.0,0.0,0.0,0.0,0.0,0.0,0.0,0.0,0.0,0.0,0.0,0.0,0.0,0.0,0.0,0.0,0.0,0.0,0.0,0.0,0.0,0.0,0.0,0.0,0.0,0.0,0.0,0.0,0.0,0.0,0.0,0.0,0.0,0.0,0.0,0.0,0.0,0.0,0.0,0.0,0.0,0.0,0.0,0.0,0.0,0.0,0.0,0.0,0.0,0.0,0.0,0.0,0.0,0.0,0.0,0.0,0.0,0.0,0.0,0.0,0.0,0.0,0.0,0.0,-0.9514,-0.9493,-0.9425,-0.9589,-0.9384,-0.9218,-0.9367,-0.9613,-0.9954,0.0,0.0,0.0,0.0,0.0,0.0,0.0,0.0,0.0,0.0,0.0,0.0,0.0,0.0,0.0,0.0,0.0,0.0,0.0,0.0,0.0,0.0,0.0,0.0,0.0,0.0,0.0,0.0,0.0,0.0,0.0,0.0,0.0,0.0,0.0,0.0,0.0,0.0,0.0,0.0,0.0,0.0,0.0,0.0,0.0,0.0,0.0,0.0,0.0,0.0,0.0,0.0,0.0,0.0,0.0,0.0,0.0,0.0,0.0,0.0,0.0,0.0,0.0,0.0,0.0,0.0,0.0,0.0,0.0,0.0,0.0,0.0,0.0,0.0,0.0,0.0,0.0,0.0,0.0,0.0,0.0,0.0,0.0,0.0,0.0,0.0,0.0,0.0,0.0,0.0,0.0,0.0,0.0,0.0,0.0,0.0,0.0,0.0,0.0,0.0,0.0,0.0,0.0,-0.946,-0.9367,-0.9373,-0.9422,-0.9428,-0.9334,-0.9374,-0.9497,-0.9613,-0.9954,0.0,0.0,0.0,0.0,0.0,0.0,0.0,0.0,0.0,0.0,0.0,0.0,0.0,0.0,0.0,0.0,0.0,0.0,0.0,0.0,0.0,0.0,0.0,0.0,0.0,0.0,0.0,0.0,0.0,0.0,0.0,0.0,0.0,0.0,0.0,0.0,0.0,0.0,0.0,0.0,0.0,0.0,0.0,0.0,0.0,0.0,0.0,0.0,0.0,0.0,0.0,0.0,0.0,0.0,0.0,0.0,0.0,0.0,0.0,0.0,0.0,0.0,0.0,0.0,0.0,0.0,0.0,0.0,0.0,0.0,0.0,0.0,0.0,0.0,0.0,0.0,0.0,0.0,0.0,0.0,0.0,0.0,0.0,0.0,0.0,0.0,0.0,0.0,0.0,0.0,0.0,0.0,0.0,0.0,0.0,0.0,0.0,0.0,0.0,0.0,0.0,0.0,-0.9412,-0.9432,-0.9412,-0.9476,-0.9469,-0.9496,-0.9551,-0.9557,-0.9676,-0.9787,0.0,0.0,0.0,0.0,0.0,0.0,0.0,0.0,0.0,0.0,0.0,0.0,0.0,0.0,0.0,0.0,0.0,0.0,0.0,0.0,0.0,0.0,0.0,0.0,0.0,0.0,0.0,0.0,0.0,0.0,0.0,0.0,0.0,0.0,0.0,0.0,0.0,0.0,0.0,0.0,0.0,0.0,0.0,0.0,0.0,0.0,0.0,0.0,0.0,0.0,0.0,0.0,0.0,0.0,0.0,0.0,0.0,0.0,0.0,0.0,0.0,0.0,0.0,0.0,0.0,0.0,0.0,0.0,0.0,0.0,0.0,0.0,0.0,0.0,0.0,0.0,0.0,0.0,0.0,0.0,0.0,0.0,0.0,0.0,0.0,0.0,0.0,0.0,0.0,0.0,0.0,0.0,0.0,0.0,0.0,0.0,0.0,0.0,0.0,0.0,0.0,0.0,-0.9483,-0.9483,-0.9566,-0.9686,-0.9673,-0.9727,-0.9856,-0.9863,-0.9863,-0.9863,0.0,0.0,0.0,0.0,0.0,0.0,0.0,0.0,0.0,0.0,0.0,0.0,0.0,0.0,0.0,0.0,0.0,0.0,0.0,0.0,0.0,0.0,0.0,0.0,0.0,0.0,0.0,0.0,0.0,0.0,0.0,0.0,0.0,0.0,0.0,0.0,0.0,0.0,0.0,0.0,0.0,0.0,0.0,0.0,0.0,0.0,0.0,0.0,0.0,0.0,0.0,0.0,0.0,0.0,0.0,0.0,0.0,0.0,0.0,0.0,-0.0,-0.0,0.0,0.0,0.0,0.0,0.0,0.0,0.0,0.0,0.0,0.0,0.0,0.0,0.0,0.0,0.0,0.0,0.0,0.0,0.0,0.0,0.0,0.0,0.0,0.0,0.0,0.0,0.0,0.0,0.0,0.0,0.0,0.0,0.0,0.0,0.0,0.0,0.0,0.0,0.0,0.0,-0.989,-0.9923,-0.991,-1.0141,-1.0141,-1.0148,-1.0181,-1.0181,-1.0181,-1.0181,-1.0154,0.0,0.0,0.0,0.0,0.0,0.0,0.0,0.0,0.0,0.0,0.0,0.0,0.0,0.0,0.0,0.0,0.0,0.0,0.0,0.0,0.0,0.0,0.0,0.0,0.0,0.0,0.0,0.0,0.0,0.0,0.0,0.0,0.0,0.0,0.0,0.0,0.0,0.0,0.0,0.0,0.0,0.0,0.0,0.0,0.0,0.0,0.0,0.0,0.0,0.0,0.0,0.0,0.0,0.0,0.0,0.0,0.0,0.0,0.0,-0.0,-0.0,0.0,0.0,0.0,0.0,0.0,0.0,0.0,0.0,0.0,0.0,0.0,0.0,0.0,0.0,0.0,0.0,0.0,0.0,0.0,0.0,0.0,0.0,0.0,0.0,0.0,0.0,0.0,0.0,0.0,0.0,0.0,0.0,0.0,0.0,0.0,0.0,0.0,0.0,0.0,0.0,-1.0109,-1.0141,-1.0174,-1.0297,-1.0283,-1.0283,-1.0283,-1.0283,-1.0283,-1.0283,-1.0283,0.0,0.0,0.0,0.0,0.0,0.0,0.0,0.0,0.0,0.0,0.0,0.0,0.0,0.0,0.0,0.0,0.0,0.0,0.0,0.0,0.0,0.0,0.0,0.0,0.0,0.0,0.0,0.0,0.0,0.0,0.0,0.0,0.0,0.0,0.0,0.0,0.0,0.0,0.0,0.0,0.0,0.0,0.0,0.0,0.0,0.0,0.0,0.0,0.0,0.0,0.0,0.0,0.0,-0.0,-0.0,-0.0,-0.0,-0.0,-0.0,-0.0,-0.0,-0.0,-0.0,0.0,0.0,0.0,0.0,0.0,0.0,0.0,0.0,0.0,0.0,0.0,0.0,0.0,0.0,0.0,0.0,0.0,0.0,0.0,0.0,0.0,0.0,0.0,0.0,-0.9985,-0.9924,-0.9802,0.0,0.0,0.0,0.0,0.0,0.0,0.0,0.0,0.0,0.0,0.0,-1.0317,-1.03,-1.0353,-1.0385,-1.0358,-1.0358,-1.0358,-1.0358,-1.0358,-1.0358,-1.0358,-1.0358,0.0,0.0,0.0,0.0,0.0,0.0,0.0,0.0,0.0,0.0,0.0,0.0,0.0,0.0,0.0,0.0,0.0,0.0,0.0,0.0,0.0,0.0,0.0,0.0,0.0,0.0,0.0,0.0,0.0,0.0,0.0,0.0,-0.0,-0.0,0.0,0.0,0.0,0.0,0.0,0.0,0.0,0.0,0.0,0.0,0.0,0.0,0.0,-0.0,-0.0,-0.0,-0.0,-0.0,-0.0,-0.0,-0.0,-0.0,-0.0,-0.0,-0.0,0.0,-0.0,-0.0,0.0,0.0,0.0,0.0,0.0,0.0,0.0,0.0,0.0,0.0,0.0,0.0,0.0,0.0,0.0,0.0,0.0,0.0,0.0,0.0,0.0,0.0,-1.2325,-1.2454,-1.1904,-1.1348,0.0,-1.0609,-1.0005,-1.0161,-1.0195,0.0,0.0,0.0,0.0,0.0,0.0,0.0,-1.0484,-1.0426,-1.0571,-1.0663,-1.0663,-1.0663,-1.0663,-1.0663,-1.0663,-1.0663,-1.0663,-1.0663,-1.0663,-1.0663,0.0,0.0,0.0,0.0,0.0,0.0,0.0,0.0,0.0,0.0,0.0,0.0,0.0,0.0,0.0,0.0,0.0,0.0,0.0,0.0,0.0,0.0,0.0,0.0,0.0,0.0,0.0,0.0,0.0,-0.0,-0.0,-0.0,-0.0,-0.0,0.0,0.0,0.0,0.0,0.0,0.0,0.0,0.0,0.0,-0.0,-0.0,-0.0,-0.0,-0.0,-0.0,-0.0,-0.0,-0.0,-0.0,-0.0,-0.0,-0.0,-0.0,-0.0,-0.0,-0.0,-0.0,-0.0,0.0,0.0,0.0,0.0,-0.1728,-0.3059,-0.3295,-0.3697,-0.4046,-0.4539,0.0,0.0,0.0,0.0,0.0,0.0,0.0,0.0,0.0,0.0,-1.2874,-1.2942,-1.2664,-1.24,-1.2474,-1.1735,-1.09,0.0,-1.0283,-1.0304,-1.0385,0.0,0.0,0.0,0.0,-1.0575,-1.0571,-1.0585,-1.0585,-1.0717,-1.0717,-1.0717,-1.0717,-1.0717,-1.0717,-1.0717,-1.0717,-1.0717,-1.0717,-1.0717,-1.0717,0.0,0.0,0.0,0.0,0.0,0.0,0.0,0.0,0.0,0.0,0.0,0.0,0.0,0.0,0.0,0.0,0.0,0.0,0.0,0.0,0.0,0.0,0.0,0.0,0.0,0.0,0.0,0.0,-0.0,-0.0,-0.0,-0.0,-0.0,0.0,0.0,0.0,0.0,0.0,0.0,-0.0,-0.0,-0.0,-0.0,-0.0,-0.0,-0.0,-0.0,-0.0,-0.0,-0.0,-0.0,-0.0,-0.0,-0.0,-0.0,-0.0,-0.0,-0.0,-0.0,-0.0,-0.0,-0.0,-0.0,-0.0,-0.0,-0.11,-0.2701,-0.2219,-0.2447,-0.2995,-0.3516,-0.4481,-0.5883,-0.8432,0.0,0.0,0.0,0.0,-1.3197,-1.3465,-1.3702,-1.3709,-1.3749,-1.3587,-1.3444,-1.3553,-1.2868,-1.1938,0.0,-1.0548,-1.0426,-1.0534,0.0,0.0,-1.0704,-1.0717,-1.0717,-1.0717,-1.0717,-1.0717,-1.0717,-1.0717,-1.0717,-1.0717,-1.0717,-1.0717,-1.0717,-1.0717,-1.0717,-1.0717,-1.0717,-1.0717,-1.0717,0.0,0.0,0.0,0.0,0.0,0.0,0.0,0.0,0.0,0.0,0.0,0.0,0.0,0.0,0.0,0.0,0.0,0.0,0.0,0.0,0.0,0.0,0.0,0.0,0.0,0.0,0.0,0.0,0.0,-0.0,-0.0,0.0,0.0,0.0,0.0,-0.0,-0.0,-0.0,-0.0,-0.0,-0.0,-0.0,-0.0,-0.0,-0.0,-0.0,-0.0,-0.0,-0.0,-0.0,-0.0,-0.0,-0.0,-0.0,-0.0,-0.0,-0.0,-0.0,-0.0,-0.0,-0.0,-0.0,-0.0,-0.0,-0.0691,-0.1571,-0.1502,-0.1538,-0.1734,-0.2146,-0.4332,-0.6998,-0.8943,-1.0248,0.0,0.0,-1.3167,-1.3739,-1.4693,-1.5321,-1.5744,-1.5886,-1.5269,-1.4652,-1.4658,-1.3953,-1.3051,0.0,-1.128,-1.0704,-1.0711,0.0,-1.0711,-1.0717,-1.0717,-1.0717,-1.0717,-1.0717,-1.0717,-1.0717,-1.0717,-1.0717,-1.0717,-1.0717,-1.0717,-1.0717,-1.0717,-1.0717,-1.0717,-1.0717,-1.0717,-1.0717,-1.0717,0.0,0.0,0.0,0.0,0.0,0.0,0.0,0.0,0.0,0.0,0.0,0.0,0.0,0.0,0.0,0.0,0.0,0.0,0.0,0.0,0.0,0.0,0.0,0.0,0.0,0.0,0.0,0.0,-0.0,-0.0,0.0,-0.0,-0.0,-0.0,-0.0,-0.0,-0.0,-0.0,-0.0,-0.0,-0.0,-0.0,-0.0,-0.0,-0.0,-0.0,-0.0,-0.0,-0.0,-0.0,-0.0,-0.0,-0.0,-0.0,-0.0,-0.0,-0.0,-0.0,-0.0,-0.0,-0.0,-0.0,-0.0,-0.113,-0.2647,-0.2519,-0.254,-0.2737,-0.3726,-0.5805,-0.8182,-0.9564,-1.0761,-1.1944,-1.3418,-1.4291,-1.4758,-1.5112,-1.5605,-1.6015,-1.6069,-1.5839,-1.5601,-1.5601,-1.4896,-1.417,-1.3844,-1.3057,-1.2447,-1.2447,-1.1965,-1.1586,-1.1586,-1.1199,-1.0867,-1.0871,-1.0887,-1.107,-1.1017,-1.0974,-1.1049,-1.1049,-1.0968,-1.1002,-1.1002,-1.1002,-1.1002,-1.1002,-1.1002,-1.1002,-1.1002,-1.1002,-1.1002,0.0,0.0,0.0,0.0,0.0,0.0,0.0,0.0,0.0,0.0,0.0,0.0,0.0,0.0,0.0,0.0,0.0,0.0,0.0,0.0,0.0,0.0,0.0,0.0,0.0,-0.0,-0.0,-0.0,-0.0,-0.0,-0.0,-0.0,-0.0,-0.0,-0.0,-0.0,-0.0,-0.0,-0.0,-0.0,-0.0,-0.0,-0.0,-0.0,-0.0,-0.0,-0.0,-0.0,-0.0,-0.0,-0.0,-0.0,-0.0,-0.0,-0.0,-0.0,-0.0,-0.0,-0.0,-0.0,-0.0,-0.0,-0.1374,-0.3144,-0.3155,-0.3362,-0.3768,-0.4957,-0.6736,-0.8526,-0.9563,-1.0776,-1.2186,-1.3456,-1.4277,-1.5074,-1.5074,-1.5479,-1.6083,-1.6083,-1.6123,-1.6157,-1.6157,-1.573,-1.5343,-1.5343,-1.4333,-1.3478,-1.3478,-1.3024,-1.2664,-1.2664,-1.2025,-1.1403,-1.144,-1.1276,-1.124,-1.1186,-1.1145,-1.1219,-1.1219,-1.1219,-1.1199,-1.1165,-1.1165,-1.1165,-1.1165,-1.1165,-1.1165,-1.1165,-1.1165,-1.1165,-1.1165,0.0,0.0,0.0,0.0,0.0,0.0,0.0,0.0,0.0,0.0,0.0,0.0,0.0,0.0,0.0,0.0,0.0,0.0,0.0,0.0,0.0,0.0,0.0,-0.0,-0.0,-0.0,-0.0,-0.0,-0.0,-0.0,-0.0,-0.0,-0.0,-0.0,-0.0,-0.0,-0.0,-0.0,-0.0,-0.0,-0.0,-0.0,-0.0,-0.0,-0.0,-0.0,-0.0,-0.0,-0.0,-0.0,-0.0,-0.0,-0.0,-0.0,-0.0,-0.0,-0.0,-0.0,-0.0,-0.0,-0.0,-0.1376,-0.315,-0.3179,-0.3609,-0.4444,-0.5051,-0.6662,-0.8065,-0.8668,-1.0476,-1.2084,-1.2084,-1.3284,-1.4482,-1.4482,-1.5286,-1.6096,-1.6096,-1.6205,-1.632,-1.632,-1.6422,-1.6524,-1.6524,-1.5011,-1.3722,-1.3722,-1.381,-1.3885,-1.3885,-1.3094,0.0,-1.2589,-1.1868,-1.1325,-1.1325,-1.1325,-1.1325,-1.1325,-1.1328,-1.1341,-1.124,-1.1253,-1.126,-1.126,-1.126,-1.126,-1.126,-1.126,-1.126,-1.126,0.0,0.0,0.0,0.0,0.0,0.0,0.0,0.0,0.0,0.0,0.0,0.0,0.0,0.0,0.0,0.0,0.0,0.0,0.0,0.0,0.0,-0.0,-0.0,-0.0,-0.0,-0.0,-0.0,-0.0,-0.0,-0.0,-0.0,-0.0,-0.0,-0.0,-0.0,-0.0,-0.0,-0.0,-0.0,-0.0,-0.0,-0.0,-0.0,-0.0,-0.0,-0.0,-0.0,-0.0,-0.0,-0.0,-0.0,-0.0,-0.0,-0.0,-0.0,-0.0,-0.0,-0.0,-0.0,-0.0,-0.0,-0.0802,-0.2206,-0.3016,-0.3628,-0.4038,-0.4242,-0.545,-0.7261,-0.8467,-1.007,-1.1678,-1.2884,-1.4155,-1.5233,-1.5233,-1.5714,-1.6402,-1.6402,-1.6435,-1.6463,-1.6463,-1.649,-1.6524,-1.6524,-1.6178,-1.5859,-1.5744,-1.5221,-1.4814,-1.4814,-1.4091,0.0,-1.3669,-1.3483,-1.3411,-1.3554,-1.3562,-1.3562,-1.3562,-1.3625,-1.3475,-1.344,-1.3526,-1.3437,-1.3437,-1.3437,-1.3437,-1.3437,-1.3437,-1.3437,0.0,0.0,0.0,0.0,0.0,0.0,0.0,0.0,0.0,0.0,0.0,0.0,0.0,0.0,0.0,0.0,0.0,0.0,0.0,0.0,0.0,0.0,-0.0,-0.0,-0.0,-0.0,-0.0,-0.0,-0.0,-0.0,-0.0,-0.0,-0.0,-0.0,-0.0,-0.0,-0.0,-0.0,-0.0,-0.0,-0.0,-0.0,-0.0,-0.0,-0.0,-0.0,-0.0,-0.0,-0.0,-0.0,-0.0,-0.0,-0.0,-0.0,-0.0,-0.0,-0.0,0.0,0.0,0.0,0.0,0.0,-0.0606,-0.1818,-0.283,-0.3636,-0.4242,-0.4242,-0.5652,-0.7468,-0.8709,-1.0331,-1.1954,-1.3222,-1.4506,-1.5589,-1.5589,-1.6055,-1.6524,-1.6524,-1.6571,-1.6619,-1.6619,-1.6666,-1.6714,-1.6714,-1.6788,0.0,-1.6809,-1.632,-1.5934,-1.5934,-1.5248,-1.4668,-1.4864,-1.466,-1.437,-1.4493,-1.4625,-1.4597,-1.4597,-1.4645,0.0,0.0,0.0,-1.4448,-1.4408,-1.441,0.0,0.0,0.0,-1.4482,-1.4482,0.0,0.0,0.0,-1.3485,-1.3566,0.0,0.0,0.0,0.0,0.0,0.0,0.0,0.0,0.0,0.0,0.0,0.0,0.0,0.0,0.0,0.0,-0.0,-0.0,-0.0,-0.0,-0.0,-0.0,-0.0,-0.0,-0.0,-0.0,-0.0,-0.0,-0.0,-0.0,-0.0,-0.0,0.0,0.0,0.0,-0.0,-0.0,-0.0,-0.0,-0.0,-0.0,-0.0,-0.0,-0.0,-0.0,-0.0,-0.0,-0.0,-0.0,-0.0,-0.0,-0.0,-0.0,-0.0202,-0.0404,-0.0404,-0.101,-0.202,-0.3034,0.0,0.0,-0.5062,-0.6477,-0.8305,-0.9189,-1.0838,-1.2491,-1.3416,-1.4693,-1.5738,-1.5738,-1.6154,-1.6571,-1.6571,-1.6673,-1.6775,-1.6775,-1.6897,-1.7005,-1.7005,-1.7019,-1.7073,-1.7195,-1.71,-1.7012,-1.7026,-1.6347,-1.5777,-1.6048,-1.5341,-1.4897,-1.497,0.0,0.0,-1.5139,-1.4956,-1.4942,-1.4991,-1.5042,-1.497,-1.5074,-1.5087,-1.5059,-1.5059,-1.5045,-1.5038,-1.5038,-1.5038,-1.5452,-1.6205,-1.5045,-1.4624,0.0,0.0,0.0,0.0,0.0,0.0,0.0,0.0,0.0,0.0,0.0,0.0,0.0,0.0,0.0,-0.0,-0.0,-0.0,-0.0,-0.0,-0.0,-0.0,-0.0,-0.0,-0.0,-0.0,-0.0,-0.0,-0.0,-0.0,-0.0,-0.0,-0.0,-0.0,-0.0,-0.0,-0.0,-0.0,-0.0,-0.0,0.0,0.0,-0.0,-0.0,-0.0,-0.0,-0.0,-0.0,-0.0,-0.0,-0.0,-0.0,-0.0,-0.101,-0.2626,-0.2626,-0.303,-0.3841,-0.4888,-0.5308,-0.5723,-0.6791,-0.7629,-0.8657,-1.0518,-1.2169,0.0,-1.488,-1.5789,-1.65,-1.65,-1.6802,-1.689,-1.689,-1.6917,-1.6937,-1.6937,-1.7046,-1.7154,-1.7154,-1.7249,-1.7344,-1.7372,-1.7249,-1.7195,-1.7317,-1.7188,-1.7121,-1.7029,-1.6855,-1.6909,-1.6962,-1.7112,-1.6956,-1.6956,-1.7079,-1.7094,-1.6976,-1.6944,-1.689,-1.6822,-1.6815,-1.6802,-1.6802,-1.6937,-1.6904,-1.6904,-1.6904,-1.6992,-1.7141,-1.6185,-1.6137,0.0,0.0,0.0,0.0,0.0,0.0,0.0,0.0,0.0,0.0,0.0,-0.0,-0.0,0.0,-0.0,-0.0,-0.0,-0.0,-0.0,-0.0,-0.0,-0.0,-0.0,-0.0,-0.0,-0.0,-0.0,-0.0,-0.0,-0.0,-0.0,-0.0,-0.0,-0.0,-0.0,-0.0,-0.0,-0.0,-0.0,-0.0,-0.0,-0.0,-0.0,-0.0,-0.0606,-0.1616,-0.1625,-0.1628,-0.1628,-0.1635,-0.1638,-0.1638,-0.1638,-0.3064,-0.5092,-0.4909,-0.5528,-0.6144,-0.6994,-0.7619,-0.803,-0.8685,-0.9522,-1.0768,-1.2058,-1.3319,-1.4376,-1.5484,-1.6392,-1.6863,-1.6863,-1.6924,-1.6998,-1.7066,-1.7087,-1.7107,-1.7182,-1.7256,-1.7304,-1.7304,-1.7365,-1.7446,-1.7521,-1.7473,-1.7419,-1.7419,-1.7419,-1.7433,-1.7453,-1.7521,-1.7629,-1.7619,-1.786,-1.786,-1.786,-1.786,-1.7639,-1.7632,-1.7717,-1.765,-1.765,-1.7684,-1.7717,-1.7717,-1.767,-1.765,-1.765,-1.765,-1.765,-1.7629,-1.7182,-1.7175,0.0,0.0,0.0,0.0,0.0,0.0,0.0,-0.0,-0.0,-0.0,-0.0,-0.0,-0.0,-0.0,-0.0,-0.0,-0.0,-0.0,-0.0,-0.0,-0.0,-0.0,-0.0,-0.0,-0.0,-0.0,-0.0,-0.0,-0.0,-0.0,-0.0,-0.0,-0.0,-0.0,-0.0,-0.0,-0.0,-0.0,-0.0,-0.0,-0.0405,-0.0608,-0.0608,-0.0609,-0.1625,-0.3454,-0.3891,-0.4108,-0.4111,-0.4346,-0.4358,-0.436,-0.4575,-0.5802,-0.742,-0.7043,-0.7469,-0.8297,-0.9143,-0.9967,-1.0583,-1.0807,-1.1851,-1.3107,-1.3834,-1.4701,-1.5351,-1.6099,-1.6578,-1.7019,-1.7019,-1.7046,-1.7093,-1.7209,-1.7236,-1.727,-1.7392,-1.7446,-1.7467,-1.7467,-1.7487,-1.7548,-1.767,-1.7684,-1.765,-1.7528,-1.7507,-1.7548,-1.767,-1.765,-1.7684,-1.7846,-1.786,-1.786,-1.786,-1.786,-1.786,-1.7867,-1.7867,-1.7867,-1.8088,-1.8088,-1.7901,-1.7948,-1.7935,-1.7935,-1.7948,-1.7948,-1.7948,-1.7948,-1.7948,-1.786,-0.0,-0.0,-0.0,-0.0,-0.0,-0.0,0.0,-0.0,-0.0,-0.0,-0.0,-0.0,-0.0,-0.0,-0.0,-0.0,-0.0,-0.0,-0.0,-0.0,-0.0,-0.0,-0.0,-0.0,-0.0,-0.0,-0.0,-0.0,-0.0,-0.0,-0.0,-0.0,-0.0,-0.0,-0.0,-0.0,-0.0,-0.0,-0.0,-0.0,-0.2037,-0.3069,-0.307,-0.3096,-0.3106,-0.3518,-0.5595,-0.6425,-0.6428,-0.7469,-0.7886,-0.7893,-0.8372,-0.9023,-0.9635,-0.8321,-0.8293,-0.9124,-1.0444,-1.1517,-1.2573,-1.3515,-1.3974,-1.4394,-1.5469,-1.5895,-1.6111,-1.6761,-1.7073,-1.7168,-1.7168,-1.727,-1.7372,-1.7392,-1.7392,-1.7399,-1.7419,-1.7528,-1.7623,-1.7623,-1.7717,-1.7826,-1.7826,-1.7846,-1.7826,-1.7812,-1.7812,-1.7826,-1.7846,-1.7826,-1.7846,-1.786,-1.786,-1.786,-1.786,-1.786,-1.7867,-1.8088,-1.8088,-1.8088,-1.8316,-1.8316,-1.8218,-1.8267,-1.8179,-1.8179,-1.8267,-1.8267,-1.8267,-1.8267,-1.8267,-1.8111,-0.0,-0.0,-0.0,-0.0,-0.0,-0.0,-0.0,-0.0,-0.0,-0.0,-0.0,-0.0,-0.0,-0.0,-0.0,-0.0,-0.0,-0.0,-0.0,-0.0,-0.0,-0.0,-0.0,-0.0,-0.0,-0.0,-0.0,-0.0,-0.0,-0.0,-0.0,-0.0,-0.0,-0.0,-0.0,-0.0608,-0.2037,-0.2037,-0.2042,-0.2052,-0.2884,-0.3303,-0.3511,-0.4769,-0.5828,-0.6692,-0.7739,-0.8385,-0.8843,-0.9263,-0.9892,-1.0525,-1.0563,-1.1208,-1.1414,-1.0324,-1.0303,-1.1354,-1.2655,-1.3725,-1.4784,-1.5265,-1.571,-1.5933,-1.665,-1.6677,-1.6909,-1.7209,-1.7277,-1.7324,-1.7324,-1.7372,-1.7446,-1.7534,-1.7555,-1.7575,-1.767,-1.7724,-1.7772,-1.7772,-1.7826,-1.786,-1.786,-1.786,-1.786,-1.786,-1.786,-1.786,-1.786,-1.786,-1.7867,-1.8088,-1.8088,-1.8088,-1.8088,-1.8088,-1.8095,-1.8316,-1.8199,-1.8161,-1.8389,-1.8389,-1.8208,-1.8329,-1.8295,-1.8208,-1.8321,-1.8321,-1.8321,-1.8321,-1.8321,-1.8247,-0.0,-0.0,-0.0,-0.0,-0.0,-0.0,-0.0,-0.0,-0.0198,-0.0798,-0.08,-0.0801,-0.0404,-0.0404,-0.0404,-0.0,-0.0,-0.0,-0.0,-0.0,-0.0,-0.0,-0.0,-0.0,-0.0,-0.0,-0.0,-0.0,-0.0,-0.0,-0.0,-0.0,-0.0202,-0.1014,-0.1014,-0.163,-0.3291,-0.4113,-0.4333,-0.436,-0.4579,-0.479,-0.4998,-0.689,-0.8389,-0.9492,-0.9912,-1.0361,-1.0839,-1.1051,-1.1704,-1.2368,-1.2581,-1.3025,-1.3264,-1.2838,-1.301,-1.3591,-1.4434,-1.5518,-1.64,-1.64,-1.6644,-1.7121,-1.7222,-1.7256,-1.7277,-1.7392,-1.7453,-1.7487,-1.7487,-1.7514,-1.7568,-1.7684,-1.7704,-1.7738,-1.7846,-1.786,-1.786,-1.786,-1.786,-1.788,-1.7914,-1.7935,-1.7935,-1.7989,-1.7989,-1.7968,-1.7935,-1.788,-1.8088,-1.8095,-1.8232,-1.8342,-1.8342,-1.8342,-1.8342,-1.8342,-1.8282,-1.8284,-1.8517,-1.8517,-1.8517,-1.8517,-1.8517,-1.8416,-1.8443,-1.8443,-1.8443,-1.8443,-1.8443,-1.8443,-0.0177,-0.0,-0.0,-0.0,-0.0,-0.0,-0.0,-0.0,-0.0599,-0.2621,-0.303,-0.2828,-0.1818,-0.1616,-0.1212,-0.0202,-0.0,-0.0,-0.0,-0.0,-0.0,-0.0,-0.0,-0.0,-0.0,-0.0,-0.0,-0.0,-0.0,-0.0,-0.0,-0.0,-0.1015,-0.3276,-0.3277,-0.3291,-0.332,-0.5602,-0.6643,-0.6643,-0.7748,-0.8622,-0.9042,-0.9741,-1.02,-1.0204,-1.1892,-1.253,-1.2742,-1.3169,-1.3662,-1.377,-1.4411,-1.47,-1.5032,-1.6106,-1.5936,-1.5283,-1.592,-1.6644,-1.7188,-1.7188,-1.7283,-1.7405,-1.7412,-1.7412,-1.7412,-1.7419,-1.7528,-1.765,-1.765,-1.7738,-1.7846,-1.786,-1.786,-1.786,-1.786,-1.786,-1.786,-1.786,-1.786,-1.7914,-1.8057,-1.8091,-1.8124,-1.8287,-1.8301,-1.8247,-1.8111,-1.8177,-1.8316,-1.8316,-1.8389,-1.8251,-1.8251,-1.8251,-1.8251,-1.849,-1.8503,-1.8523,-1.8762,-1.8762,-1.8762,-1.8762,-1.8762,-1.8762,-1.8742,-1.8742,-1.8742,-1.8742,-1.8742,-1.8742,-0.2025,-0.1133,-0.0,-0.0,-0.0,-0.0,-0.0,-0.0,-0.0604,-0.2827,-0.353,-0.3817,-0.3817,-0.3817,-0.3626,-0.3242,-0.1969,-0.1009,-0.1009,-0.0404,-0.0,-0.0,-0.0,-0.0,-0.0,-0.0,-0.0,-0.0,-0.0,-0.0,-0.0,-0.1436,-0.3298,-0.5584,-0.5581,-0.5809,-0.6277,-0.7745,-0.8605,-0.9071,-1.0151,-1.1011,-1.1432,-1.1671,-1.2364,-1.3285,-1.3711,-1.4613,-1.5331,-1.5546,-1.5791,-1.6264,-1.6485,-1.6511,-1.6556,-1.6988,-1.6922,-1.6628,-1.6842,-1.709,-1.7344,-1.7344,-1.7378,-1.7439,-1.7541,-1.7568,-1.7589,-1.7684,-1.7758,-1.7792,-1.7792,-1.7826,-1.786,-1.786,-1.786,-1.786,-1.786,-1.786,-1.7901,-1.8002,-1.8023,-1.8057,-1.8213,-1.8247,-1.8287,-1.8443,-1.8321,-1.8219,-1.8233,-1.8253,-1.8482,-1.8409,-1.8633,-1.8523,-1.8523,-1.8523,-1.8755,-1.8762,-1.8762,-1.8762,-1.8762,-1.8762,-1.8762,-1.8762,-1.8762,-1.8762,-1.8762,-1.8762,-1.8762,-1.8762,-1.8762,-1.8816,-0.2942,-0.189,-0.0775,-0.1166,-0.1181,-0.1196,-0.12,-0.1206,-0.1818,-0.3838,-0.4633,-0.4999,-0.5182,-0.5367,-0.5552,-0.5364,-0.4083,-0.2825,-0.222,-0.1615,-0.0808,-0.0,-0.0,-0.0,-0.0,-0.0812,-0.0812,-0.0,-0.0,-0.0412,-0.1235,-0.3313,-0.5202,-0.647,-0.6884,-0.7536,-0.8443,-0.9289,-1.0366,-1.1474,-1.2319,-1.2979,-1.3444,-1.3868,-1.4579,-1.5344,-1.5558,-1.6037,-1.6981,-1.6981,-1.7021,-1.75,-1.75,-1.7534,-1.7575,-1.7575,-1.7575,-1.7561,-1.746,-1.7453,-1.75,-1.75,-1.7534,-1.7595,-1.7704,-1.7717,-1.7738,-1.7846,-1.786,-1.786,-1.786,-1.7901,-1.7948,-1.7948,-1.7989,-1.8023,-1.8023,-1.8023,-1.8057,-1.8158,-1.8179,-1.8213,-1.8375,-1.8443,-1.8511,-1.8599,-1.8477,-1.8409,-1.8464,-1.8534,-1.8575,-1.8721,-1.8762,-1.8762,-1.8762,-1.8762,-1.8762,-1.8762,-1.8762,-1.8762,-1.8762,-1.8762,-1.8816,-1.8918,-1.8884,-1.8884,-1.8918,-1.8918,-1.8918,-1.8918,-1.8918,-1.8972,-0.302,-0.2394,-0.233,-0.3138,-0.3365,-0.3394,-0.3426,-0.3431,-0.4038,-0.6259,-0.6353,-0.6262,-0.6259,-0.6605,-0.6958,-0.6595,-0.5985,-0.5019,-0.3417,-0.3224,-0.2423,-0.0404,-0.0,-0.0,-0.0,-0.2051,-0.2462,-0.041,-0.0207,-0.1039,-0.3326,-0.5616,-0.6473,-0.5893,-0.736,-0.844,-0.9572,-1.0839,-1.2113,-1.3813,-1.4235,-1.4727,-1.4856,-1.593,-1.6434,-1.6779,-1.7217,-1.7439,-1.7446,-1.7446,-1.7528,-1.7663,-1.7663,-1.7738,-1.786,-1.786,-1.786,-1.7826,-1.7541,-1.7541,-1.7663,-1.7663,-1.7758,-1.786,-1.786,-1.786,-1.788,-1.788,-1.788,-1.788,-1.788,-1.7989,-1.8111,-1.8111,-1.8213,-1.8321,-1.8321,-1.8321,-1.8321,-1.8335,-1.8335,-1.8389,-1.8511,-1.8674,-1.8762,-1.8762,-1.8762,-1.8762,-1.8762,-1.8762,-1.8762,-1.8762,-1.8762,-1.8762,-1.8762,-1.8762,-1.8762,-1.8762,-1.8762,-1.8762,-1.8762,-1.8782,-1.8918,-1.8959,-1.9108,-1.9115,-1.9203,-1.9203,-1.9203,-1.9203,-1.9203,-1.9203,-0.4295,-0.3458,-0.3334,-0.5153,-0.5602,-0.5841,-0.6662,-0.6867,-0.7065,-0.7867,-0.7635,-0.7245,-0.7749,-0.7275,-0.7031,-0.7187,-0.6523,-0.5674,-0.4543,-0.3734,-0.2833,-0.1835,-0.1429,-0.1229,-0.124,-0.2498,-0.3762,-0.5015,-0.356,-0.2726,-0.3355,-0.5485,-0.7205,-0.8282,-0.9122,-1.0395,-1.1897,-1.3802,-1.5121,-1.5654,-1.6286,-1.6576,-1.6713,-1.6935,-1.723,-1.7371,-1.7589,-1.765,-1.7758,-1.7758,-1.7772,-1.7812,-1.7812,-1.7826,-1.786,-1.786,-1.786,-1.7846,-1.7772,-1.7772,-1.7812,-1.7812,-1.7826,-1.786,-1.786,-1.7948,-1.8036,-1.8036,-1.8111,-1.8199,-1.8199,-1.8233,-1.8267,-1.8267,-1.8287,-1.8321,-1.8321,-1.8321,-1.8355,-1.8464,-1.8565,-1.8654,-1.8694,-1.8742,-1.8762,-1.8762,-1.8994,-1.9001,-1.8762,-1.8762,-1.8762,-1.8762,-1.8762,-1.8762,-1.8762,-1.8762,-1.8762,-1.9001,-1.9001,-1.9001,-1.9001,-1.9214,-1.9128,-1.9203,-1.9183,-1.9183,-1.9203,-1.9203,-1.9203,-1.9203,-1.9203,-1.9257,-0.4406,-0.352,-0.3759,-0.5973,-0.682,-0.7221,-0.7824,-0.8357,-0.8872,-0.9016,-0.8469,-0.8353,-0.8983,-0.8697,-0.8398,-0.8198,-0.745,-0.6529,-0.5366,-0.4569,-0.3867,-0.3273,-0.3699,-0.3929,-0.3963,-0.5033,-0.6531,-0.7616,-0.5926,-0.529,-0.5924,-0.7438,-0.873,-1.0004,-1.0843,-1.2344,-1.4309,-1.5798,-1.6723,-1.6869,-1.7083,-1.7372,-1.7521,-1.7521,-1.7602,-1.7738,0.0,-1.7792,-1.786,-1.786,-1.786,-1.786,-1.786,-1.786,-1.786,-1.7935,-1.7968,-1.7968,-1.8036,-1.8057,-1.8057,-1.7989,-1.7968,-1.7968,-1.8036,-1.8124,-1.8199,-1.8199,-1.8247,-1.8321,-1.8321,-1.8375,-1.8409,-1.8409,-1.8464,-1.8511,-1.8511,-1.8511,-1.8531,-1.862,-1.8708,-1.8782,-1.885,-1.8871,-1.8871,-1.8884,-1.9056,-1.9001,-1.9001,-1.9001,-1.9001,-1.9001,-1.9001,-1.9001,-1.9001,-1.9001,-1.9001,-1.9001,-1.9013,-1.9149,-1.9149,-1.9305,-1.9153,-1.9393,-1.9339,-1.9345,-1.94,-1.94,-1.94,-1.94,-1.94,-1.9447,-0.3683,-0.3144,-0.3984,-0.6185,-0.7421,-0.8141,-0.7867,-0.9048,-0.9974,-0.969,-0.9366,-0.9361,-0.996,-1.0116,-0.9835,-0.8912,-0.8181,-0.7253,-0.5889,-0.5616,-0.5489,-0.4722,-0.6002,-0.7095,-0.6949,-0.8426,-0.9296,-0.9367,-0.8309,-0.8096,-0.9159,-1.0012,-1.0861,-1.1708,-1.2555,-1.4309,-1.6589,-1.7009,-1.7297,-1.7453,-1.7453,-1.7528,-1.7684,-1.7684,-1.7738,-1.786,-1.786,-1.786,-1.786,-1.786,-1.786,-1.786,-1.788,-1.7901,-1.7914,-1.8077,-1.8124,-1.8145,-1.8267,-1.8321,-1.8301,-1.8158,-1.8124,-1.8145,-1.8287,-1.8335,-1.8355,-1.8355,-1.8355,-1.8375,-1.8375,-1.8464,-1.8565,-1.8565,-1.8654,-1.8762,-1.8762,-1.8782,-1.8796,-1.8796,-1.8816,-1.8871,-1.8993,-1.9027,-1.9027,-1.9067,-1.9166,-1.9296,-1.924,-1.931,-1.9125,-1.9125,-1.9125,-1.9125,-1.9125,-1.9125,-1.9132,-1.9132,-1.9133,-1.9164,-1.9164,-1.9164,-1.9408,-1.9408,-1.9535,-1.9522,-1.9664,-1.9664,-1.9664,-1.9664,-1.9664,-1.9664,-0.254,-0.2961,-0.4788,-0.7242,-0.8266,-0.8738,-0.88,-1.0147,-1.1056,-1.0709,-1.0155,-0.996,-1.0859,-1.0565,-0.9803,-0.8469,-0.8181,-0.7402,-0.5627,-0.6092,-0.6638,-0.6436,-0.7536,-0.8199,-0.8269,-0.9337,-1.0192,-1.0632,-1.1267,-1.1267,-0.9996,-1.1478,-1.3005,-1.4596,-1.5454,-1.6162,-1.7163,-1.7385,-1.746,-1.7609,-1.7609,-1.7684,-1.7826,-1.7826,-1.7846,-1.786,-1.786,0.0,-1.786,-1.786,-1.786,-1.788,-1.8002,-1.8057,-1.8077,-1.8233,-1.8287,-1.8287,-1.8301,-1.8321,-1.8321,-1.8287,-1.8287,-1.8287,-1.8321,-1.8409,-1.8498,-1.8498,-1.8586,-1.8694,-1.8694,-1.8708,-1.8728,-1.8728,-1.8742,-1.8762,-1.8762,-1.8871,-1.8959,-1.8959,-1.904,-1.9128,-1.9169,-1.9169,-1.9149,-1.9081,-1.9338,-1.9289,-1.9282,-1.9203,-1.9253,-1.9253,-1.9253,-1.9253,-1.9253,-1.9253,-1.9253,-1.9253,-1.9361,-1.9408,-1.9657,-1.9657,-1.9657,-1.9657,-1.9644,-1.9624,-1.9664,-1.9664,-1.9664,-1.9664,-1.9664,-1.9664,-0.2957,-0.3385,-0.4819,-0.7465,-0.8676,-0.9457,-0.9706,-1.0893,-1.1781,-1.106,-1.0498,-1.0511,-1.094,-1.0723,-0.9991,-0.8622,-0.8203,-0.7559,-0.6079,-0.6694,-0.742,-0.8126,-0.948,-1.0366,-1.0619,-1.1685,-1.253,-1.2742,-1.3802,-1.3802,-1.253,-1.3863,-1.5022,-1.6018,-1.6668,-1.717,-1.7541,-1.7541,-1.7616,-1.7758,-1.7758,-1.7792,-1.786,-1.786,-1.786,-1.786,-1.786,-1.786,-1.786,-1.7948,-1.7989,-1.8002,-1.8145,-1.8213,-1.8233,-1.8375,-1.8423,-1.8443,-1.8511,-1.8552,-1.8552,-1.8552,-1.8498,-1.8443,-1.8531,-1.8599,-1.8654,-1.8654,-1.8708,-1.8762,-1.8762,-1.8762,-1.8762,-1.8762,-1.8816,-1.8905,-1.8972,-1.9047,-1.9094,-1.9094,-1.9149,-1.9217,-1.9305,-1.9325,-1.9325,-1.9366,-1.9413,-1.964,-1.9502,-1.9488,-1.9414,-1.9414,-1.9414,-1.9414,-1.9414,-1.9414,-1.9414,-1.9657,-1.9657,-1.9657,-1.9664,-1.9664,-1.9664,-1.9664,-1.9664,-1.9664,-1.9664,-1.9664,-1.9664,-1.9664,-1.9664,-1.9664,-0.3956,-0.4009,-0.4847,-0.7267,-0.8672,-0.9777,-1.0199,-1.1397,-1.225,-1.0953,-1.0717,-1.0717,-1.0717,-1.0741,-1.0357,-0.8861,-0.8396,-0.7878,-0.714,-0.7687,-0.876,-0.9812,-1.1428,-1.2747,-1.3164,-1.4224,-1.4862,-1.4862,-1.5735,-1.5959,-1.5115,-1.6099,-1.6674,-1.6811,-1.725,-1.7541,-1.7684,-1.7704,-1.7758,-1.786,-1.786,-1.786,-1.786,-1.786,-1.786,-1.786,-1.786,-1.788,-1.7914,-1.8036,-1.8111,-1.8158,-1.8301,-1.8375,-1.8389,-1.8531,-1.8586,-1.8599,-1.8728,-1.8762,-1.8762,-1.8762,-1.8674,-1.8599,-1.8728,-1.8762,-1.8762,-1.8762,-1.8762,-1.8762,-1.8796,-1.8816,-1.8816,-1.885,-1.8959,-1.9061,-1.9183,-1.9217,-1.9257,-1.9257,-1.9271,-1.9345,-1.9468,-1.9481,-1.9522,-1.9644,-1.9664,-1.9664,-1.9664,-1.9664,-1.9664,-1.9664,-1.9664,-1.9664,-1.9664,-1.9664,-1.9664,-1.9664,-1.9664,-1.9664,-1.9664,-1.9664,-1.9664,-1.9664,-1.9664,-1.9664,-1.9664,-1.9664,-1.9664,-1.9664,-1.9664,-1.9664,-0.5085,-0.461,-0.5049,-0.6254,-0.8263,-0.9777,-1.0204,-1.1403,-1.225,-1.0953,-1.0717,-1.0717,-1.0717,-1.1025,-1.062,-0.8927,-0.8951,-0.8955,-0.8309,-0.9184,-1.0625,-1.2147,-1.338,-1.4446,-1.5072,-1.5493,-1.592,-1.592,-1.667,-1.6956,-1.6956,-1.7103,-1.7473,-1.7404,-1.7629,-1.7704,-1.7846,-1.7846,-1.7846,-1.786,-1.786,-1.786,-1.786,-1.786,-1.786,-1.786,-1.786,-1.7935,0.0,-1.8091,-1.8179,-1.8321,-1.8464,-1.8511,-1.8531,-1.8694,-1.8742,-1.8742,-1.8762,-1.8762,-1.8762,-1.8762,-1.8742,-1.8742,-1.8762,-1.8762,-1.8762,-1.8762,-1.8762,-1.8796,-1.8938,-1.8972,-1.9006,-1.9128,-1.9169,-1.9183,-1.9203,-1.9305,-1.9413,-1.9413,-1.9522,-1.9624,-1.9644,-1.9644,-1.9644,-1.9664,-1.9664,-1.9664,-1.9664,-1.9664,-1.9664,-1.9664,-1.9664,-1.9664,-1.9664,-1.9664,-1.9664,-1.9664,-1.9664,-1.9664,-1.9664,-1.9664,-1.9664,-1.9664,-1.9664,-1.9664,-1.9664,-1.9664,-1.9664,-1.9664,-1.9664,-1.9664,-0.6886,-0.5635,-0.4442,-0.5246,-0.7056,-0.8993,-0.9511,-1.0898,-1.1924,-1.0953,-1.0717,-1.0717,-1.0717,-1.1025,-1.0913,-0.9621,-0.9545,-0.9765,-0.9707,-1.0254,-1.1377,-1.3417,-1.444,-1.5289,-1.6131,-1.6558,-1.6591,-1.6677,-1.7029,-1.7372,-1.746,-1.7521,-1.7623,-1.7772,-1.7772,-1.7812,-1.786,-1.786,-1.786,-1.786,-1.786,-1.786,-1.786,-1.786,-1.7914,-1.8002,-1.8002,-1.8091,0.0,-1.8321,-1.8389,-1.8464,-1.862,-1.8674,-1.8674,-1.8742,-1.8762,-1.8762,-1.8762,-1.8762,-1.8762,-1.8762,-1.8762,-1.8762,-1.8762,-1.8762,-1.8782,-1.8871,-1.8905,-1.8938,-1.9081,-1.9115,-1.9149,-1.9305,-1.9345,-1.9359,-1.9468,-1.9522,-1.9569,-1.9569,-1.9624,-1.9664,-1.9664,-1.9664,-1.9664,-1.9664,-1.9664,-1.9664,-1.9664,-1.9664,-1.9664,-1.9664,-1.9664,-1.9664,-1.9664,-1.9664,-1.9664,-1.9664,-1.9664,-1.9664,-1.9664,-1.9664,-1.9664,-1.9664,-1.9664,-1.9664,-1.9664,-1.9664,-1.9664,-1.9664,-1.9664,-1.9664,-0.7672,-0.6055,-0.4442,-0.5047,-0.6572,-0.8042,-0.9121,-1.0399,-1.1317,-1.0763,-1.0717,-1.0717,-1.0717,-1.0955,-1.0934,-1.0197,-1.0351,-1.0555,-1.053,-1.1068,-1.2013,-1.3638,-1.4374,-1.5134,-1.6379,-1.6822,-1.7039,-1.7182,-1.7331,-1.7487,-1.765,-1.7684,-1.7758,-1.786,-1.786,-1.786,-1.786,-1.786,-1.786,-1.786,-1.786,-1.786,-1.786,-1.7914,-1.7989,-1.8091,-1.8145,-1.8247,0.0,-1.8498,-1.8565,-1.8599,-1.8728,-1.8762,-1.8762,-1.8762,-1.8762,-1.8762,-1.8762,-1.8762,-1.8762,-1.8816,-1.883,-1.883,-1.8884,-1.8871,-1.8871,-1.9006,-1.9081,-1.9149,-1.9237,-1.9305,-1.9359,-1.9468,-1.9501,-1.9535,-1.9644,-1.9664,-1.9664,-1.9664,-1.9664,-1.9664,-1.9664,-1.9664,-1.9664,-1.9664,-1.9664,-1.9664,-1.9664,-1.9664,-1.9664,-1.9664,-1.9664,-1.9664,-1.9664,-1.9664,-1.9664,-1.9664,-1.9664,-1.9664,-1.9664,-1.9664,-1.9664,-1.9664,-1.9664,-1.9664,-1.9664,-1.9664,-1.9664,-1.9664,-1.9664,-1.9664,-0.6803,-0.5649,-0.5049,-0.6259,-0.6767,-0.7457,-0.9027,-1.0019,-1.0645,-1.0637,-1.0717,-1.0717,-1.0717,-1.0724,-1.0645,-1.0373,-1.1231,-1.1622,-1.0826,-1.1611,-1.2349,-1.2366,-1.3046,-1.3903,-1.5074,-1.6252,-1.7039,-1.7182,-1.7331,-1.7487,-1.765,-1.7792,-1.786,-1.786,-1.786,-1.786,-1.786,-1.786,-1.786,-1.786,-1.786,-1.786,-1.786,-1.8023,-1.8091,-1.8091,-1.8247,-1.8389,0.0,-1.8531,-1.862,-1.8762,-1.8762,-1.8762,-1.8762,-1.8762,-1.8762,-1.8762,-1.8762,-1.8762,-1.8782,-1.8938,-1.8993,-1.9006,-1.9149,-1.9094,-1.9027,-1.9169,-1.9305,-1.9434,-1.9434,-1.9535,-1.9664,-1.9664,-1.9664,-1.9664,-1.9664,-1.9664,-1.9664,-1.9664,-1.9664,-1.9664,-1.9664,-1.9664,-1.9664,-1.9664,-1.9664,-1.9664,-1.9664,-1.9664,-1.9664,-1.9664,-1.9664,-1.9664,-1.9664,-1.9664,-1.9664,-1.9664,-1.9664,-1.9664,-1.9664,-1.9664,-1.9664,-1.9664,-1.9664,-1.9664,-1.9664,-1.9664,-1.9664,-1.9664,-1.9664,-1.9664,-0.6435,-0.5544,-0.4834,-0.5013,-0.5459,-0.6296,-0.8102,-0.9519,-1.0486,-1.0637,-1.0717,-1.0717,-1.0717,-1.0806,-1.1124,-1.1737,-1.1606,-1.1641,-1.1822,-1.1286,-1.0916,-1.1099,-1.2273,-1.3702,-1.5054,-1.6066,-1.677,-1.7338,-1.7494,-1.7629,-1.7792,-1.7846,-1.786,-1.786,-1.786,-1.786,-1.786,-1.786,-1.786,-1.786,-1.786,-1.7914,-1.8023,-1.8077,-1.8199,-1.8389,-1.8443,-1.8552,-1.8694,-1.8694,-1.8728,-1.8762,-1.8762,-1.8762,-1.8762,-1.8762,-1.8762,-1.8762,-1.8762,-1.883,-1.8918,-1.8972,-1.9061,-1.9169,-1.9305,-1.9257,-1.9169,-1.9305,-1.9468,-1.959,-1.959,-1.9624,-1.9664,-1.9664,-1.9664,-1.9664,-1.9664,-1.9664,-1.9664,-1.9664,-1.9664,-1.9664,-1.9664,-1.9664,-1.9664,-1.9664,-1.9664,-1.9664,-1.9664,-1.9664,-1.9664,-1.9664,-1.9664,-1.9664,-1.9664,-1.9664,-1.9664,-1.9664,-1.9664,-1.9664,-1.9664,-1.9664,-1.9664,-1.9664,-1.9664,-1.9664,-1.9664,-1.9664,-1.9664,-1.9664,-1.9664,-1.9664,-0.6214,-0.5384,-0.4546,-0.4042,-0.4452,-0.5268,-0.7325,-0.8568,-0.9558,-1.0296,-1.0717,-1.0987,-1.0785,-1.1124,-1.1572,-1.1791,-1.1748,-1.1599,-1.0969,-1.0417,-1.0021,-1.0026,-1.1289,-1.2892,-1.4755,-1.5623,-1.6402,-1.6975,-1.6903,-1.7046,-1.7197,-1.7424,-1.7646,-1.7646,-1.786,-1.786,-1.786,-1.786,-1.786,-1.786,-1.7914,-1.8002,-1.8091,-1.8213,-1.8355,-1.8531,-1.8586,-1.8674,0.0,-1.8762,-1.8762,-1.8762,-1.8762,-1.8762,-1.8762,-1.8762,-1.8796,-1.885,-1.885,-1.8938,-1.9081,-1.9128,-1.9257,-1.9393,-1.9481,-1.9447,-1.94,-1.9481,-1.959,-1.9664,-1.9664,-1.9664,-1.9664,-1.9664,-1.9664,-1.9664,-1.9664,-1.9664,-1.9664,-1.9664,-1.9664,-1.9664,-1.9664,-1.9664,-1.9664,-1.9664,-1.9664,-1.9664,-1.9664,-1.9664,-1.9664,-1.9664,-1.9664,-1.9664,-1.9664,-1.9664,-1.9664,-1.9664,-1.9664,-1.9664,-1.9664,-1.9664,-1.9664,-1.9664,-1.9664,-1.9664,-1.9664,-1.9664,-1.9664,-1.9664,-1.9664,-1.9664,0.0,-0.5305,-0.4316,-0.3485,-0.3631,-0.4347,-0.6444,-0.7513,0.0,-0.9788,-1.0728,-1.1205,-1.0752,-1.1442,-1.1925,-1.0805,-1.1568,-1.1339,-0.8969,-0.9053,-0.9273,-0.8828,-0.9729,-1.1501,-1.3884,-1.4992,-1.5558,-1.6334,-1.6039,-1.5741,-1.5868,-1.6545,-1.676,-1.6982,-1.7424,-1.786,-1.786,-1.786,-1.786,-1.788,-1.8023,-1.8111,-1.8124,-1.8409,-1.8531,0.0,-1.8694,-1.8762,-1.8762,-1.8762,-1.8762,-1.8762,-1.8762,-1.8762,-1.8762,-1.8782,-1.8871,-1.8993,-1.9006,-1.9094,-1.9237,-1.9393,-1.9535,-1.9664,-1.9664,-1.9664,-1.9664,-1.9664,-1.9664,-1.9664,-1.9664,-1.9664,-1.9664,-1.9664,-1.9664,-1.9664,-1.9664,-1.9664,-1.9664,-1.9664,-1.9664,-1.9664,-1.9664,-1.9664,-1.9664,-1.9664,-1.9664,-1.9664,-1.9664,-1.9664,-1.9664,-1.9664,-1.9664,-1.9664,-1.9664,-1.9664,-1.9664,-1.9664,-1.9664,-1.9664,-1.9664,-1.9664,-1.9664,-1.9664,-1.9664,-1.9664,-1.9664,-1.9664,-1.9664,-1.9664,-1.9664,-1.9664,-0.4653,0.0,-0.328,-0.2138,-0.2247,-0.3182,0.0,-0.6262,-0.7245,-0.8717,-0.9735,-1.0328,-0.9943,-1.08,-1.1318,-1.0854,-1.0854,-1.0239,-0.8645,-0.7166,-0.6394,-0.6847,-0.8259,-1.0097,-1.2364,-1.3196,-1.3961,-1.4517,-1.4195,-1.4054,-1.4081,-1.4536,-1.5424,-1.6317,-1.6982,-1.7424,-1.786,-1.786,-1.7914,-1.8036,-1.8077,-1.8213,-1.8423,-1.8498,-1.8599,-1.8708,-1.8742,-1.8762,-1.8762,-1.8762,-1.8762,-1.8762,-1.8762,-1.8762,-1.8782,-1.8884,-1.8959,-1.9006,-1.9115,-1.9257,-1.9393,-1.9556,-1.9624,-1.9664,-1.9664,-1.9664,-1.9664,-1.9664,-1.9664,-1.9664,-1.9664,-1.9664,-1.9664,-1.9664,-1.9664,-1.9664,-1.9664,-1.9664,-1.9664,-1.9664,-1.9664,-1.9664,-1.9664,-1.9664,-1.9664,-1.9664,-1.9664,-1.9664,-1.9664,-1.9664,-1.9664,-1.9664,-1.9664,-1.9664,-1.9664,-1.9664,-1.9664,-1.9664,-1.9664,-1.9664,-1.9664,-1.9664,-1.9664,-1.9664,-1.9664,-1.9664,-1.9664,-1.9664,-1.9664,-1.9664,-1.9664,-1.9664,-0.323,-0.3501,-0.3369,-0.1616,-0.1749,-0.2556,-0.3629,-0.4565,-0.5637,-0.7245,-0.8586,-0.9313,-0.9064,-0.9843,-1.0235,-0.935,-0.9074,-0.8377,-0.6802,-0.5468,-0.4902,-0.5779,-0.7187,-0.9136,-1.1148,-1.1768,-1.221,-1.2773,-1.2237,-1.1857,-1.1857,-1.2525,-1.3642,-1.4747,-1.6089,-1.6988,-1.786,-1.7935,-1.8002,-1.8091,-1.8233,-1.8375,-1.8531,-1.8599,-1.8694,-1.8762,-1.8762,-1.8762,-1.8762,-1.8762,-1.8762,-1.8762,-1.8762,-1.8796,-1.8884,-1.8959,-1.9081,-1.9203,-1.9271,-1.9413,-1.9556,-1.9624,-1.9664,-1.9664,-1.9664,-1.9664,-1.9664,-1.9664,-1.9664,-1.9664,-1.9664,-1.9664,-1.9664,-1.9664,-1.9664,-1.9664,-1.9664,-1.9664,-1.9664,-1.9664,-1.9664,-1.9664,-1.9664,-1.9664,-1.9664,-1.9664,-1.9664,-1.9664,-1.9664,-1.9664,-1.9664,-1.9664,-1.9664,-1.9664,-1.9664,-1.9664,-1.9664,-1.9664,-1.9664,-1.9664,-1.9664,-1.9664,-1.9664,-1.9664,-1.9664,-1.9664,-1.9664,-1.9664,-1.9664,-1.9664,-1.9664,-1.9664,-0.2019,-0.3098,-0.3503,-0.1481,-0.1346,-0.1885,-0.2018,-0.2687,-0.3895,-0.5503,-0.6884,-0.7721,-0.7769,-0.8578,-0.8799,-0.7327,-0.6878,-0.6271,-0.4748,-0.4197,-0.4299,-0.4947,-0.6514,-0.8021,-1.0032,-1.0236,-1.0332,-1.0807,-1.0035,-0.9407,-0.9184,-1.0289,-1.1634,-1.3187,-1.4969,-1.6545,-1.7672,-1.8023,-1.8111,-1.8158,-1.8409,-1.8552,-1.8565,-1.8708,-1.8762,-1.8762,0.0,0.0,-1.8762,-1.8762,-1.8762,-1.8762,-1.8782,-1.8871,-1.8993,-1.904,-1.9217,-1.9434,-1.9468,-1.9556,-1.9664,-1.9664,-1.9664,-1.9664,-1.9664,-1.9664,-1.9664,-1.9664,-1.9664,-1.9664,-1.9664,-1.9664,-1.9664,-1.9664,-1.9664,-1.9664,-1.9664,-1.9664,-1.9664,-1.9664,-1.9664,-1.9664,-1.9664,-1.9664,-1.9664,-1.9664,-1.9664,-1.9664,-1.9664,-1.9664,-1.9664,-1.9664,-1.9664,-1.9664,-1.9664,-1.9664,-1.9664,-1.9664,-1.9664,-1.9664,-1.9664,-1.9664,-1.9664,-1.9664,-1.9664,-1.9664,-1.9664,-1.9664,-1.9678,-1.9698,-1.9698,-1.9712,-0.2019,-0.2425,-0.2154,-0.0539,-0.0269,-0.0539,-0.1077,-0.1882,-0.2553,-0.3356,-0.4333,-0.5101,-0.5702,-0.6559,-0.6979,-0.6295,-0.5384,-0.4604,-0.4308,-0.4163,-0.41,-0.4338,-0.5448,-0.6568,-0.753,-0.7611,-0.7926,-0.8717,-0.8067,-0.6951,-0.5603,-0.6943,-0.9174,-1.1857,-1.3642,-1.5471,-1.738,-1.786,-1.8213,-1.8464,-1.8511,-1.8599,-1.8728,-1.8742,-1.8762,-1.8762,0.0,-1.8762,-1.8762,-1.8762,-1.8762,-1.8782,-1.8905,-1.8972,-1.9027,-1.9271,-1.9393,-1.9447,-1.9576,-1.9644,-1.9664,-1.9664,-1.9664,-1.9664,-1.9664,-1.9664,-1.9664,-1.9664,-1.9664,-1.9664,-1.9664,-1.9664,-1.9664,-1.9664,-1.9664,-1.9664,-1.9664,-1.9664,-1.9664,-1.9664,-1.9664,-1.9664,-1.9664,-1.9664,-1.9664,-1.9664,-1.9664,-1.9664,-1.9664,-1.9664,-1.9664,-1.9664,-1.9664,-1.9664,-1.9664,-1.9664,-1.9664,-1.9664,-1.9664,-1.9664,-1.9664,-1.9664,-1.9664,-1.9664,-1.9664,-1.9664,-1.9664,-1.9664,-1.9732,-1.9841,-1.9841,-1.9908,-0.0943,-0.1077,-0.0808,-0.0135,-0.0,-0.0135,-0.0404,-0.0807,-0.1213,-0.1765,-0.2674,-0.3455,-0.4085,-0.4979,-0.5185,-0.4233,-0.3159,-0.278,-0.3431,-0.3394,-0.3575,-0.3891,-0.4763,-0.5432,-0.6326,-0.6382,-0.6721,-0.7161,-0.6057,-0.4712,-0.3141,-0.4933,-0.7166,-0.985,-1.2582,-1.4691,-1.6389,-1.7602,-1.8389,-1.8531,-1.862,-1.8694,-1.8762,-1.8762,-1.8762,-1.8762,0.0,-1.8762,-1.8762,-1.8762,-1.8816,-1.8884,-1.8959,-1.9094,-1.9257,-1.9468,-1.9556,-1.9569,-1.9644,-1.9664,-1.9664,-1.9664,-1.9664,-1.9664,-1.9664,-1.9664,-1.9664,-1.9664,-1.9664,-1.9664,-1.9664,-1.9664,-1.9664,-1.9664,-1.9664,-1.9664,-1.9664,-1.9664,-1.9664,-1.9664,-1.9664,-1.9664,-1.9664,-1.9664,-1.9664,-1.9664,-1.9664,-1.9664,-1.9664,-1.9664,-1.9664,-1.9664,-1.9664,-1.9664,-1.9664,-1.9664,-1.9664,-1.9664,-1.9664,-1.9664,-1.9664,-1.9664,-1.9664,-1.9664,-1.9732,-1.9766,-1.9766,-1.9854,-1.9929,-1.9997,-1.9997,-2.0031,-0.0,-0.0,-0.0,-0.0,-0.0,-0.0,-0.0,-0.0,-0.0136,-0.0686,-0.138,-0.2094,-0.2708,-0.3405,-0.3524,-0.2491,-0.1472,-0.1143,-0.2191,-0.2409,-0.2821,-0.3043,-0.3896,-0.4554,-0.5213,-0.547,-0.5592,-0.5366,-0.4264,-0.2917,-0.157,-0.3141,-0.5153,-0.7843,-1.1053,-1.3639,-1.5123,-1.685,-1.8093,-1.8586,-1.8708,-1.8762,-1.8762,-1.8762,-1.8762,-1.8762,-1.8762,-1.8762,-1.8762,-1.8796,-1.8884,-1.8993,-1.9061,-1.9257,-1.9501,-1.9624,-1.9664,-1.9664,-1.9664,-1.9664,-1.9664,-1.9664,-1.9664,-1.9664,-1.9664,-1.9664,-1.9664,-1.9664,-1.9664,-1.9664,-1.9664,-1.9664,-1.9664,-1.9664,-1.9664,-1.9664,-1.9664,-1.9664,-1.9664,-1.9664,-1.9664,-1.9664,-1.9664,-1.9664,-1.9664,-1.9664,-1.9664,-1.9664,-1.9664,-1.9664,-1.9664,-1.9664,-1.9664,-1.9664,-1.9908,-1.9908,-1.9908,-1.9908,-1.9664,-1.9664,-1.9664,-1.9732,-1.9746,-1.9732,-1.9854,-1.9929,-1.9929,-2.0051,-2.0119,-2.0153,-2.0153,-2.0173,-0.0,-0.0,-0.0,-0.0,-0.0,-0.0,-0.0,-0.0,-0.0,-0.0,-0.0701,-0.1143,-0.1288,-0.1948,-0.2499,-0.2333,-0.0986,-0.0211,-0.0212,-0.1067,-0.1717,-0.1933,-0.2835,-0.3527,-0.3747,-0.3777,-0.3804,-0.3818,-0.3594,-0.2694,-0.0224,-0.1346,-0.3361,-0.605,-0.8804,-1.138,-1.3989,-1.524,-1.6762,-1.8742,-1.8762,-1.8762,-1.8762,-1.8762,-1.8762,-1.8762,-1.8762,-1.8762,-1.8782,-1.8918,-1.8972,-1.9027,-1.9291,-1.9501,-1.9644,-1.9664,-1.9664,-1.9664,-1.9664,-1.9664,-1.9664,-1.9664,-1.9664,-1.9664,-1.9664,-1.9664,-1.9664,-1.9664,-1.9664,-1.9664,-1.9664,-1.9664,-1.9664,-1.9664,-1.9664,-1.9664,-1.9664,-1.9664,-1.9664,-1.9664,-1.9664,-1.9664,-1.9664,-1.9664,-1.9664,-1.9664,-1.9664,-1.9664,-1.9664,-1.9664,-1.9664,-1.9908,-1.9908,-1.9914,-2.0158,-2.0158,-2.0158,-2.0158,-1.9908,-1.9664,-1.9908,-1.9922,-2.0031,-2.0175,-2.0031,-2.0085,-2.0085,-2.0098,-2.0173,-2.0315,-2.0315,-2.0383,-0.0,-0.0,-0.0,-0.0,-0.0,-0.0,-0.0,-0.0,-0.0,-0.0,-0.0157,-0.0462,-0.0465,-0.0674,-0.0909,-0.0944,-0.0406,-0.0,-0.0,-0.0431,-0.0651,-0.0658,-0.1104,-0.1555,-0.2458,-0.3137,-0.3594,-0.3594,-0.2245,-0.0898,-0.0,-0.1121,-0.2692,-0.4485,-0.7715,-1.0292,-1.1469,-1.3694,-1.5204,-1.6425,-1.7581,-1.8284,-1.8762,-1.8762,-1.8762,-1.8762,-1.8762,-1.8762,-1.8782,-1.8918,-1.904,-1.9149,-1.9447,-1.961,-1.9664,-1.9664,-1.9664,-1.9664,-1.9664,-1.9664,-1.9664,-1.9664,-1.9664,-1.9664,-1.9664,-1.9664,-1.9664,-1.9664,-1.9664,-1.9664,-1.9664,-1.9664,-1.9664,-1.9664,-1.9664,-1.9664,-1.9664,-1.9664,-1.9664,-1.9664,-1.9664,-1.9664,-1.9664,-1.9664,-1.9698,-1.9786,-1.9786,-1.98,-1.9841,-1.9983,-1.9914,-1.9914,-1.9997,-1.995,-2.0207,-2.0207,-2.0207,-2.0207,-2.012,-1.9914,-1.9914,-2.0119,-2.0037,-2.0132,-2.0173,-2.0207,-2.0241,-2.0329,-2.0397,-2.0451,-2.0451,-2.0485,-0.0,-0.0,-0.0,-0.0,-0.0,-0.0,-0.0,-0.0,-0.0,-0.0,-0.0,-0.0,-0.0,-0.0,-0.0,-0.0,-0.0,-0.0,-0.0,-0.0,-0.0,-0.0,-0.0,-0.0223,-0.1121,-0.2021,-0.247,-0.247,-0.0898,-0.0,-0.0,-0.0673,-0.2021,-0.36,-0.6156,-0.804,-0.898,-1.1204,-1.2915,-1.4088,-1.5726,-1.7361,-1.8523,-1.8762,-1.8762,-1.8762,-1.8762,-1.8762,-1.8782,-1.8972,-1.9169,-1.9359,-1.9576,-1.9664,-1.9664,-1.9664,-1.9664,-1.9664,-1.9664,-1.9664,-1.9664,-1.9664,-1.9664,-1.9664,-1.9664,-1.9664,-1.9664,-1.9664,-1.9664,-1.9664,-1.9664,-1.9664,-1.9664,-1.9664,-1.9664,-1.9664,-1.9664,-1.9664,-1.9664,-1.9664,-1.9664,-1.9678,-1.9712,-1.9732,-1.9786,-1.9922,-1.9942,-1.9963,-2.0031,-2.0141,-2.0093,-2.0175,-2.0295,-2.0278,-2.0278,-2.0278,-2.0278,-2.0278,-2.0159,-2.0196,-2.0196,-2.0071,-2.0211,-2.0343,-2.0329,-2.0349,-2.0397,-2.0485,-2.0539,-2.0539,-2.0539,-2.0539,-0.0,-0.0,-0.0,-0.0,-0.0,-0.0,-0.0,-0.0,-0.0,-0.0,-0.0,-0.0,-0.0,-0.0,-0.0,-0.0,-0.0,-0.0,-0.0,-0.0,-0.0,-0.0,-0.0,-0.0,-0.0,-0.0,-0.0,-0.0,-0.0,-0.0,-0.0,-0.0,-0.1127,-0.3407,-0.3663,-0.4384,-0.6041,-0.7967,-0.9879,-1.2214,-1.3387,-1.5481,-1.782,-1.8523,-1.8762,-1.8762,-1.8762,-1.8762,-1.8782,-1.9081,-1.9379,-1.9664,-1.9664,-1.9664,-1.9664,-1.9664,-1.9664,-1.9664,-1.9664,-1.9664,-1.9664,-1.9664,-1.9664,-1.9664,-1.9664,-1.9664,-1.9664,-1.9664,-1.9664,-1.9664,-1.9664,-1.9664,-1.9664,-1.9664,-1.9664,-1.9664,-1.9664,-1.9664,-1.9664,-1.9664,-1.9664,-1.9712,-1.9854,-1.9875,-1.9929,-2.0085,-2.0098,-2.0132,-2.022,-2.0173,-2.022,-2.0245,-2.0539,-2.0539,-2.0539,-2.0539,-2.0539,-2.0539,-2.0539,-2.0539,-2.0278,-2.0278,-2.0285,-2.0539,-2.0539,-2.0539,-2.0539,-2.0539,-2.0539,-2.0539,-2.0539,-2.0539,-0.0,-0.0,-0.0,-0.0,-0.0,-0.0,-0.0,-0.0,-0.0,-0.0,-0.0,-0.0,-0.0,-0.0,-0.0,-0.0,-0.0,-0.0,-0.0,-0.0,-0.0,-0.0,-0.0,-0.0,-0.0,-0.0,-0.0,-0.0,-0.0,-0.0,-0.0,-0.0,-0.0225,-0.1136,-0.1832,-0.2539,-0.3024,-0.516,-0.6824,-0.799,-1.0341,-1.3153,-1.6657,-1.7581,-1.8059,-1.8065,-1.8523,-1.8816,-1.8938,-1.9237,-1.9481,-1.9664,-1.9664,-1.9664,-1.9664,-1.9664,-1.9664,-1.9664,-1.9664,-1.9664,-1.9664,-1.9664,-1.9664,-1.9664,-1.9664,-1.9664,-1.9664,-1.9664,-1.9664,-1.9664,-1.9664,-1.9664,-1.9664,-1.9664,-1.9664,-1.9664,-1.9664,-1.9664,-1.9664,-1.9664,-1.9752,-1.982,-1.9875,-1.9963,-2.0085,-2.0241,-2.0261,-2.0309,-2.0438,-2.0438,-2.0438,-2.0519,-2.0539,-2.0539,-2.0539,-2.0539,-2.0539,-2.0539,-2.0539,-2.0539,-2.0539,-2.0539,-2.0539,-2.0539,-2.0539,-2.0539,-2.0539,-2.0539,-2.0539,-2.0539,-2.0539,-2.0539,-0.0,-0.0,-0.0,-0.0,-0.0,-0.0,-0.0,-0.0,-0.0,-0.0,-0.0,-0.0,-0.0,-0.0,-0.0,-0.0,-0.0,-0.0,-0.0,-0.0,-0.0,-0.0,-0.0,-0.0,-0.0,-0.0,-0.0,-0.0,-0.0,-0.0,-0.0,-0.0,-0.0,-0.0,-0.0691,-0.1159,-0.1169,-0.235,-0.3764,-0.5413,-0.7289,-0.9634,-1.2677,-1.5248,-1.6657,-1.7123,-1.7884,-1.8229,-1.8379,-1.8374,-1.8313,-1.844,-1.819,-1.8197,-1.8447,-1.8447,-1.8921,-1.9408,-1.9408,-1.9414,-1.9664,-1.9664,-1.9664,-1.9664,-1.9664,-1.9664,-1.9664,-1.9664,-1.9664,-1.9664,-1.9664,-1.9664,-1.9664,-1.9664,-1.9664,-1.9664,-1.9664,-1.9712,-1.9752,-1.9752,-1.9854,-1.9976,-2.0051,-2.0139,-2.0241,-2.0383,-2.0417,-2.0451,-2.0526,-2.0539,-2.0539,-2.0539,-2.0539,-2.0539,-2.0539,-2.0539,-2.0539,-2.0546,-2.0546,-2.0546,-2.08,-2.0546,-2.0539,-2.0539,-2.0539,-2.0539,-2.0539,-2.0539,-2.0539,-2.0539,-2.0614,-2.0627,-0.0,-0.0,-0.0,-0.0,-0.0,-0.0,-0.0,-0.0,-0.0,-0.0,-0.0,-0.0,-0.0,-0.0,-0.0,-0.0,-0.0,-0.0,-0.0,-0.0,-0.0,-0.0,-0.0,-0.0,-0.0,-0.0,-0.0,-0.0,-0.0,-0.0,-0.0,-0.0,-0.0,-0.0,-0.0,-0.0,-0.0,-0.0,-0.1178,-0.3533,-0.4236,-0.5645,-0.7289,-1.1741,-1.456,-1.5754,-1.6591,-1.6959,-1.7079,-1.6501,-1.6369,-1.6471,-1.5738,-1.5988,-1.6471,-1.6477,-1.7209,-1.8428,-1.8428,-1.8927,-1.9657,-1.9657,-1.9657,-1.9664,-1.9664,-1.9664,-1.9664,-1.9664,-1.9664,-1.9664,-1.9664,-1.9664,-1.9664,-1.9664,-1.9664,-1.9664,-1.9678,-1.9786,-1.9875,-1.9888,-2.001,-2.0173,-2.0309,-2.0349,-2.0397,-2.0526,-2.0539,-2.0539,-2.0539,-2.0539,-2.0539,-2.0539,-2.0539,-2.0539,-2.0539,-2.0539,-2.0546,-2.0807,-2.0855,-2.0889,-2.0896,-2.0835,-2.0539,-2.0539,-2.0539,-2.056,-2.0573,-2.0573,-2.0573,-2.0594,-2.0716,-2.079,-0.0,-0.0,-0.0,-0.0,-0.0,-0.0,-0.0,-0.0,-0.0,-0.0,-0.0,-0.0,-0.0,-0.0,-0.0,-0.0,-0.0,-0.0,-0.0,-0.0,-0.0,-0.0,-0.0,-0.0,-0.0,-0.0,-0.0,-0.0,-0.0,-0.0,-0.0,-0.0,-0.0,-0.0,-0.0,-0.0,-0.0,-0.0,-0.0236,-0.0943,-0.2119,-0.3297,-0.4706,-0.9634,-1.2962,-1.4697,-1.4807,-1.4934,-1.5039,-1.516,-1.4979,-1.4506,-1.4271,-1.4261,-1.4511,-1.5005,-1.5738,-1.6471,-1.6971,-1.794,-1.8927,-1.8927,-1.9164,-1.9664,-1.9664,-1.9664,-1.9664,-1.9664,-1.9664,-1.9664,-1.9664,-1.9664,-1.9664,-1.9664,-1.9664,-1.9698,-1.98,-1.9854,-1.9908,-2.0031,-2.0173,-2.0295,-2.0329,-2.0417,-2.0505,-2.0539,-2.0539,-2.0539,-2.0539,-2.0539,-2.0539,-2.08,-2.08,-2.08,-2.0807,-2.0807,-2.0807,-2.1061,-2.098,-2.0975,-2.0975,-2.1047,-2.0807,-2.0807,-2.0807,-2.0876,-2.0777,-2.0777,-2.0824,-2.0892,-2.0933,-2.0946,-0.0,-0.0,-0.0,-0.0,-0.0,-0.0,-0.0,-0.0,-0.0,-0.0,-0.0,-0.0,-0.0,-0.0,-0.0,-0.0,-0.0,-0.0,-0.0,-0.0,-0.0,-0.0,-0.0,-0.0,-0.0,-0.0,-0.0,-0.0,-0.0,-0.0,-0.0,-0.0,-0.0,-0.0,-0.0,-0.0,-0.0,-0.0,-0.0236,-0.0943,-0.2121,-0.2833,-0.3078,-0.7567,-1.0187,-1.1183,-1.1783,-1.2111,-1.2167,-1.2513,-1.2557,-1.2307,-1.207,-1.1575,-1.1069,-1.1318,-1.2548,-1.4022,-1.4511,-1.5738,-1.6959,-1.7459,-1.794,-1.844,-1.8927,-1.9158,-1.9408,-1.9657,-1.9664,-1.9664,-1.9664,-1.9664,-1.9678,-1.9752,-1.9766,-1.9786,-1.9854,-1.9997,-2.0119,-2.0187,-2.0329,-2.0438,-2.0438,-2.0485,-2.0539,-2.0539,-2.0614,-2.0627,-2.056,-2.08,-2.08,-2.0807,-2.0811,-2.0967,-2.0967,-2.0967,-2.0967,-2.0967,-2.0995,-2.1169,-2.1169,-2.1143,-2.1233,-2.0967,-2.0967,-2.1021,-2.1123,-2.1034,-2.1021,-2.1068,-2.1089,-2.1109,-0.0,-0.0,-0.0,-0.0,-0.0,-0.0,-0.0,-0.0,-0.0,-0.0,-0.0,-0.0,-0.0,-0.0,-0.0,-0.0,-0.0,-0.0,-0.0,-0.0,-0.0,-0.0,-0.0,-0.0,-0.0,-0.0,-0.0,-0.0,-0.0,-0.0,-0.0,-0.0,-0.0,-0.0,-0.0,-0.0,-0.0,-0.0,-0.0471,-0.1649,-0.2597,-0.2607,-0.1906,-0.5255,-0.693,-0.7415,-0.8478,-0.9264,-0.9527,-0.9836,-0.987,-0.9374,-0.8885,-0.8135,-0.7147,-0.7394,-0.8863,-1.0831,-1.1567,-1.3042,-1.4511,-1.5494,-1.5994,-1.6721,-1.7697,-1.8421,-1.8677,-1.9408,-1.9657,-1.9664,-1.9664,-1.9678,-1.9732,-1.9841,-1.9908,-1.9942,-1.9942,-2.0153,-2.0329,-2.0363,-2.0451,-2.0539,-2.0539,-2.0539,-2.056,-2.0573,-2.0682,-2.0736,-2.091,-2.0896,-2.0917,-2.0951,-2.1136,-2.1163,-2.1163,-2.1163,-2.1169,-2.1169,-2.1169,-2.1169,-2.1441,-2.1441,-2.1169,-2.1163,-2.1163,-2.1163,-2.1163,-2.1015,-2.119,-2.119,-2.1231,-2.1245,-0.0,-0.0,-0.0,-0.0,-0.0,-0.0,-0.0,-0.0,-0.0,-0.0,-0.0,-0.0,-0.0,-0.0,-0.0,-0.0,-0.0,-0.0,-0.0,-0.0,-0.0,-0.0,-0.0,-0.0,-0.0,-0.0,-0.0,-0.0,-0.0,-0.0,-0.0,-0.0,-0.0,-0.0,-0.0,-0.0,-0.0,-0.0,-0.0,-0.0236,-0.0475,-0.0953,-0.1908,-0.2418,-0.3891,-0.6075,-0.6092,-0.6856,-0.8135,-0.8143,-0.6911,-0.4686,-0.4686,-0.4686,-0.4686,-0.5676,-0.6165,-0.64,-0.788,-1.0091,-1.2307,-1.2299,-1.3527,-1.5255,-1.5988,-1.6959,-1.794,-1.8677,-1.9164,-1.9664,-1.9664,-1.9752,-1.9854,-1.9875,-2.0085,-2.0275,-2.0275,-2.0295,-2.0363,-2.0485,-2.0526,-2.0539,-2.0539,-2.0539,-2.0594,-2.0716,-2.0756,-2.0845,-2.1034,-2.098,-2.1034,-2.1035,-2.1116,-2.1169,-2.1441,-2.1441,-2.1441,-2.1441,-2.1441,-2.1441,-2.1441,-2.1441,-2.1441,-2.1441,-2.1441,-2.1441,-2.1441,-2.1408,-2.1408,-2.1408,-2.1408,-2.1408,-0.0,-0.0,-0.0,-0.0,-0.0,-0.0,-0.0,-0.0,-0.0,-0.0,-0.0,-0.0,-0.0,-0.0,-0.0,-0.0,-0.0,-0.0,-0.0,-0.0,-0.0,-0.0,-0.0,-0.0,-0.0,-0.0,-0.0,-0.0,-0.0,-0.0,-0.0,-0.0,-0.0,-0.0,-0.0,-0.0,-0.0,-0.0,-0.0,-0.0,-0.0,-0.024,-0.0725,-0.073,-0.1465,-0.244,-0.3186,-0.3936,-0.4691,-0.5433,-0.4938,-0.3703,-0.2221,-0.1728,-0.1728,-0.2468,-0.2961,-0.3699,-0.5176,-0.6899,-0.8624,-0.9358,-1.0586,-1.2062,-1.4027,-1.5494,-1.6959,-1.8197,-1.9177,-1.9678,-1.9766,-1.982,-1.9908,-2.0085,-2.0227,-2.0349,-2.0438,-2.0451,-2.0471,-2.0526,-2.0539,-2.0573,-2.0648,-2.0668,-2.0716,-2.0878,-2.0967,-2.1055,-2.1123,-2.1211,-2.1299,-2.1421,-2.1435,-2.1441,-2.1441,-2.1441,-2.1441,-2.1441,-2.1441,-2.1441,-2.1441,-2.1441,-2.1441,-2.1441,-2.1441,-2.1441,-2.1441,-2.1441,-2.1441,-2.1441,-2.1441,-2.1441,-0.0,-0.0,-0.0,-0.0,-0.0,-0.0,-0.0,-0.0,-0.0,-0.0,-0.0,-0.0,-0.0,-0.0,-0.0,-0.0,-0.0,-0.0,-0.0,-0.0,-0.0,-0.0,-0.0,-0.0,-0.0,-0.0,-0.0,-0.0,-0.0,-0.0,-0.0,-0.0,-0.0,-0.0,-0.0,-0.0,-0.0,-0.0,-0.0,-0.0,-0.0,-0.0,-0.0,-0.0,-0.0,-0.0,-0.0985,-0.1481,-0.1481,-0.247,-0.2964,-0.2717,-0.0741,-0.0,-0.0,-0.0,-0.0741,-0.1728,-0.2468,-0.3699,-0.5181,-0.6163,-0.7394,-0.9115,-1.1813,-1.4022,-1.5744,-1.769,-1.894,-1.9732,-1.9841,-1.9929,-2.0051,-2.0275,-2.0363,-2.0417,-2.0526,-2.0539,-2.0539,-2.0539,-2.0573,-2.0627,-2.0756,-2.0811,-2.0878,-2.1034,-2.1143,-2.1211,-2.1211,-2.1353,-2.1441,-2.1441,-2.1441,-2.1441,-2.1441,-2.1441,-2.1441,-2.1441,-2.1441,-2.1441,-2.1441,-2.1441,-2.1441,-2.1441,-2.1441,-2.1441,-2.1441,-2.1441,-2.1441,-2.1441,-2.1441,-2.1441,-0.0,-0.0,-0.0,-0.0,-0.0,-0.0,-0.0,-0.0,-0.0,-0.0,-0.0,-0.0,-0.0,-0.0,-0.0,-0.0,-0.0,-0.0,-0.0,-0.0,-0.0,-0.0,-0.0,-0.0,-0.0,-0.0,-0.0,-0.0,-0.0,-0.0,-0.0,-0.0,-0.0,-0.0,-0.0,-0.0,-0.0,-0.0,-0.0,-0.0,-0.0,-0.0,-0.0,-0.0,-0.0,-0.0,-0.0,-0.0,-0.0,-0.0247,-0.0247,-0.0247,-0.0,-0.0,-0.0,-0.0,-0.0,-0.0,-0.0247,-0.0987,-0.2221,-0.2221,-0.4193,-0.7152,-0.887,-1.2062,-1.501,-1.6471,-1.8272,-1.9854,-1.9875,-2.0085,-2.0309,-2.0329,-2.0438,-2.0526,-2.0539,-2.0539,-2.0539,-2.0539,-2.0668,-2.0756,-2.077,-2.0892,-2.1034,-2.1177,-2.1211,-2.1265,-2.1408,-2.1441,-2.1441,-2.1441,-2.1441,-2.1441,-2.1441,-2.1441,-2.1441,-2.1441,-2.1441,-2.1441,-2.1441,-2.1441,-2.1441,-2.1441,-2.1441,-2.1441,-2.1441,-2.1441,-2.1441,-2.1441,-2.1441,-2.1441,-0.0,-0.0,-0.0,-0.0,-0.0,-0.0,-0.0,-0.0,-0.0,-0.0,-0.0,-0.0,-0.0,-0.0,-0.0,-0.0,-0.0,-0.0,-0.0,-0.0,-0.0,-0.0,-0.0,-0.0,-0.0,-0.0,-0.0,-0.0,-0.0,-0.0,-0.0,-0.0,-0.0,-0.0,-0.0,-0.0,-0.0,-0.0,-0.0,-0.0,-0.0,-0.0,-0.0,-0.0,-0.0,-0.0,-0.0,-0.0,-0.0,-0.0,-0.0,-0.0,-0.0,-0.0,-0.0,-0.0,-0.0,-0.0,-0.0,-0.0247,-0.0741,-0.0741,-0.1974,-0.4193,-0.6653,-1.0088,-1.3301,-1.5099,-1.7363,-1.9182,-1.8873,-1.9245,-1.9587,-1.9692,-1.9744,-2.0071,-2.0661,-2.0614,-2.0573,-2.0668,-2.0736,-2.0824,-2.1021,-2.1109,-2.119,-2.1333,-2.1353,-2.1367,-2.1441,-2.1441,-2.1441,-2.1441,-2.1441,-2.1441,-2.1441,-2.1441,-2.1441,-2.1441,-2.1441,-2.1441,-2.1441,-2.1441,-2.1441,-2.1441,-2.1441,-2.1441,-2.1441,-2.1441,-2.1441,-2.1441,-2.1441,-2.1441,-0.0,-0.0,-0.0,-0.0,-0.0,-0.0,-0.0,-0.0,-0.0,-0.0,-0.0,-0.0,-0.0,-0.0,-0.0,-0.0,-0.0,-0.0,-0.0,-0.0,-0.0,-0.0,-0.0,-0.0,-0.0,-0.0,-0.0,-0.0,-0.0,0.0,-0.0,-0.0,-0.0,-0.0,-0.0,-0.0,-0.0,-0.0,-0.0,-0.0,-0.0,-0.0,-0.0,-0.0,-0.0,-0.0,-0.0,-0.0,-0.0,-0.0,-0.0,-0.0,-0.0,-0.0,-0.0,-0.0,-0.0,-0.0,-0.0,-0.0,-0.0,-0.0,-0.0988,-0.2468,-0.4929,-0.8389,-1.1878,-1.342,-1.5983,-1.8324,-1.7744,-1.8086,-1.8653,-1.8994,-1.9299,-1.9887,-2.0493,-2.0682,-2.0668,-2.0824,-2.0892,-2.098,-2.1177,-2.1245,-2.1319,-2.1421,-2.1441,-2.1441,-2.1441,-2.1441,-2.1441,-2.1441,-2.1441,-2.1441,-2.1441,-2.1441,-2.1441,-2.1441,-2.1441,-2.1441,-2.1448,-2.1448,-2.1448,-2.1448,-2.1448,-2.1448,-2.1448,-2.1441,-2.1441,-2.1441,-2.1441,-2.1441,0.0,0.0,0.0,-0.0,-0.0,-0.0,-0.0,-0.0,-0.0,-0.0,-0.0,-0.0,-0.0,-0.0,-0.0,-0.0,-0.0,-0.0,-0.0,-0.0,-0.0,-0.0,-0.0,-0.0,-0.0,-0.0,-0.0,-0.0,-0.0,-0.0,-0.0,-0.0,-0.0,-0.0,-0.0,-0.0,-0.0,-0.0,-0.0,-0.0,-0.0,-0.0,-0.0,-0.0,-0.0,-0.0,-0.0,-0.0,-0.0,-0.0,-0.0,-0.0,-0.0,-0.0,-0.0,-0.0,-0.0,-0.0,-0.0,-0.0,-0.0,-0.0,-0.0988,-0.2221,-0.3456,-0.7185,-1.0959,-1.1711,-1.4341,-1.7034,-1.6277,-1.6618,-1.7489,-1.8254,-1.912,-1.9748,-2.0526,-2.079,-2.0824,-2.098,-2.1123,-2.1211,-2.1211,-2.1333,-2.1441,-2.1441,-2.1441,-2.1441,-2.1441,-2.1441,-2.1441,-2.1441,-2.1441,-2.1441,-2.1441,-2.1441,-2.1441,-2.1714,-2.1734,-2.1748,-2.202,-2.202,-2.202,-2.202,-2.202,-2.202,-2.202,-2.1448,-2.1441,-2.1441,-2.1441,-2.1441,-0.0,0.0,0.0,0.0,0.0,0.0,-0.0,-0.0,-0.0,-0.0,-0.0,-0.0,-0.0,-0.0,-0.0,-0.0,-0.0,-0.0,-0.0,-0.0,-0.0,-0.0,-0.0,-0.0,-0.0,-0.0,-0.0,0.0,-0.0,-0.0,-0.0,-0.0,-0.0,-0.0,-0.0,-0.0,-0.0,-0.0,-0.0,-0.0,-0.0,-0.0,-0.0,-0.0,-0.0,-0.0,-0.0,-0.0,-0.0,-0.0,-0.0,-0.0,-0.0,-0.0,-0.0,-0.0,-0.0,-0.0,-0.0,-0.0,-0.0,-0.0,-0.0248,-0.0995,-0.3235,-0.4749,-0.6535,-0.9352,-1.1923,-1.3751,-1.4084,-1.3875,-1.4168,-1.6045,-1.7387,-1.8748,-1.9999,-2.0834,-2.1109,-2.1143,-2.1177,-2.1245,-2.1353,-2.1408,-2.1441,-2.1441,-2.1441,-2.1441,-2.1441,-2.1441,-2.1441,-2.1441,-2.1441,-2.1714,-2.1714,-2.1714,-2.172,-2.172,-2.1848,-2.1813,-2.1813,-2.1813,-2.1813,-2.1813,-2.1813,-2.1813,-2.1813,-2.1926,-2.1714,-2.1714,-2.1714,-2.1714,-0.0,-0.0,-0.0,-0.0,0.0,0.0,-0.0,-0.0,-0.0,-0.0,-0.0,-0.0,-0.0,-0.0,-0.0,-0.0,-0.0,-0.0,-0.0,-0.0,-0.0,-0.0,-0.0,-0.0,-0.0,-0.0,-0.0,-0.0,-0.0,-0.0,-0.0,-0.0,-0.0,-0.0,-0.0,-0.0,-0.0,-0.0,-0.0,-0.0,-0.0,-0.0,-0.0,-0.0,-0.0,-0.0,-0.0,-0.0,-0.0,-0.0,-0.0,-0.0,-0.0,-0.0,-0.0,-0.0,-0.0,-0.0,-0.0,-0.0,-0.0,-0.0,-0.0,-0.05,-0.2756,-0.3526,-0.4054,-0.6622,-0.9191,-1.1273,-1.1613,-1.1382,-1.1662,-1.3822,-1.5704,-1.7342,-1.9065,-1.9942,-2.0508,-2.1049,-2.1299,-2.1333,-2.1421,-2.1441,-2.1441,-2.1441,-2.1441,-2.1441,-2.1441,-2.1496,-2.155,-2.1564,-2.1768,-2.1823,-2.1794,-2.1815,-2.1815,-2.2084,-2.1866,-2.2054,-2.2054,-2.2054,-2.2054,-2.2054,-2.2054,-2.2054,-2.2054,-2.1984,-2.1815,-2.1815,-2.1815,-2.1815,-0.0,-0.0,-0.0,-0.0,-0.0,0.0,-0.0,-0.0,-0.0,-0.0,-0.0,-0.0,-0.0,-0.0,-0.0,-0.0,-0.0,-0.0,-0.0,-0.0,-0.0,-0.0,-0.0,-0.0,-0.0,-0.0,-0.0,-0.0,-0.0,-0.0,-0.0,-0.0,-0.0,-0.0,-0.0,-0.0,-0.0,-0.0,-0.0,-0.0,-0.0,-0.0,-0.0,-0.0,-0.0,-0.0,-0.0,-0.0,-0.0,-0.0,-0.0,-0.0,-0.0,-0.0,-0.0,-0.0,-0.0,-0.0,-0.0,-0.0,-0.0,-0.0,-0.0,-0.025,-0.2018,-0.254,-0.3064,-0.383,-0.6672,-0.9053,-0.8844,-0.8858,-0.9657,-1.1565,-1.3752,-1.5928,-1.7544,-1.8429,-1.9582,-2.0917,-2.1169,-2.1435,-2.1441,-2.1441,-2.1441,-2.1441,-2.1455,-2.1455,-2.1455,-2.1597,-2.1726,-2.1774,-2.1871,-2.1995,-2.2,-2.2054,-2.2054,-2.206,-2.206,-2.206,-2.2337,-2.2337,-2.2337,-2.2337,-2.2337,-2.2337,-2.2337,-2.2054,-2.2054,-2.2054,-2.2054,-2.2054,-0.0,-0.0,-0.0,-0.0,-0.0,0.0,-0.0,-0.0,-0.0,-0.0,-0.0,-0.0,-0.0,-0.0,-0.0,-0.0,-0.0,-0.0,-0.0,-0.0,-0.0,-0.0,-0.0,-0.0,-0.0,-0.0,-0.0,-0.0,-0.0,-0.0,-0.0,-0.0,-0.0,-0.0,-0.0,-0.0,-0.0,-0.0,-0.0,-0.0,-0.0,-0.0,-0.0,-0.0,-0.0,-0.0,-0.0,-0.0,-0.0,-0.0,-0.0,-0.0,-0.0,-0.0,-0.0,-0.0,-0.0,-0.0,-0.0,-0.0,-0.0,-0.0,-0.0,-0.0,-0.0509,-0.2047,-0.3862,-0.4117,-0.5433,-0.6508,-0.5474,-0.5234,-0.6056,-0.8741,-1.142,-1.4097,-1.6051,-1.7418,-1.8778,-2.0379,-2.0652,-2.0645,-2.1435,-2.1441,-2.1441,-2.1441,-2.155,-2.1618,-2.1618,-2.176,-2.1882,-2.1964,-2.1869,-2.1957,-2.202,-2.206,-2.2337,-2.2337,-2.2337,-2.2337,-2.2337,-2.2337,-2.2337,-2.2337,-2.2337,-2.2337,-2.2337,-2.2337,-2.2337,-2.2337,-2.2337,-2.2337,-0.0,-0.0,-0.0,-0.0,-0.0,0.0,0.0,-0.0,-0.0,-0.0,-0.0,-0.0,-0.0,-0.0,-0.0,-0.0,-0.0,-0.0,-0.0,-0.0,-0.0,-0.0,-0.0,-0.0,-0.0,-0.0,-0.0,-0.0,-0.0,-0.0,-0.0,-0.0,-0.0,-0.0,-0.0,-0.0,-0.0,-0.0,-0.0,-0.0,-0.0,-0.0,-0.0,-0.0,-0.0,-0.0,-0.0,-0.0,-0.0,-0.0,-0.0,-0.0,-0.0,-0.0,-0.0,-0.0,-0.0,-0.0,-0.0,-0.0,-0.0,-0.0,-0.0,-0.0,-0.0,-0.103,-0.2325,-0.2851,-0.4162,-0.4965,-0.3422,-0.2642,-0.2919,-0.5607,-0.8292,-1.07,-1.3417,-1.5029,-1.6635,-1.8778,-1.9582,-2.0114,-2.1169,-2.1441,-2.1455,-2.155,-2.1618,-2.1692,-2.176,-2.1903,-2.2025,-2.2072,-2.2093,-2.2181,-2.2316,-2.2337,-2.2337,-2.2337,-2.2337,-2.2337,-2.2337,-2.2337,-2.2337,-2.2337,-2.2337,-2.2337,-2.2337,-2.2337,-2.2337,-2.2337,-2.2337,-2.2337,-0.0,-0.0,-0.0,-0.0,-0.0,-0.0,0.0,0.0,0.0,-0.0,-0.0,-0.0,-0.0,-0.0,-0.0,-0.0,-0.0,-0.0,-0.0,-0.0,-0.0,-0.0,-0.0,-0.0,-0.0,-0.0,-0.0,-0.0,-0.0,-0.0,-0.0,-0.0,-0.0,-0.0,-0.0,-0.0,-0.0,-0.0,-0.0,-0.0,-0.0,-0.0,-0.0,-0.0,-0.0,-0.0,-0.0,-0.0,-0.0,-0.0,-0.0,-0.0,-0.0,-0.0,-0.0,-0.0,-0.0,-0.0,-0.0,-0.0,-0.0,-0.0,-0.0,-0.0,-0.0,-0.0,-0.0259,-0.1305,-0.2357,-0.3152,-0.186,-0.08,-0.0535,-0.2957,-0.511,-0.7529,-1.0212,-1.2355,-1.4499,-1.7174,-1.8535,-1.934,-2.1216,-2.1496,-2.153,-2.1686,-2.174,-2.1794,-2.1916,-2.2059,-2.216,-2.216,-2.2269,-2.2337,-2.2337,-2.2337,-2.2337,-2.2337,-2.2337,-2.2337,-2.2337,-2.2337,-2.2337,-2.2337,-2.2337,-2.2337,-2.2337,-2.2337,-2.2337,-2.2337,-2.2337,-2.2337,-0.0,-0.0,-0.0,-0.0,-0.0,-0.0,-0.0,0.0,-0.0,-0.0,0.0,-0.0,-0.0,0.0,0.0,-0.0,-0.0,-0.0,-0.0,-0.0,-0.0,-0.0,-0.0,-0.0,-0.0,-0.0,-0.0,-0.0,-0.0,-0.0,-0.0,-0.0,-0.0,-0.0,-0.0,-0.0,-0.0,-0.0,-0.0,-0.0,-0.0,-0.0,-0.0,-0.0,-0.0,-0.0,-0.0,-0.0,-0.0,-0.0,-0.0,-0.0,-0.0,-0.0,-0.0,-0.0,-0.0,-0.0,-0.0,-0.0,-0.0,-0.0,-0.0,-0.0,-0.0,-0.0,-0.0,-0.0263,-0.0265,-0.0532,-0.0266,-0.0,-0.0,-0.0538,-0.269,-0.511,-0.7253,-0.9944,-1.2895,-1.583,-1.6987,-1.8413,-2.1102,-2.1652,-2.1686,-2.1828,-2.1971,-2.2059,-2.2079,-2.2215,-2.2323,-2.2323,-2.2323,-2.2337,-2.2337,-2.2337,-2.2337,-2.2337,-2.2337,-2.2337,-2.2337,-2.2337,-2.2337,-2.2337,-2.2337,-2.2337,-2.2337,-2.2337,-2.2337,-2.2337,-2.2337,-2.2337,-0.0,-0.0,-0.0,-0.0,-0.0,-0.0,-0.0,-0.0,-0.0,-0.0,0.0,0.0,0.0,0.0,0.0,0.0,-0.0,-0.0,-0.0,-0.0,-0.0,-0.0,-0.0,0.0,-0.0,-0.0,-0.0,-0.0,-0.0,-0.0,-0.0,-0.0,-0.0,-0.0,-0.0,-0.0,-0.0,-0.0,-0.0,-0.0,-0.0,-0.0,-0.0,-0.0,-0.0,-0.0,-0.0,-0.0,-0.0,-0.0,-0.0,-0.0,-0.0,-0.0,-0.0,-0.0,-0.0,-0.0,-0.0,-0.0,-0.0,-0.0,-0.0,-0.0,-0.0,-0.0,-0.0,-0.0,-0.0,-0.0,-0.0,-0.0,-0.0,-0.0,-0.0808,-0.2421,-0.5109,-0.7014,-0.9455,-1.296,-1.4665,-1.6387,-1.8916,-2.0502,-2.1308,-2.1984,-2.2072,-2.2147,-2.2235,-2.2303,-2.2337,-2.2337,-2.2337,-2.2337,-2.2337,-2.2337,-2.2337,-2.2337,-2.2337,-2.2337,-2.2337,-2.2337,-2.2337,-2.2337,-2.2337,-2.2337,-2.2337,-2.2337,-2.2337,-2.2337,-2.2337,-2.2337,-0.0,-0.0,-0.0,-0.0,-0.0,-0.0,-0.0,-0.0,-0.0,-0.0,-0.0,0.0,0.0,0.0,-0.0,-0.0,0.0,-0.0,-0.0,-0.0,-0.0,-0.0,-0.0,0.0,0.0,-0.0,-0.0,-0.0,-0.0,-0.0,-0.0,-0.0,-0.0,-0.0,-0.0,-0.0,-0.0,-0.0,-0.0,-0.0,-0.0,-0.0,-0.0,-0.0,-0.0,-0.0,-0.0,-0.0,-0.0,-0.0,-0.0,-0.0,-0.0,-0.0,-0.0,-0.0,-0.0,-0.0,-0.0,-0.0,-0.0,-0.0,-0.0,-0.0,-0.0,-0.0,-0.0,-0.0,-0.0,-0.0,-0.0,-0.0,-0.0,-0.0,-0.0,-0.0539,-0.2697,-0.4334,-0.6252,-0.9518,-1.176,-1.4044,-1.6591,-1.9004,-2.0902,-2.1605,-2.19,-2.2215,-2.2323,-2.2337,-2.2337,-2.2337,-2.2337,-2.2337,-2.2337,-2.2337,-2.2337,-2.2337,-2.2337,-2.2337,-2.2337,-2.2337,-2.2337,-2.2337,-2.2337,-2.2337,-2.2337,-2.2337,-2.2337,-2.2337,-2.2337,-2.2337,-0.0,0.0,-0.0,-0.0,-0.0,-0.0,-0.0,-0.0,-0.0,-0.0,-0.0,-0.0,-0.0,-0.0,-0.0,-0.0,-0.0,0.0,0.0,-0.0,-0.0,-0.0,-0.0,-0.0,0.0,-0.0,-0.0,-0.0,-0.0,-0.0,-0.0,-0.0,-0.0,-0.0,-0.0,-0.0,-0.0,-0.0,-0.0,-0.0,-0.0,-0.0,-0.0,-0.0,-0.0,-0.0,-0.0,-0.0,-0.0,-0.0,-0.0,-0.0,-0.0,-0.0,-0.0,-0.0,-0.0,-0.0,-0.0,-0.0,-0.0,-0.0,-0.0,-0.0,-0.0,-0.0,-0.0,-0.0,-0.0,-0.0,-0.0,-0.0,-0.0,-0.0,-0.0,-0.0,-0.0,-0.2447,-0.4631,-0.575,-0.8548,-1.1631,-1.4949,-1.7976,-2.022,-2.1185,-2.1771,-2.2337,-2.2337,-2.2337,-2.2337,-2.2337,-2.2337,-2.2337,-2.2337,-2.2337,-2.2337,-2.2337,-2.2337,-2.2337,-2.2337,-2.2337,-2.2337,-2.2337,-2.2337,-2.2337,-2.2337,-2.2337,-2.2337,-2.2337,-2.2337,-2.2337,0.0,0.0,-0.0,-0.0,0.0,0.0,0.0,-0.0,-0.0,-0.0,-0.0,-0.0,-0.0,-0.0,-0.0,-0.0,-0.0,-0.0,0.0,-0.0,-0.0,-0.0,-0.0,-0.0,-0.0,-0.0,-0.0,-0.0,-0.0,-0.0,-0.0,-0.0,-0.0,-0.0,-0.0,-0.0,-0.0,-0.0,-0.0,-0.0,-0.0,-0.0,-0.0,-0.0,-0.0,-0.0,-0.0,-0.0,-0.0,-0.0,-0.0,-0.0,-0.0,-0.0,-0.0,-0.0,-0.0,-0.0,-0.0,-0.0,-0.0,-0.0,-0.0,-0.0,-0.0,-0.0,-0.0,-0.0,-0.0,-0.0,-0.0,-0.0,-0.0,-0.0,-0.0,-0.0,-0.0,-0.0825,-0.193,-0.3315,-0.5001,-0.7536,-1.0594,-1.3932,-1.7549,-2.0652,-2.1771,-2.2337,-2.2337,-2.2337,-2.2337,-2.2337,-2.2337,-2.2337,-2.2337,-2.2337,-2.2337,-2.2337,-2.2337,-2.2337,-2.2337,-2.2337,-2.2337,-2.2337,-2.2337,-2.2337,-2.2337,-2.2337,-2.2337,-2.2337,-2.2337,-2.2337,-0.0,-0.0,0.0,-0.0,-0.0,0.0,-0.0,0.0,-0.0,-0.0,-0.0,-0.0,-0.0,-0.0,-0.0,-0.0,-0.0,-0.0,0.0,-0.0,-0.0,-0.0,-0.0,-0.0,-0.0,-0.0,-0.0,-0.0,-0.0,-0.0,-0.0,-0.0,-0.0,-0.0,-0.0,-0.0,-0.0,-0.0,-0.0,-0.0,-0.0,-0.0,-0.0,-0.0,-0.0,-0.0,-0.0,-0.0,-0.0,-0.0,-0.0,-0.0,-0.0,-0.0,-0.0,-0.0,-0.0,-0.0,-0.0,-0.0,-0.0,-0.0,-0.0,-0.0,-0.0,-0.0,-0.0,-0.0,-0.0,-0.0,-0.0,-0.0,-0.0,-0.0,-0.0,-0.0,-0.0,-0.0,-0.0278,-0.1114,-0.2516,-0.4484,-0.7,-1.0629,-1.4809,-1.8996,-2.0954,-2.1777,-2.1777,-2.206,-2.2337,-2.2337,-2.2337,-2.2337,-2.2337,-2.2337,-2.2337,-2.2337,-2.2337,-2.2337,-2.2337,-2.2337,-2.2337,-2.2337,-2.2337,-2.2337,-2.2337,-2.2337,-2.2337,-2.2337,-2.2337,-2.2337]},{"header":{"parameterUnit":"m.s-1","parameterCategory":1,"la1":30.6,"la2":29.2853,"lo1":-89.7004,"lo2":-87.6739,"dy":0.0162,"dx":0.0183,"nx":112,"ny":82,"refTime":"2024-02-01T06:00:00:Z","depth":0,"parameterNumber":3,"parameterNumberName":"V-component_of_WINDS"},"data":[0.0,0.0,0.0,0.0,0.0,0.0,0.0,0.0,0.0,0.0,0.0,0.0,0.0,0.0,0.0,0.0,0.0,0.0,0.0,0.0,0.0,0.0,0.0,0.0,0.0,0.0,0.0,0.0,0.0,0.0,0.0,0.0,0.0,0.0,0.0,0.0,0.0,0.0,0.0,0.0,0.0,0.0,0.0,0.0,0.0,0.0,0.0,0.0,0.0,0.0,0.0,0.0,0.0,0.0,0.0,0.0,0.0,0.0,0.0,0.0,0.0,0.0,0.0,0.0,0.0,0.0,0.0,0.0,0.0,0.0,0.0,0.0,0.0,0.0,0.0,0.0,0.0,0.0,0.0,0.0,0.0,0.0,0.0,0.0,0.0,0.0,0.0,0.0,0.0,0.0,-4.4048,-4.4048,-4.4048,-4.4017,-4.4017,-4.3992,-4.3929,-4.3929,0.0,0.0,0.0,0.0,0.0,0.0,0.0,0.0,0.0,0.0,0.0,0.0,0.0,0.0,0.0,0.0,0.0,0.0,0.0,0.0,0.0,0.0,0.0,0.0,0.0,0.0,0.0,0.0,0.0,0.0,0.0,0.0,0.0,0.0,0.0,0.0,0.0,0.0,0.0,0.0,0.0,0.0,0.0,0.0,0.0,0.0,0.0,0.0,0.0,0.0,0.0,0.0,0.0,0.0,0.0,0.0,0.0,0.0,0.0,0.0,0.0,0.0,0.0,0.0,0.0,0.0,0.0,0.0,0.0,0.0,0.0,0.0,0.0,0.0,0.0,0.0,0.0,0.0,0.0,0.0,0.0,0.0,0.0,0.0,0.0,0.0,0.0,0.0,0.0,0.0,0.0,0.0,0.0,0.0,0.0,0.0,0.0,0.0,0.0,0.0,0.0,0.0,0.0,0.0,-4.4411,-4.4279,-4.4192,-4.4162,-4.4162,-4.4109,-4.4048,-4.3992,0.0,0.0,0.0,0.0,0.0,0.0,0.0,0.0,0.0,0.0,0.0,0.0,0.0,0.0,0.0,0.0,0.0,0.0,0.0,0.0,0.0,0.0,0.0,0.0,0.0,0.0,0.0,0.0,0.0,0.0,0.0,0.0,0.0,0.0,0.0,0.0,0.0,0.0,0.0,0.0,0.0,0.0,0.0,0.0,0.0,0.0,0.0,0.0,0.0,0.0,0.0,0.0,0.0,0.0,0.0,0.0,0.0,0.0,0.0,0.0,0.0,0.0,0.0,0.0,0.0,0.0,0.0,0.0,0.0,0.0,0.0,0.0,0.0,0.0,0.0,0.0,0.0,0.0,0.0,0.0,0.0,0.0,0.0,0.0,0.0,0.0,0.0,0.0,0.0,0.0,0.0,0.0,0.0,0.0,0.0,0.0,0.0,0.0,0.0,0.0,0.0,0.0,0.0,-4.4749,-4.4726,-4.47,-4.4662,-4.4662,-4.4662,-4.4584,-4.4486,-4.4374,-4.4109,0.0,0.0,0.0,0.0,0.0,0.0,0.0,0.0,0.0,0.0,0.0,0.0,0.0,0.0,0.0,0.0,0.0,0.0,0.0,0.0,0.0,0.0,0.0,0.0,0.0,0.0,0.0,0.0,0.0,0.0,0.0,0.0,0.0,0.0,0.0,0.0,0.0,0.0,0.0,0.0,0.0,0.0,0.0,0.0,0.0,0.0,0.0,0.0,0.0,0.0,0.0,0.0,0.0,0.0,0.0,0.0,0.0,0.0,0.0,0.0,0.0,0.0,0.0,0.0,0.0,0.0,0.0,0.0,0.0,0.0,0.0,0.0,0.0,0.0,0.0,0.0,0.0,0.0,0.0,0.0,0.0,0.0,0.0,0.0,0.0,0.0,0.0,0.0,0.0,0.0,0.0,0.0,0.0,0.0,0.0,0.0,0.0,0.0,0.0,0.0,0.0,0.0,-4.5518,-4.5627,-4.5627,-4.5696,-4.5719,-4.5719,-4.5603,-4.5483,-4.533,-4.5021,0.0,0.0,0.0,0.0,0.0,0.0,0.0,0.0,0.0,0.0,0.0,0.0,0.0,0.0,0.0,0.0,0.0,0.0,0.0,0.0,0.0,0.0,0.0,0.0,0.0,0.0,0.0,0.0,0.0,0.0,0.0,0.0,0.0,0.0,0.0,0.0,0.0,0.0,0.0,0.0,0.0,0.0,0.0,0.0,0.0,0.0,0.0,0.0,0.0,0.0,0.0,0.0,0.0,0.0,0.0,0.0,0.0,0.0,0.0,0.0,0.0,0.0,0.0,0.0,0.0,0.0,0.0,0.0,0.0,0.0,0.0,0.0,0.0,0.0,0.0,0.0,0.0,0.0,0.0,0.0,0.0,0.0,0.0,0.0,0.0,0.0,0.0,0.0,0.0,0.0,0.0,0.0,0.0,0.0,0.0,0.0,0.0,0.0,0.0,0.0,0.0,0.0,-4.7167,-4.7518,-4.7518,-4.7564,-4.7608,-4.7608,-4.7495,-4.7338,-4.7214,-4.6883,0.0,0.0,0.0,0.0,0.0,0.0,0.0,0.0,0.0,0.0,0.0,0.0,0.0,0.0,0.0,0.0,0.0,0.0,0.0,0.0,0.0,0.0,0.0,0.0,0.0,0.0,0.0,0.0,0.0,0.0,0.0,0.0,0.0,0.0,0.0,0.0,0.0,0.0,0.0,0.0,0.0,0.0,0.0,0.0,0.0,0.0,0.0,0.0,0.0,0.0,0.0,0.0,0.0,0.0,0.0,0.0,0.0,0.0,0.0,0.0,0.0,0.0,0.0,0.0,0.0,0.0,0.0,0.0,0.0,0.0,0.0,0.0,0.0,0.0,0.0,0.0,0.0,0.0,0.0,0.0,0.0,0.0,0.0,0.0,0.0,0.0,0.0,0.0,0.0,0.0,0.0,0.0,0.0,0.0,0.0,0.0,0.0,0.0,0.0,0.0,0.0,0.0,-4.8694,-4.8255,-4.7966,-4.7989,-4.7971,-4.7971,-4.7949,-4.7843,-4.7647,0.0,0.0,0.0,0.0,0.0,0.0,0.0,0.0,0.0,0.0,0.0,0.0,0.0,0.0,0.0,0.0,0.0,0.0,0.0,0.0,0.0,0.0,0.0,0.0,0.0,0.0,0.0,0.0,0.0,0.0,0.0,0.0,0.0,0.0,0.0,0.0,0.0,0.0,0.0,0.0,0.0,0.0,0.0,0.0,0.0,0.0,0.0,0.0,0.0,0.0,0.0,0.0,0.0,0.0,0.0,0.0,0.0,0.0,0.0,0.0,0.0,0.0,0.0,0.0,0.0,0.0,0.0,0.0,0.0,0.0,0.0,0.0,0.0,0.0,0.0,0.0,0.0,0.0,0.0,0.0,0.0,0.0,0.0,0.0,0.0,0.0,0.0,0.0,0.0,0.0,0.0,0.0,0.0,0.0,0.0,0.0,0.0,0.0,0.0,0.0,0.0,0.0,-5.0253,-4.9834,-4.9336,-4.9278,-4.9279,-4.9433,-4.9702,-4.9702,-4.9621,-4.9433,0.0,0.0,0.0,0.0,0.0,0.0,0.0,0.0,0.0,0.0,0.0,0.0,0.0,0.0,0.0,0.0,0.0,0.0,0.0,0.0,0.0,0.0,0.0,0.0,0.0,0.0,0.0,0.0,0.0,0.0,0.0,0.0,0.0,0.0,0.0,0.0,0.0,0.0,0.0,0.0,0.0,0.0,0.0,0.0,0.0,0.0,0.0,0.0,0.0,0.0,0.0,0.0,0.0,0.0,0.0,0.0,0.0,0.0,0.0,0.0,0.0,0.0,0.0,0.0,0.0,0.0,0.0,0.0,0.0,0.0,0.0,0.0,0.0,0.0,0.0,0.0,0.0,0.0,0.0,0.0,0.0,0.0,0.0,0.0,0.0,0.0,0.0,0.0,0.0,0.0,0.0,0.0,0.0,0.0,0.0,0.0,0.0,0.0,0.0,0.0,0.0,0.0,-5.0717,-5.0602,-5.0853,-5.1736,-5.1893,-5.2279,-5.3126,-5.3161,-5.3059,0.0,0.0,0.0,0.0,0.0,0.0,0.0,0.0,0.0,0.0,0.0,0.0,0.0,0.0,0.0,0.0,0.0,0.0,0.0,0.0,0.0,0.0,0.0,0.0,0.0,0.0,0.0,0.0,0.0,0.0,0.0,0.0,0.0,0.0,0.0,0.0,0.0,0.0,0.0,0.0,0.0,0.0,0.0,0.0,0.0,0.0,0.0,0.0,0.0,0.0,0.0,0.0,0.0,0.0,0.0,0.0,0.0,0.0,0.0,0.0,0.0,0.0,0.0,0.0,0.0,0.0,0.0,0.0,0.0,0.0,0.0,0.0,0.0,0.0,0.0,0.0,0.0,0.0,0.0,0.0,0.0,0.0,0.0,0.0,0.0,0.0,0.0,0.0,0.0,0.0,0.0,0.0,0.0,0.0,0.0,0.0,0.0,0.0,0.0,0.0,0.0,0.0,0.0,-5.2315,-5.2451,-5.249,-5.2759,-5.2797,-5.2933,-5.3164,-5.3182,-5.3161,-5.3059,0.0,0.0,0.0,0.0,0.0,0.0,0.0,0.0,0.0,0.0,0.0,0.0,0.0,0.0,0.0,0.0,0.0,0.0,0.0,0.0,0.0,0.0,0.0,0.0,0.0,0.0,0.0,0.0,0.0,0.0,0.0,0.0,0.0,0.0,0.0,0.0,0.0,0.0,0.0,0.0,0.0,0.0,0.0,0.0,0.0,0.0,0.0,0.0,0.0,0.0,0.0,0.0,0.0,0.0,0.0,0.0,0.0,0.0,0.0,0.0,0.0,0.0,0.0,0.0,0.0,0.0,0.0,0.0,0.0,0.0,0.0,0.0,0.0,0.0,0.0,0.0,0.0,0.0,0.0,0.0,0.0,0.0,0.0,0.0,0.0,0.0,0.0,0.0,0.0,0.0,0.0,0.0,0.0,0.0,0.0,0.0,0.0,0.0,0.0,0.0,0.0,0.0,-5.407,-5.4185,-5.407,-5.3741,-5.3703,-5.3857,-5.4164,-5.4203,-5.4182,-5.4122,0.0,0.0,0.0,0.0,0.0,0.0,0.0,0.0,0.0,0.0,0.0,0.0,0.0,0.0,0.0,0.0,0.0,0.0,0.0,0.0,0.0,0.0,0.0,0.0,0.0,0.0,0.0,0.0,0.0,0.0,0.0,0.0,0.0,0.0,0.0,0.0,0.0,0.0,0.0,0.0,0.0,0.0,0.0,0.0,0.0,0.0,0.0,0.0,0.0,0.0,0.0,0.0,0.0,0.0,0.0,0.0,0.0,0.0,0.0,0.0,0.0,0.0,0.0,0.0,0.0,0.0,0.0,0.0,0.0,0.0,0.0,0.0,0.0,0.0,0.0,0.0,0.0,0.0,0.0,0.0,0.0,0.0,0.0,0.0,0.0,0.0,0.0,0.0,0.0,0.0,0.0,0.0,0.0,0.0,0.0,0.0,0.0,0.0,0.0,0.0,0.0,0.0,-5.592,-5.592,-5.5668,-5.4934,-5.4857,-5.5164,-5.5895,-5.5934,-5.5934,-5.5934,0.0,0.0,0.0,0.0,0.0,0.0,0.0,0.0,0.0,0.0,0.0,0.0,0.0,0.0,0.0,0.0,0.0,0.0,0.0,0.0,0.0,0.0,0.0,0.0,0.0,0.0,0.0,0.0,0.0,0.0,0.0,0.0,0.0,0.0,0.0,0.0,0.0,0.0,0.0,0.0,0.0,0.0,0.0,0.0,0.0,0.0,0.0,0.0,0.0,0.0,0.0,0.0,0.0,0.0,0.0,0.0,0.0,0.0,0.0,0.0,-6.0664,-5.5039,0.0,0.0,0.0,0.0,0.0,0.0,0.0,0.0,0.0,0.0,0.0,0.0,0.0,0.0,0.0,0.0,0.0,0.0,0.0,0.0,0.0,0.0,0.0,0.0,0.0,0.0,0.0,0.0,0.0,0.0,0.0,0.0,0.0,0.0,0.0,0.0,0.0,0.0,0.0,0.0,-5.7555,-5.7747,-5.767,-5.7511,-5.7511,-5.755,-5.7742,-5.7742,-5.7742,-5.7742,-5.7588,0.0,0.0,0.0,0.0,0.0,0.0,0.0,0.0,0.0,0.0,0.0,0.0,0.0,0.0,0.0,0.0,0.0,0.0,0.0,0.0,0.0,0.0,0.0,0.0,0.0,0.0,0.0,0.0,0.0,0.0,0.0,0.0,0.0,0.0,0.0,0.0,0.0,0.0,0.0,0.0,0.0,0.0,0.0,0.0,0.0,0.0,0.0,0.0,0.0,0.0,0.0,0.0,0.0,0.0,0.0,0.0,0.0,0.0,0.0,-6.543,-6.1719,0.0,0.0,0.0,0.0,0.0,0.0,0.0,0.0,0.0,0.0,0.0,0.0,0.0,0.0,0.0,0.0,0.0,0.0,0.0,0.0,0.0,0.0,0.0,0.0,0.0,0.0,0.0,0.0,0.0,0.0,0.0,0.0,0.0,0.0,0.0,0.0,0.0,0.0,0.0,0.0,-5.8072,-5.9018,-5.921,-5.8396,-5.8319,-5.8319,-5.8319,-5.8319,-5.8319,-5.8319,-5.8319,0.0,0.0,0.0,0.0,0.0,0.0,0.0,0.0,0.0,0.0,0.0,0.0,0.0,0.0,0.0,0.0,0.0,0.0,0.0,0.0,0.0,0.0,0.0,0.0,0.0,0.0,0.0,0.0,0.0,0.0,0.0,0.0,0.0,0.0,0.0,0.0,0.0,0.0,0.0,0.0,0.0,0.0,0.0,0.0,0.0,0.0,0.0,0.0,0.0,0.0,0.0,0.0,0.0,-7.0039,-7.0039,-7.0078,-7.0781,-7.3437,-7.7109,-7.0664,-6.9805,-7.2265,-6.3711,0.0,0.0,0.0,0.0,0.0,0.0,0.0,0.0,0.0,0.0,0.0,0.0,0.0,0.0,0.0,0.0,0.0,0.0,0.0,0.0,0.0,0.0,0.0,0.0,-5.6626,-5.628,-5.5588,0.0,0.0,0.0,0.0,0.0,0.0,0.0,0.0,0.0,0.0,0.0,-5.8511,-5.9942,-6.025,-5.8896,-5.8742,-5.8742,-5.8742,-5.8742,-5.8742,-5.8742,-5.8742,-5.8742,0.0,0.0,0.0,0.0,0.0,0.0,0.0,0.0,0.0,0.0,0.0,0.0,0.0,0.0,0.0,0.0,0.0,0.0,0.0,0.0,0.0,0.0,0.0,0.0,0.0,0.0,0.0,0.0,0.0,0.0,0.0,0.0,-6.832,-6.3828,0.0,0.0,0.0,0.0,0.0,0.0,0.0,0.0,0.0,0.0,0.0,0.0,0.0,-7.7148,-8.2304,-8.2461,-8.2539,-8.2539,-8.2539,-8.2539,-8.2539,-8.2656,-8.3086,-8.3672,-8.2617,0.0,-7.6406,-7.5039,0.0,0.0,0.0,0.0,0.0,0.0,0.0,0.0,0.0,0.0,0.0,0.0,0.0,0.0,0.0,0.0,0.0,0.0,0.0,0.0,0.0,0.0,-6.9898,-7.0629,-6.7513,-6.4359,0.0,-6.0165,-5.6742,-5.7627,-5.7819,0.0,0.0,0.0,0.0,0.0,0.0,0.0,-6.0227,-6.0673,-6.0727,-6.0473,-6.0473,-6.0473,-6.0473,-6.0473,-6.0473,-6.0473,-6.0473,-6.0473,-6.0473,-6.0473,0.0,0.0,0.0,0.0,0.0,0.0,0.0,0.0,0.0,0.0,0.0,0.0,0.0,0.0,0.0,0.0,0.0,0.0,0.0,0.0,0.0,0.0,0.0,0.0,0.0,0.0,0.0,0.0,0.0,-6.4453,-6.7383,-6.2656,-6.5039,-6.4062,0.0,0.0,0.0,0.0,0.0,0.0,0.0,0.0,0.0,-7.6953,-7.7187,-7.9687,-8.4844,-8.4883,-8.4883,-8.4883,-8.4883,-8.4883,-8.4922,-8.539,-8.5625,-8.5664,-8.6133,-8.5078,-8.2695,-7.8789,-7.4531,-7.0117,0.0,0.0,0.0,0.0,-6.5993,-6.6727,-7.1877,-7.3618,-7.4108,-7.6975,0.0,0.0,0.0,0.0,0.0,0.0,0.0,0.0,0.0,0.0,-7.3014,-7.3399,-7.1822,-7.0321,-7.0744,-6.6551,-6.182,0.0,-5.8319,-5.8434,-5.8896,0.0,0.0,0.0,0.0,-5.9973,-6.0727,-6.0804,-6.0804,-6.0781,-6.0781,-6.0781,-6.0781,-6.0781,-6.0781,-6.0781,-6.0781,-6.0781,-6.0781,-6.0781,-6.0781,0.0,0.0,0.0,0.0,0.0,0.0,0.0,0.0,0.0,0.0,0.0,0.0,0.0,0.0,0.0,0.0,0.0,0.0,0.0,0.0,0.0,0.0,0.0,0.0,0.0,0.0,0.0,0.0,-6.543,-6.832,-6.5078,-6.8125,-6.7734,0.0,0.0,0.0,0.0,0.0,0.0,-7.3555,-7.2695,-7.4492,-7.9687,-7.9844,-8.1679,-8.5547,-8.5586,-8.5586,-8.5586,-8.5586,-8.5586,-8.5586,-8.6445,-8.6836,-8.6875,-8.7773,-8.8125,-8.7695,-8.2148,-7.9062,-7.7461,-7.3555,-7.125,-7.0273,-7.1562,-7.2023,-7.2801,-7.8211,-8.008,-8.0726,-8.4771,-8.5507,-8.413,-8.0222,0.0,0.0,0.0,0.0,-7.5813,-7.7352,-7.7707,-7.7746,-7.7977,-7.7053,-7.6245,-7.6861,-7.2976,-6.7705,0.0,-5.9819,-5.9127,-5.9742,0.0,0.0,-6.0704,-6.0781,-6.0781,-6.0781,-6.0781,-6.0781,-6.0781,-6.0781,-6.0781,-6.0781,-6.0781,-6.0781,-6.0781,-6.0781,-6.0781,-6.0781,-6.0781,-6.0781,-6.0781,0.0,0.0,0.0,0.0,0.0,0.0,0.0,0.0,0.0,0.0,0.0,0.0,0.0,0.0,0.0,0.0,0.0,0.0,0.0,0.0,0.0,0.0,0.0,0.0,0.0,0.0,0.0,0.0,0.0,-7.6367,-7.6601,0.0,0.0,0.0,0.0,-7.6055,-7.2812,-7.4961,-8.4844,-8.1445,-8.1562,-8.6836,-8.6992,-8.7109,-8.7383,-8.7383,-8.7383,-8.7383,-8.7383,-8.7383,-8.7383,-8.8203,-8.8554,-8.8633,-8.9492,-8.9883,-8.9726,-8.7773,-8.4062,-7.9531,-7.9297,-7.6172,-7.2461,-7.7383,-7.9176,-8.0023,-8.6041,-8.8111,-8.8303,-8.9388,-8.6258,-8.2046,-8.166,-7.7844,0.0,0.0,-8.0849,-8.21,-8.7802,-8.9162,-8.9286,-9.0094,-8.6594,-8.3093,-8.3131,-7.9131,-7.4014,0.0,-6.3974,-6.0704,-6.0742,0.0,-6.0742,-6.0781,-6.0781,-6.0781,-6.0781,-6.0781,-6.0781,-6.0781,-6.0781,-6.0781,-6.0781,-6.0781,-6.0781,-6.0781,-6.0781,-6.0781,-6.0781,-6.0781,-6.0781,-6.0781,-6.0781,0.0,0.0,0.0,0.0,0.0,0.0,0.0,0.0,0.0,0.0,0.0,0.0,0.0,0.0,0.0,0.0,0.0,0.0,0.0,0.0,0.0,0.0,0.0,0.0,0.0,0.0,0.0,0.0,-7.3359,-7.5976,0.0,-7.414,-7.5195,-7.6836,-7.8672,-8.0508,-8.3125,-8.6836,-8.5547,-8.5586,-8.7422,-8.8008,-8.8281,-8.8281,-8.8828,-8.9101,-8.9101,-8.9101,-8.9101,-8.9101,-8.9414,-8.9531,-8.9531,-8.9883,-9.0,-8.9961,-8.9375,-8.8008,-8.6328,-8.6328,-8.5195,-8.3828,-8.5664,-8.6321,-8.6639,-8.8792,-8.9534,-8.9567,-8.9844,-8.856,-8.6959,-8.7329,-8.6088,-8.4985,-8.7176,-8.775,-8.8188,-9.0307,-9.0817,-9.0825,-9.1133,-8.9825,-8.8479,-8.8479,-8.4478,-8.0362,-7.8515,-7.4053,-7.0591,-7.0591,-6.7859,-6.5705,-6.5705,-6.3512,-6.1627,-6.0873,-6.1743,-6.1988,-6.0926,-6.145,-6.1873,-6.1873,-6.2204,-6.2397,-6.2397,-6.2397,-6.2397,-6.2397,-6.2397,-6.2397,-6.2397,-6.2397,-6.2397,0.0,0.0,0.0,0.0,0.0,0.0,0.0,0.0,0.0,0.0,0.0,0.0,0.0,0.0,0.0,0.0,0.0,0.0,0.0,0.0,0.0,0.0,0.0,0.0,0.0,-7.2617,-7.6953,-7.4062,-7.8359,-8.039,-7.75,-8.0312,-8.2422,-8.2734,-8.5937,-8.8047,-8.832,-8.8359,-8.8359,-8.8359,-8.8867,-8.914,-8.914,-8.9726,-9.0,-9.0,-9.0,-9.0,-9.0,-9.0312,-9.0429,-9.0469,-9.0742,-9.0898,-9.0898,-9.0898,-9.0898,-9.082,-9.0234,-9.0,-9.0,-9.0,-8.9989,-9.0023,-9.0335,-9.0602,-9.0859,-9.0802,-9.0648,-9.0615,-9.0983,-9.1044,-9.1024,-9.1397,-9.1431,-9.1303,-9.1303,-9.1275,-9.121,-9.121,-9.1441,-9.1633,-9.1633,-8.921,-8.7017,-8.7017,-8.1285,-7.6438,-7.6438,-7.386,-7.1822,-7.1822,-6.6499,-6.2285,-6.1722,-6.3142,-6.3743,-6.2642,-6.3205,-6.3628,-6.3628,-6.3628,-6.3512,-6.332,-6.332,-6.332,-6.332,-6.332,-6.332,-6.332,-6.332,-6.332,-6.332,0.0,0.0,0.0,0.0,0.0,0.0,0.0,0.0,0.0,0.0,0.0,0.0,0.0,0.0,0.0,0.0,0.0,0.0,0.0,0.0,0.0,0.0,0.0,-7.293,-7.668,-7.9922,-7.9922,-8.4453,-8.7539,-8.7539,-8.7578,-8.789,-8.8672,-8.875,-8.9101,-8.9961,-9.0,-9.0,-9.0,-9.0039,-9.0039,-9.0039,-9.0078,-9.0078,-9.0078,-9.0078,-9.0078,-9.0117,-9.0976,-9.1328,-9.1406,-9.2226,-9.2617,-9.2617,-9.2617,-9.2617,-9.2422,-9.0742,-9.0078,-9.0078,-9.0078,-9.0067,-9.0218,-9.1038,-9.1843,-9.251,-9.2518,-9.2377,-9.2187,-9.2132,-9.1944,-9.1786,-9.1786,-9.162,-9.1438,-9.1438,-9.1347,-9.1287,-9.1287,-9.1902,-9.2556,-9.2556,-9.3133,-9.371,-9.371,-8.5132,-7.7823,-7.7823,-7.8323,-7.8746,-7.8746,-6.9798,0.0,-6.3291,-6.4821,-6.5909,-6.5909,-6.5909,-6.5909,-6.5909,-6.5076,-6.432,-6.3743,-6.382,-6.3858,-6.3858,-6.3858,-6.3858,-6.3858,-6.3858,-6.3858,-6.3858,0.0,0.0,0.0,0.0,0.0,0.0,0.0,0.0,0.0,0.0,0.0,0.0,0.0,0.0,0.0,0.0,0.0,0.0,0.0,0.0,0.0,-7.539,-7.9219,-7.7773,-8.207,-8.5351,-8.5351,-8.7148,-8.8359,-8.8359,-8.8945,-8.9414,-8.9648,-8.9648,-8.9765,-9.0,-9.0,-9.0,-9.0,-9.0625,-9.0937,-9.0937,-9.1562,-9.1875,-9.1875,-9.1875,-9.1875,-9.1875,-9.2148,-9.2226,-9.2265,-9.25,-9.2617,-9.2617,-9.2617,-9.2617,-9.2539,-9.207,-9.1875,-9.1875,-9.1875,-9.1871,-9.1926,-9.2138,-9.235,-9.249,-9.252,-9.2417,-9.2254,-9.2151,-9.195,-9.1799,-9.1677,-9.1964,-9.2266,-9.2266,-9.2661,-9.3018,-9.3018,-9.321,-9.3364,-9.3364,-9.3518,-9.371,-9.371,-9.1748,-8.994,-8.9286,-8.6324,-8.4016,-8.4016,-7.8908,0.0,-6.4305,-6.4823,-6.5915,-6.5886,-6.5924,-6.5924,-6.5924,-7.0094,-7.2707,-7.2515,-7.4802,-7.6207,-7.6207,-7.6207,-7.6207,-7.6207,-7.6207,-7.6207,0.0,0.0,0.0,0.0,0.0,0.0,0.0,0.0,0.0,0.0,0.0,0.0,0.0,0.0,0.0,0.0,0.0,0.0,0.0,0.0,0.0,0.0,-8.039,-8.4023,-8.4023,-8.6328,-8.8125,-8.8515,-8.8945,-8.9258,-8.9258,-8.9687,-9.0156,-9.0508,-9.0547,-9.0703,-9.1054,-9.1094,-9.1094,-9.1094,-9.1562,-9.1836,-9.1836,-9.2344,-9.2617,-9.2617,-9.2617,-9.2617,-9.2617,-9.2617,-9.2617,-9.2617,-9.2617,-9.2617,-9.2617,-9.2617,-9.2617,0.0,0.0,0.0,0.0,0.0,-9.2615,-9.2599,-9.2613,-9.2546,-9.252,-9.252,-9.2405,-9.2315,-9.256,-9.2471,-9.2354,-9.2615,-9.2898,-9.3158,-9.3158,-9.3435,-9.371,-9.371,-9.398,-9.4249,-9.4249,-9.4518,-9.4788,-9.4788,-9.5211,0.0,-9.5326,-9.2556,-9.0364,-9.0364,-8.6478,-8.2138,-7.8289,-7.4549,-7.3929,-7.8199,-7.9883,-8.0722,-8.0722,-8.3054,0.0,0.0,0.0,-8.1939,-8.3849,-8.2778,0.0,0.0,0.0,-8.2131,-8.2131,0.0,0.0,0.0,-7.6476,-7.6938,0.0,0.0,0.0,0.0,0.0,0.0,0.0,0.0,0.0,0.0,0.0,0.0,0.0,0.0,0.0,0.0,-8.6133,-9.0039,-9.0117,-8.9492,-8.9258,-8.9922,-9.0078,-9.0156,-9.0156,-9.0234,-9.0625,-9.1406,-9.1445,-9.1797,-9.2578,-9.2617,0.0,0.0,0.0,-9.2617,-9.2617,-9.2617,-9.2617,-9.2617,-9.2617,-9.2617,-9.2617,-9.2617,-9.2617,-9.2617,-9.2617,-9.2617,-9.2617,-9.2617,-9.2617,-9.2617,-9.2617,-9.2617,-9.2616,-9.2616,-9.2611,-9.2595,-9.2685,0.0,0.0,-9.2713,-9.2625,-9.2597,-9.3298,-9.3318,-9.3308,-9.3969,-9.4094,-9.4044,-9.4044,-9.4013,-9.398,-9.398,-9.4557,-9.5134,-9.5134,-9.5826,-9.6442,-9.6442,-9.6519,-9.6826,-9.7519,-9.698,-9.648,-9.6557,-9.271,-9.1818,-9.72,-8.9277,-8.6698,-9.5869,0.0,0.0,-10.1297,-9.8599,-9.3026,-8.3945,-8.3182,-8.4901,-8.8887,-8.6665,-8.5401,-8.5401,-8.5324,-8.5286,-8.5286,-8.5286,-8.7632,-9.1902,-8.5324,-8.2939,0.0,0.0,0.0,0.0,0.0,0.0,0.0,0.0,0.0,0.0,0.0,0.0,0.0,0.0,0.0,-8.1875,-8.6523,-9.0234,-9.0937,-9.0898,-9.0586,-9.0078,-9.0625,-9.1054,-9.1054,-9.1679,-9.2187,-9.2344,-9.2344,-9.2422,-9.2578,-9.2617,-9.2617,-9.2617,-9.2617,-9.2617,-9.2617,-9.2617,-9.2617,-9.2617,0.0,0.0,-9.2617,-9.2617,-9.2617,-9.2617,-9.2617,-9.2617,-9.2617,-9.2617,-9.2617,-9.2617,-9.2617,-9.2611,-9.258,-9.258,-9.2567,-9.2615,-9.327,-9.3482,-9.3575,-9.4169,-9.4301,-9.4212,-9.4141,-9.402,0.0,-9.3946,-9.4352,-9.4785,-9.4785,-9.5288,-9.5788,-9.5788,-9.5942,-9.6057,-9.6057,-9.6673,-9.7288,-9.7288,-9.7827,-9.8365,-9.8519,-9.7827,-9.7519,-9.8211,-9.748,-9.7096,-9.7825,-9.6825,-9.7133,-10.0017,-10.0903,-10.1325,-10.1325,-10.071,-9.9479,-9.7518,-9.6095,-9.5788,-9.6632,-9.6594,-9.6517,-9.6517,-9.6057,-9.5865,-9.5865,-9.5865,-9.6365,-9.7211,-9.1787,-9.1518,0.0,0.0,0.0,0.0,0.0,0.0,0.0,0.0,0.0,0.0,0.0,-7.4219,-7.7265,0.0,-8.3789,-8.6367,-8.9336,-9.1445,-9.1875,-9.1953,-9.1797,-9.1367,-9.1679,-9.1953,-9.1953,-9.2344,-9.2617,-9.2617,-9.2617,-9.2617,-9.2617,-9.2617,-9.2617,-9.2617,-9.2617,-9.2617,-9.2617,-9.2617,-9.2617,-9.2617,-9.2617,-9.2617,-9.2617,-9.2617,-9.2615,-9.2603,-9.3072,-9.3267,-9.3267,-9.3696,-9.3853,-9.3853,-9.3853,-9.3582,-9.3259,-9.366,-9.3743,-9.3744,-9.4115,-9.4184,-9.415,-9.4523,-9.4561,-9.4506,-9.4783,-9.4772,-9.4775,-9.5075,-9.5399,-9.5634,-9.5634,-9.598,-9.6403,-9.6788,-9.6903,-9.7019,-9.7442,-9.7865,-9.8134,-9.8134,-9.8481,-9.8942,-9.9365,-9.9096,-9.8788,-9.8788,-9.8788,-9.8865,-9.8981,-9.9365,-9.9981,-10.1212,-10.1289,-10.1289,-10.1289,-10.1289,-10.1328,-10.1289,-10.0481,-10.0096,-10.0096,-10.0289,-10.0481,-10.0481,-10.0212,-10.0096,-10.0096,-10.0096,-10.0096,-9.9981,-9.7442,-9.7403,0.0,0.0,0.0,0.0,0.0,0.0,0.0,-7.3047,-7.3984,-7.4883,-7.5976,-7.8281,-8.3164,-8.4765,-8.6719,-9.0898,-9.2148,-9.2617,-9.2617,-9.2617,-9.2617,-9.2617,-9.2617,-9.2617,-9.2617,-9.2617,-9.2617,-9.2617,-9.2617,-9.2617,-9.2617,-9.2617,-9.2617,-9.2617,-9.2617,-9.2617,-9.2617,-9.2617,-9.2617,-9.2617,-9.2772,-9.2849,-9.2849,-9.3045,-9.3111,-9.31,-9.3825,-9.409,-9.4168,-9.4783,-9.5056,-9.5095,-9.5242,-9.4862,-9.4279,-9.4778,-9.4902,-9.4833,-9.4951,-9.4829,-9.4723,-9.4855,-9.4809,-9.4762,-9.5408,-9.5516,-9.5572,-9.6201,-9.6476,-9.6519,-9.6519,-9.6673,-9.6942,-9.7596,-9.775,-9.7942,-9.8634,-9.8942,-9.9058,-9.9058,-9.9173,-9.9519,-10.0212,-10.0289,-10.0096,-9.9404,-9.9288,-9.9519,-10.0212,-10.0096,-10.0289,-10.1212,-10.1289,-10.1289,-10.1289,-10.1289,-10.1289,-10.1327,-10.1327,-10.1327,-10.1288,-10.1288,-10.152,-10.1789,-10.1712,-10.1712,-10.1789,-10.1789,-10.1789,-10.1789,-10.1789,-10.1289,-7.8125,-7.8398,-7.8828,-7.8828,-7.539,-7.2187,0.0,-7.6719,-8.0234,-8.1094,-8.5547,-8.9492,-9.0156,-9.1015,-9.1797,-9.2344,-9.2539,-9.2617,-9.2617,-9.2617,-9.2617,-9.2617,-9.2617,-9.2617,-9.2617,-9.2617,-9.2617,-9.2617,-9.2617,-9.2617,-9.2617,-9.2617,-9.2617,-9.2617,-9.2617,-9.2617,-9.2617,-9.2617,-9.2617,-9.2617,-9.3376,-9.3739,-9.3778,-9.4558,-9.4871,-9.4817,-9.4874,-9.4861,-9.49,-9.4902,-9.4907,-9.4985,-9.5689,-9.5904,-9.5688,-9.5105,-9.4794,-9.4757,-9.5367,-9.5519,-9.5504,-9.6164,-9.6375,-9.6313,-9.6304,-9.6275,-9.6278,-9.6286,-9.6826,-9.7365,-9.7365,-9.7942,-9.8519,-9.8634,-9.8634,-9.8673,-9.8788,-9.9404,-9.9942,-9.9942,-10.0481,-10.1096,-10.1096,-10.1212,-10.1096,-10.1019,-10.1019,-10.1096,-10.1212,-10.1096,-10.1212,-10.1289,-10.1289,-10.1289,-10.1289,-10.1289,-10.1327,-10.1288,-10.1288,-10.1288,-10.1287,-10.1287,-10.2019,-10.3597,-10.3097,-10.3097,-10.3597,-10.3597,-10.3597,-10.3597,-10.3597,-10.2712,-8.3398,-8.4258,-8.4258,-8.4258,-8.2969,-8.1797,-8.2187,-8.4336,-8.6484,-8.7344,-8.9531,-9.1445,-9.1953,-9.2344,-9.2617,-9.2617,-9.2617,-9.2617,-9.2617,-9.2617,-9.2617,-9.2617,-9.2617,-9.2617,-9.2617,-9.2617,-9.2617,-9.2617,-9.2617,-9.2617,-9.2617,-9.2617,-9.2617,-9.2617,-9.2617,-9.2849,-9.3337,-9.3376,-9.3571,-9.404,-9.4409,-9.4591,-9.4622,-9.4958,-9.529,-9.5704,-9.5664,-9.5845,-9.6235,-9.6195,-9.6133,-9.6105,-9.6454,-9.65,-9.6436,-9.6205,-9.6011,-9.5932,-9.6123,-9.6134,-9.6056,-9.6377,-9.6463,-9.6506,-9.69,-9.7054,-9.7133,-9.7596,-9.798,-9.825,-9.825,-9.8519,-9.8942,-9.9442,-9.9558,-9.9673,-10.0212,-10.0519,-10.0789,-10.0789,-10.1096,-10.1289,-10.1289,-10.1289,-10.1289,-10.1289,-10.1289,-10.1289,-10.1289,-10.1289,-10.1327,-10.1288,-10.1288,-10.1288,-10.1288,-10.1288,-10.1326,-10.1287,-10.3212,-10.4329,-10.4289,-10.4289,-10.4599,-10.5291,-10.5099,-10.4599,-10.3905,-10.3905,-10.3905,-10.3905,-10.3905,-10.3482,-8.4726,-8.6406,-8.7539,-8.7773,-8.8281,-8.8828,-8.9297,-8.9922,-9.0625,-9.1481,-9.1676,-9.1832,-9.2499,-9.2616,-9.2616,-9.2617,-9.2617,-9.2617,-9.2617,-9.2617,-9.2617,-9.2617,-9.2617,-9.2617,-9.2617,-9.2617,-9.2617,-9.2617,-9.2617,-9.2617,-9.2617,-9.2617,-9.2695,-9.2963,-9.2963,-9.3384,-9.4239,-9.4207,-9.451,-9.5095,-9.532,-9.5387,-9.5377,-9.5533,-9.5884,-9.6369,-9.6327,-9.6555,-9.7013,-9.6989,-9.707,-9.7224,-9.7197,-9.7296,-9.7461,-9.7518,-9.718,-9.6706,-9.6583,-9.6613,-9.6705,-9.6705,-9.6861,-9.7096,-9.7673,-9.7865,-9.798,-9.8634,-9.8981,-9.9173,-9.9173,-9.9327,-9.9635,-10.0289,-10.0404,-10.0596,-10.1212,-10.1289,-10.1289,-10.1289,-10.1289,-10.1404,-10.1597,-10.1712,-10.1712,-10.202,-10.202,-10.1904,-10.1712,-10.1404,-10.1288,-10.1326,-10.2096,-10.2711,-10.2711,-10.2711,-10.2711,-10.2711,-10.5022,-10.6409,-10.6369,-10.6369,-10.6369,-10.6369,-10.6369,-10.5792,-10.4597,-10.4597,-10.4597,-10.4597,-10.4597,-10.4597,-8.125,-8.3594,-8.7617,-8.8437,-8.8672,-8.914,-9.0859,-9.125,-9.1521,-9.2384,-9.2567,-9.2574,-9.2599,-9.2603,-9.2609,-9.2617,-9.2617,-9.2617,-9.2617,-9.2617,-9.2617,-9.2617,-9.2617,-9.2617,-9.2617,-9.2617,-9.2617,-9.2617,-9.2617,-9.2617,-9.2617,-9.2617,-9.3002,-9.381,-9.3849,-9.4239,-9.5059,-9.4991,-9.5002,-9.5002,-9.5781,-9.6137,-9.6099,-9.6737,-9.7043,-9.7082,-9.6851,-9.6809,-9.6782,-9.6764,-9.7209,-9.7982,-9.789,-9.836,-9.9101,-9.8892,-9.7851,-9.6492,-9.6429,-9.6861,-9.748,-9.748,-9.8019,-9.8711,-9.875,-9.875,-9.875,-9.8788,-9.9404,-10.0096,-10.0096,-10.0596,-10.1212,-10.1289,-10.1289,-10.1289,-10.1289,-10.1289,-10.1289,-10.1289,-10.1289,-10.1597,-10.2404,-10.2597,-10.2789,-10.3712,-10.3789,-10.3482,-10.2712,-10.1788,-10.1287,-10.1287,-10.4289,-10.6217,-10.6217,-10.6217,-10.6217,-10.6215,-10.6292,-10.6407,-10.6405,-10.6405,-10.6405,-10.6405,-10.6405,-10.6405,-10.629,-10.629,-10.629,-10.629,-10.629,-10.629,-8.4351,-8.6516,-8.832,-8.8633,-8.957,-9.0586,-9.1172,-9.1758,-9.2263,-9.2535,-8.9852,-8.7417,-8.7417,-8.7417,-8.7425,-8.7362,-9.0252,-9.2533,-9.2533,-9.2577,-9.2617,-9.2617,-9.2617,-9.2617,-9.2617,-9.2617,-9.2617,-9.2617,-9.3125,-9.3476,-9.3476,-9.4012,-9.4434,-9.4679,-9.464,-9.4979,-9.5771,-9.5742,-9.5943,-9.641,-9.6577,-9.664,-9.6591,-9.6799,-9.7185,-9.7616,-9.7557,-9.7781,-9.8185,-9.8151,-9.831,-9.851,-9.8513,-9.8667,-9.8937,-9.8863,-9.8478,-9.8053,-9.8016,-9.8172,-9.8365,-9.8365,-9.8557,-9.8904,-9.9481,-9.9635,-9.975,-10.0289,-10.0712,-10.0904,-10.0904,-10.1096,-10.1289,-10.1289,-10.1289,-10.1289,-10.1289,-10.1289,-10.152,-10.2097,-10.2212,-10.2404,-10.3289,-10.3482,-10.3712,-10.4597,-10.3905,-10.3328,-10.3405,-10.2211,-10.2209,-10.4405,-10.5674,-10.6407,-10.6407,-10.6407,-10.6367,-10.6405,-10.6405,-10.6405,-10.6405,-10.6405,-10.6405,-10.6405,-10.6405,-10.6405,-10.6405,-10.6405,-10.6405,-10.6405,-10.6405,-10.6713,-8.4245,-8.662,-8.8785,-8.9094,-9.0226,-9.1359,-9.1672,-9.214,-9.256,-9.2537,-8.8394,-8.4774,-8.4724,-8.4713,-8.4701,-8.4674,-8.9047,-9.2457,-9.2473,-9.2525,-9.2574,-9.2617,-9.2617,-9.2734,-9.3047,-9.3043,-9.3043,-9.3047,-9.3867,-9.4374,-9.4367,-9.4864,-9.5288,-9.5523,-9.5455,-9.5758,-9.6506,-9.6468,-9.6594,-9.694,-9.6837,-9.6947,-9.7199,-9.714,-9.7549,-9.8262,-9.8228,-9.8468,-9.8825,-9.8825,-9.9056,-9.925,-9.925,-9.9442,-9.9673,-9.9673,-9.9673,-9.9596,-9.9019,-9.8981,-9.925,-9.925,-9.9442,-9.9788,-10.0404,-10.0481,-10.0596,-10.1212,-10.1289,-10.1289,-10.1289,-10.152,-10.1789,-10.1789,-10.202,-10.2212,-10.2212,-10.2212,-10.2404,-10.2981,-10.3097,-10.3289,-10.4212,-10.4597,-10.4982,-10.5482,-10.4789,-10.4405,-10.4713,-10.3788,-10.4018,-10.6174,-10.6405,-10.6405,-10.6405,-10.6405,-10.6405,-10.6405,-10.6405,-10.6405,-10.6405,-10.6405,-10.6713,-10.729,-10.7098,-10.7098,-10.729,-10.729,-10.729,-10.729,-10.729,-10.7598,-8.1389,-8.438,-8.8993,-8.9867,-9.068,-9.146,-9.2319,-9.2475,-9.249,-9.2405,-8.8091,-8.426,-8.4221,-8.392,-8.3735,-8.3803,-8.8352,-9.1933,-9.2085,-9.2326,-9.2546,-9.2655,-9.2656,-9.3008,-9.3867,-9.4001,-9.403,-9.4022,-9.4804,-9.5268,-9.5254,-9.5225,-9.5562,-9.6343,-9.6203,-9.6467,-9.7186,-9.7013,-9.6902,-9.6753,-9.6692,-9.7092,-9.7942,-9.7813,-9.8205,-9.8939,-9.8903,-9.8904,-9.8942,-9.8942,-9.9404,-10.0173,-10.0173,-10.0596,-10.1289,-10.1289,-10.1289,-10.1096,-9.9481,-9.9481,-10.0173,-10.0173,-10.0712,-10.1289,-10.1289,-10.1289,-10.1404,-10.1404,-10.1404,-10.1404,-10.1404,-10.202,-10.2712,-10.2712,-10.3289,-10.3905,-10.3905,-10.3905,-10.3905,-10.3982,-10.3982,-10.4289,-10.4982,-10.5905,-10.6405,-10.6405,-10.6405,-10.6405,-10.6405,-10.6405,-10.6405,-10.6405,-10.6405,-10.6405,-10.6405,-10.6405,-10.6405,-10.6405,-10.6405,-10.6405,-10.6405,-10.6521,-10.729,-10.8909,-10.8367,-10.8406,-10.8906,-10.8906,-10.8906,-10.8906,-10.8906,-10.8906,-8.5517,-8.8018,-8.986,-9.0752,-9.1586,-9.2198,-9.2377,-9.2401,-9.2347,-9.2243,-8.5127,-7.8847,-7.8682,-7.5549,-7.3021,-7.2967,-8.0635,-8.6572,-8.6678,-9.004,-9.273,-9.3419,-9.3544,-9.3898,-9.4718,-9.5397,-9.5746,-9.5689,-9.5949,-9.6094,-9.6074,-9.6602,-9.6959,-9.7108,-9.6954,-9.6866,-9.6889,-9.6676,-9.6834,-9.7461,-9.7318,-9.7745,-9.8554,-9.8555,-9.898,-9.9788,-9.975,-10.0096,-10.0712,-10.0712,-10.0789,-10.1019,-10.1019,-10.1096,-10.1289,-10.1289,-10.1289,-10.1212,-10.0789,-10.0789,-10.1019,-10.1019,-10.1096,-10.1289,-10.1289,-10.1789,-10.2289,-10.2289,-10.2712,-10.3212,-10.3212,-10.3405,-10.3597,-10.3597,-10.3712,-10.3905,-10.3905,-10.3905,-10.4097,-10.4713,-10.529,-10.579,-10.602,-10.629,-10.6405,-10.6405,-10.6364,-10.6402,-10.6405,-10.6405,-10.6405,-10.6405,-10.6405,-10.6405,-10.6405,-10.6405,-10.6405,-10.6402,-10.6402,-10.6402,-10.6402,-10.7594,-10.8482,-10.8906,-10.879,-10.879,-10.8906,-10.8906,-10.8906,-10.8906,-10.8906,-10.9213,-8.7741,-8.9579,-9.0625,-9.1132,-9.1778,-9.1747,-8.9424,-8.8826,-8.8109,-8.5777,-7.8922,-7.3315,-7.3161,-7.0835,-6.9652,-7.1956,-7.9181,-8.5336,-8.7726,-9.0979,-9.324,-9.3732,-9.4146,-9.4723,-9.5543,-9.604,-9.6419,-9.6771,-9.6889,-9.6887,-9.685,-9.7216,-9.7343,-9.7221,-9.7052,-9.703,-9.7194,-9.7003,-9.7323,-9.817,-9.8133,-9.8519,-9.9365,-9.9365,-9.9827,-10.0596,0.0,-10.0904,-10.1289,-10.1289,-10.1289,-10.1289,-10.1289,-10.1289,-10.1289,-10.1712,-10.1904,-10.1904,-10.2289,-10.2404,-10.2404,-10.202,-10.1904,-10.1904,-10.2289,-10.2789,-10.3212,-10.3212,-10.3482,-10.3905,-10.3905,-10.4212,-10.4405,-10.4405,-10.4713,-10.4982,-10.4982,-10.4982,-10.5097,-10.5597,-10.6097,-10.6521,-10.6905,-10.7021,-10.7021,-10.7098,-10.671,-10.6402,-10.6402,-10.6402,-10.6402,-10.6402,-10.6402,-10.6402,-10.6402,-10.6402,-10.6402,-10.6402,-10.7829,-10.8598,-10.8598,-10.9483,-11.0025,-10.9983,-10.9675,-10.9713,-11.0021,-11.0021,-11.0021,-11.0021,-11.0021,-11.0291,-8.8791,-9.0023,-9.1241,-9.1314,-9.1731,-9.0768,-8.5616,-8.432,-8.2721,-7.7522,-7.2365,-6.878,-6.8696,-6.8712,-6.9976,-7.3918,-7.9502,-8.5043,-8.9846,-9.182,-9.308,-9.4022,-9.4732,-9.5479,-9.6351,-9.6312,-9.6545,-9.7284,-9.742,-9.7437,-9.7343,-9.7299,-9.7207,-9.7109,-9.7003,-9.7194,-9.7822,-9.771,-9.8096,-9.8981,-9.8981,-9.9404,-10.0289,-10.0289,-10.0596,-10.1289,-10.1289,-10.1289,-10.1289,-10.1289,-10.1289,-10.1289,-10.1404,-10.152,-10.1597,-10.252,-10.2789,-10.2904,-10.3597,-10.3905,-10.3789,-10.2981,-10.2789,-10.2904,-10.3712,-10.3982,-10.4097,-10.4097,-10.4097,-10.4212,-10.4212,-10.4713,-10.529,-10.529,-10.579,-10.6405,-10.6405,-10.6521,-10.6597,-10.6597,-10.6713,-10.7021,-10.7713,-10.7905,-10.7905,-10.8136,-10.7325,-10.6707,-10.6399,-10.6784,-10.7095,-10.7095,-10.7095,-10.7095,-10.7095,-10.7095,-10.7133,-10.7133,-10.9909,-11.1529,-11.1529,-11.1529,-11.1487,-11.1487,-11.0791,-11.0714,-11.1522,-11.1522,-11.1522,-11.1522,-11.1522,-11.1522,-8.9534,-9.0459,-9.1359,-9.202,-9.2169,-9.0752,-8.5525,-8.4156,-8.2583,-7.7427,-7.2258,-6.8696,-6.8559,-6.8645,-6.7613,-6.4328,-7.1801,-7.8676,-8.0467,-8.4468,-8.9324,-9.5016,-9.5758,-9.6135,-9.6952,-9.6973,-9.6966,-9.7076,-9.7004,-9.7004,-9.7143,-9.6979,-9.7141,-9.7665,-9.7573,-9.7893,-9.8595,-9.8596,-9.9019,-9.9865,-9.9865,-10.0289,-10.1096,-10.1096,-10.1212,-10.1289,-10.1289,0.0,-10.1289,-10.1289,-10.1289,-10.1404,-10.2097,-10.2404,-10.252,-10.3405,-10.3712,-10.3712,-10.3789,-10.3905,-10.3905,-10.3712,-10.3712,-10.3712,-10.3905,-10.4405,-10.4905,-10.4905,-10.5405,-10.602,-10.602,-10.6097,-10.6213,-10.6213,-10.629,-10.6405,-10.6405,-10.7021,-10.7521,-10.7521,-10.7982,-10.8482,-10.8713,-10.8713,-10.8598,-10.8213,-10.8287,-10.8017,-10.663,-10.8906,-11.0602,-11.0602,-11.0602,-11.0602,-11.0602,-11.0602,-11.0602,-11.0602,-11.1218,-11.1487,-11.1483,-11.1483,-11.1483,-11.1483,-11.1406,-11.1291,-11.1522,-11.1522,-11.1522,-11.1522,-11.1522,-11.1522,-9.0342,-9.1226,-9.1944,-9.2276,-9.221,-8.9973,-8.2006,-8.0043,-7.7666,-6.9832,-6.6283,-6.454,-6.4508,-6.6761,-6.7862,-6.5489,-7.1995,-7.8504,-8.1805,-8.5049,-8.9301,-9.5279,-9.6253,-9.6594,-9.6959,-9.6915,-9.6809,-9.6782,-9.6676,-9.6676,-9.6809,-9.7101,-9.76,-9.8352,-9.8284,-9.8634,-9.9481,-9.9481,-9.9904,-10.0712,-10.0712,-10.0904,-10.1289,-10.1289,-10.1289,-10.1289,-10.1289,-10.1289,-10.1289,-10.1789,-10.202,-10.2097,-10.2904,-10.3289,-10.3405,-10.4212,-10.4482,-10.4597,-10.4982,-10.5213,-10.5213,-10.5213,-10.4905,-10.4597,-10.5097,-10.5482,-10.579,-10.579,-10.6097,-10.6405,-10.6405,-10.6405,-10.6405,-10.6405,-10.6713,-10.7213,-10.7598,-10.8021,-10.829,-10.829,-10.8598,-10.8983,-10.9483,-10.9598,-10.9598,-10.9829,-11.0098,-10.9979,-10.921,-11.0521,-11.1526,-11.1526,-11.1526,-11.1526,-11.1526,-11.1526,-11.1526,-11.1483,-11.1483,-11.1483,-11.1522,-11.1522,-11.1522,-11.1522,-11.1522,-11.1522,-11.1522,-11.1522,-11.1522,-11.1522,-11.1522,-11.1522,-9.0617,-9.1826,-9.249,-9.2331,-9.2171,-8.9271,-7.8796,-7.6262,-7.3201,-6.2921,-6.0781,-6.0781,-6.0781,-6.5057,-6.8281,-6.731,-7.2287,-7.8237,-8.3719,-8.571,-8.8944,-9.5356,-9.6552,-9.6821,-9.6725,-9.6615,-9.6558,-9.6558,-9.6617,-9.666,-9.6796,-9.7508,-9.8323,-9.9131,-9.9095,-9.9481,-10.0289,-10.0404,-10.0712,-10.1289,-10.1289,-10.1289,-10.1289,-10.1289,-10.1289,-10.1289,-10.1289,-10.1404,-10.1597,-10.2289,-10.2712,-10.2981,-10.3789,-10.4212,-10.4289,-10.5097,-10.5405,-10.5482,-10.6213,-10.6405,-10.6405,-10.6405,-10.5905,-10.5482,-10.6213,-10.6405,-10.6405,-10.6405,-10.6405,-10.6405,-10.6597,-10.6713,-10.6713,-10.6905,-10.7521,-10.8098,-10.879,-10.8983,-10.9213,-10.9213,-10.929,-10.9713,-11.0406,-11.0483,-11.0714,-11.1406,-11.1522,-11.1522,-11.1522,-11.1522,-11.1522,-11.1522,-11.1522,-11.1522,-11.1522,-11.1522,-11.1522,-11.1522,-11.1522,-11.1522,-11.1522,-11.1522,-11.1522,-11.1522,-11.1522,-11.1522,-11.1522,-11.1522,-11.1522,-11.1522,-11.1522,-11.1522,-8.9543,-9.1798,-9.2479,-9.2327,-9.213,-8.9271,-7.8834,-7.6301,-7.3201,-6.2921,-6.0781,-6.0781,-6.0781,-6.5009,-6.7055,-6.253,-6.6864,-7.2929,-7.9057,-8.0611,-8.5002,-9.548,-9.6735,-9.6661,-9.6525,-9.6459,-9.6429,-9.6429,-9.7015,-9.7402,-9.7402,-9.8249,-9.9096,-9.9981,-9.9981,-10.0404,-10.1212,-10.1212,-10.1212,-10.1289,-10.1289,-10.1289,-10.1289,-10.1289,-10.1289,-10.1289,-10.1289,-10.1712,0.0,-10.2597,-10.3097,-10.3905,-10.4713,-10.4982,-10.5097,-10.602,-10.629,-10.629,-10.6405,-10.6405,-10.6405,-10.6405,-10.629,-10.629,-10.6405,-10.6405,-10.6405,-10.6405,-10.6405,-10.6597,-10.7405,-10.7598,-10.779,-10.8482,-10.8713,-10.879,-10.8906,-10.9483,-11.0098,-11.0098,-11.0714,-11.1291,-11.1406,-11.1406,-11.1406,-11.1522,-11.1522,-11.1522,-11.1522,-11.1522,-11.1522,-11.1522,-11.1522,-11.1522,-11.1522,-11.1522,-11.1522,-11.1522,-11.1522,-11.1522,-11.1522,-11.1522,-11.1522,-11.1522,-11.1522,-11.1522,-11.1522,-11.1522,-11.1522,-11.1522,-11.1522,-11.1522,-9.001,-9.2132,-9.2471,-9.239,-9.223,-8.9314,-7.8882,-7.6335,-7.3215,-6.2921,-6.0781,-6.0781,-6.0781,-6.5009,-6.7008,-6.2506,-6.6861,-7.2943,-7.9055,-8.06,-8.4984,-9.5468,-9.6622,-9.6531,-9.6394,-9.6361,-9.6553,-9.7054,-9.7825,-9.8519,-9.9019,-9.9365,-9.9942,-10.0789,-10.0789,-10.1019,-10.1289,-10.1289,-10.1289,-10.1289,-10.1289,-10.1289,-10.1289,-10.1289,-10.1597,-10.2097,-10.2097,-10.2597,0.0,-10.3905,-10.4289,-10.4713,-10.5597,-10.5905,-10.5905,-10.629,-10.6405,-10.6405,-10.6405,-10.6405,-10.6405,-10.6405,-10.6405,-10.6405,-10.6405,-10.6405,-10.6521,-10.7021,-10.7213,-10.7405,-10.8213,-10.8406,-10.8598,-10.9483,-10.9713,-10.979,-11.0406,-11.0714,-11.0983,-11.0983,-11.1291,-11.1522,-11.1522,-11.1522,-11.1522,-11.1522,-11.1522,-11.1522,-11.1522,-11.1522,-11.1522,-11.1522,-11.1522,-11.1522,-11.1522,-11.1522,-11.1522,-11.1522,-11.1522,-11.1522,-11.1522,-11.1522,-11.1522,-11.1522,-11.1522,-11.1522,-11.1522,-11.1522,-11.1522,-11.1522,-11.1522,-11.1522,-8.9947,-9.238,-9.2471,-9.244,-9.113,-8.7522,-7.8534,-7.5182,-7.1453,-6.2637,-6.0781,-6.0781,-6.0781,-6.3753,-6.5341,-6.2612,-6.7255,-7.2793,-7.7373,-8.0019,-8.4147,-9.1252,-9.3392,-9.4222,-9.4093,-9.5403,-9.6634,-9.7442,-9.8288,-9.9173,-10.0096,-10.0289,-10.0712,-10.1289,-10.1289,-10.1289,-10.1289,-10.1289,-10.1289,-10.1289,-10.1289,-10.1289,-10.1289,-10.1597,-10.202,-10.2597,-10.2904,-10.3482,0.0,-10.4905,-10.529,-10.5482,-10.6213,-10.6405,-10.6405,-10.6405,-10.6405,-10.6405,-10.6405,-10.6405,-10.6405,-10.6713,-10.679,-10.679,-10.7098,-10.7021,-10.7021,-10.779,-10.8213,-10.8598,-10.9098,-10.9483,-10.979,-11.0406,-11.0598,-11.0791,-11.1406,-11.1522,-11.1522,-11.1522,-11.1522,-11.1522,-11.1522,-11.1522,-11.1522,-11.1522,-11.1522,-11.1522,-11.1522,-11.1522,-11.1522,-11.1522,-11.1522,-11.1522,-11.1522,-11.1522,-11.1522,-11.1522,-11.1522,-11.1522,-11.1522,-11.1522,-11.1522,-11.1522,-11.1522,-11.1522,-11.1522,-11.1522,-11.1522,-11.1522,-11.1522,-11.1522,-8.892,-9.2366,-9.2479,-9.2405,-8.8452,-8.3143,-7.772,-7.2435,-6.7209,-6.1905,-6.0781,-6.0781,-6.0781,-6.0819,-6.1151,-6.1989,-6.7113,-7.1364,-7.2438,-7.7692,-8.1412,-8.1528,-8.6008,-8.9038,-8.8887,-9.3361,-9.6634,-9.7442,-9.8288,-9.9173,-10.0096,-10.0904,-10.1289,-10.1289,-10.1289,-10.1289,-10.1289,-10.1289,-10.1289,-10.1289,-10.1289,-10.1289,-10.1289,-10.2212,-10.2597,-10.2597,-10.3482,-10.4289,0.0,-10.5097,-10.5597,-10.6405,-10.6405,-10.6405,-10.6405,-10.6405,-10.6405,-10.6405,-10.6405,-10.6405,-10.6521,-10.7405,-10.7713,-10.779,-10.8598,-10.829,-10.7905,-10.8713,-10.9483,-11.0214,-11.0214,-11.0791,-11.1522,-11.1522,-11.1522,-11.1522,-11.1522,-11.1522,-11.1522,-11.1522,-11.1522,-11.1522,-11.1522,-11.1522,-11.1522,-11.1522,-11.1522,-11.1522,-11.1522,-11.1522,-11.1522,-11.1522,-11.1522,-11.1522,-11.1522,-11.1522,-11.1522,-11.1522,-11.1522,-11.1522,-11.1522,-11.1522,-11.1522,-11.1522,-11.1522,-11.1522,-11.1522,-11.1522,-11.1522,-11.1522,-11.1522,-11.1522,-7.9545,-8.1844,-8.1967,-8.1956,-8.0596,-7.7831,-7.2517,-6.9941,-6.7155,-6.1905,-6.0781,-6.0781,-6.0781,-6.1281,-6.3089,-6.7423,-7.0298,-7.3498,-7.7936,-8.0304,-8.1538,-8.1553,-8.5964,-9.0334,-9.372,-9.6009,-9.7593,-9.8327,-9.9211,-9.9981,-10.0904,-10.1212,-10.1289,-10.1289,-10.1289,-10.1289,-10.1289,-10.1289,-10.1289,-10.1289,-10.1289,-10.1597,-10.2212,-10.252,-10.3212,-10.4289,-10.4597,-10.5213,-10.602,-10.602,-10.6213,-10.6405,-10.6405,-10.6405,-10.6405,-10.6405,-10.6405,-10.6405,-10.6405,-10.679,-10.729,-10.7598,-10.8098,-10.8713,-10.9483,-10.9213,-10.8713,-10.9483,-11.0406,-11.1098,-11.1098,-11.1291,-11.1522,-11.1522,-11.1522,-11.1522,-11.1522,-11.1522,-11.1522,-11.1522,-11.1522,-11.1522,-11.1522,-11.1522,-11.1522,-11.1522,-11.1522,-11.1522,-11.1522,-11.1522,-11.1522,-11.1522,-11.1522,-11.1522,-11.1522,-11.1522,-11.1522,-11.1522,-11.1522,-11.1522,-11.1522,-11.1522,-11.1522,-11.1522,-11.1522,-11.1522,-11.1522,-11.1522,-11.1522,-11.1522,-11.1522,-11.1522,-7.4781,-7.6999,-7.7092,-7.7121,-7.5494,-7.3052,-6.9694,-6.7348,-6.4925,-6.1527,-6.2367,-6.3113,-6.1166,-6.3089,-6.5628,-6.7731,-7.2135,-7.5362,-7.5654,-7.9122,-8.1613,-8.1652,-8.4326,-8.8914,-9.5863,-9.7269,-9.8012,-9.8786,-9.967,-10.0518,-10.1404,-10.1404,-10.1366,-10.1366,-10.1289,-10.1289,-10.1289,-10.1289,-10.1289,-10.1289,-10.1597,-10.2097,-10.2597,-10.3289,-10.4097,-10.5097,-10.5405,-10.5905,0.0,-10.6405,-10.6405,-10.6405,-10.6405,-10.6405,-10.6405,-10.6405,-10.6597,-10.6905,-10.6905,-10.7405,-10.8213,-10.8482,-10.9213,-10.9983,-11.0483,-11.0291,-11.0021,-11.0483,-11.1098,-11.1522,-11.1522,-11.1522,-11.1522,-11.1522,-11.1522,-11.1522,-11.1522,-11.1522,-11.1522,-11.1522,-11.1522,-11.1522,-11.1522,-11.1522,-11.1522,-11.1522,-11.1522,-11.1522,-11.1522,-11.1522,-11.1522,-11.1522,-11.1522,-11.1522,-11.1522,-11.1522,-11.1522,-11.1522,-11.1522,-11.1522,-11.1522,-11.1522,-11.1522,-11.1522,-11.1522,-11.1522,-11.1522,-11.1522,-11.1522,-11.1522,-11.1522,-11.1522,0.0,-7.5869,-7.601,-7.6014,-7.2292,-6.8612,-6.8486,-6.4682,0.0,-6.0938,-6.498,-6.6959,-6.1766,-6.573,-6.8501,-6.4571,-7.3035,-7.7021,-6.8123,-7.5081,-8.1387,-8.2262,-8.22,-8.5913,-9.5756,-9.7407,-9.8228,-9.8934,-9.9853,-10.0809,-10.162,-10.1591,-10.1516,-10.1479,-10.1404,-10.1289,-10.1289,-10.1289,-10.1289,-10.1404,-10.2212,-10.2712,-10.2789,-10.4405,-10.5097,0.0,-10.602,-10.6405,-10.6405,-10.6405,-10.6405,-10.6405,-10.6405,-10.6405,-10.6405,-10.6521,-10.7021,-10.7713,-10.779,-10.829,-10.9098,-10.9983,-11.0791,-11.1522,-11.1522,-11.1522,-11.1522,-11.1522,-11.1522,-11.1522,-11.1522,-11.1522,-11.1522,-11.1522,-11.1522,-11.1522,-11.1522,-11.1522,-11.1522,-11.1522,-11.1522,-11.1522,-11.1522,-11.1522,-11.1522,-11.1522,-11.1522,-11.1522,-11.1522,-11.1522,-11.1522,-11.1522,-11.1522,-11.1522,-11.1522,-11.1522,-11.1522,-11.1522,-11.1522,-11.1522,-11.1522,-11.1522,-11.1522,-11.1522,-11.1522,-11.1522,-11.1522,-11.1522,-11.1522,-11.1522,-11.1522,-11.1522,-6.452,0.0,-6.5308,-6.5316,-6.4336,-6.3358,0.0,-6.2185,-6.1213,-6.106,-6.5136,-6.71,-6.1902,-6.6314,-7.0464,-6.9509,-7.6026,-7.9106,-7.3045,-7.4421,-7.9038,-8.6996,-8.7776,-9.0375,-9.7185,-9.8574,-9.9336,-10.0125,-10.0999,-10.1611,-10.1804,-10.1819,-10.1688,-10.1588,-10.1479,-10.1404,-10.1289,-10.1289,-10.1597,-10.2289,-10.252,-10.3289,-10.4482,-10.4905,-10.5482,-10.6097,-10.629,-10.6405,-10.6405,-10.6405,-10.6405,-10.6405,-10.6405,-10.6405,-10.6521,-10.7098,-10.7521,-10.779,-10.8406,-10.9213,-10.9983,-11.0906,-11.1291,-11.1522,-11.1522,-11.1522,-11.1522,-11.1522,-11.1522,-11.1522,-11.1522,-11.1522,-11.1522,-11.1522,-11.1522,-11.1522,-11.1522,-11.1522,-11.1522,-11.1522,-11.1522,-11.1522,-11.1522,-11.1522,-11.1522,-11.1522,-11.1522,-11.1522,-11.1522,-11.1522,-11.1522,-11.1522,-11.1522,-11.1522,-11.1522,-11.1522,-11.1522,-11.1522,-11.1522,-11.1522,-11.1522,-11.1522,-11.1522,-11.1522,-11.1522,-11.1522,-11.1522,-11.1522,-11.1522,-11.1522,-11.1522,-11.1522,-6.1634,-6.1658,-6.1705,-6.1697,-6.1655,-6.1627,-6.1534,-6.1432,-6.1343,-6.1213,-6.5218,-6.7328,-6.251,-6.6857,-7.059,-6.8702,-7.3898,-7.8067,-7.775,-7.5819,-7.7384,-8.5312,-8.6499,-8.8789,-9.4186,-9.5843,-9.7677,-10.0402,-10.1491,-10.2087,-10.2087,-10.2007,-10.1903,-10.171,-10.1585,-10.1518,-10.1289,-10.1712,-10.2097,-10.2597,-10.3405,-10.4212,-10.5097,-10.5482,-10.602,-10.6405,-10.6405,-10.6405,-10.6405,-10.6405,-10.6405,-10.6405,-10.6405,-10.6597,-10.7098,-10.7521,-10.8213,-10.8906,-10.929,-11.0098,-11.0906,-11.1291,-11.1522,-11.1522,-11.1522,-11.1522,-11.1522,-11.1522,-11.1522,-11.1522,-11.1522,-11.1522,-11.1522,-11.1522,-11.1522,-11.1522,-11.1522,-11.1522,-11.1522,-11.1522,-11.1522,-11.1522,-11.1522,-11.1522,-11.1522,-11.1522,-11.1522,-11.1522,-11.1522,-11.1522,-11.1522,-11.1522,-11.1522,-11.1522,-11.1522,-11.1522,-11.1522,-11.1522,-11.1522,-11.1522,-11.1522,-11.1522,-11.1522,-11.1522,-11.1522,-11.1522,-11.1522,-11.1522,-11.1522,-11.1522,-11.1522,-11.1522,-6.1686,-6.168,-6.1697,-6.1701,-6.1704,-6.169,-6.1647,-6.1543,-6.1478,-6.1355,-6.5498,-6.7765,-6.3275,-6.7425,-7.039,-6.6904,-7.1427,-7.752,-8.3615,-8.0085,-7.875,-8.3878,-8.5142,-8.7288,-9.1601,-9.3464,-9.6283,-10.0711,-10.189,-10.2381,-10.2401,-10.2178,-10.2113,-10.1884,-10.1677,-10.1591,-10.152,-10.2212,-10.2712,-10.2981,-10.4405,-10.5213,-10.529,-10.6097,-10.6405,-10.6405,0.0,0.0,-10.6405,-10.6405,-10.6405,-10.6405,-10.6521,-10.7021,-10.7713,-10.7982,-10.8983,-11.0214,-11.0406,-11.0906,-11.1522,-11.1522,-11.1522,-11.1522,-11.1522,-11.1522,-11.1522,-11.1522,-11.1522,-11.1522,-11.1522,-11.1522,-11.1522,-11.1522,-11.1522,-11.1522,-11.1522,-11.1522,-11.1522,-11.1522,-11.1522,-11.1522,-11.1522,-11.1522,-11.1522,-11.1522,-11.1522,-11.1522,-11.1522,-11.1522,-11.1522,-11.1522,-11.1522,-11.1522,-11.1522,-11.1522,-11.1522,-11.1522,-11.1522,-11.1522,-11.1522,-11.1522,-11.1522,-11.1522,-11.1522,-11.1522,-11.1522,-11.1522,-11.1598,-11.1714,-11.1714,-11.1791,-6.1686,-6.171,-6.1681,-6.1716,-6.1718,-6.1716,-6.1709,-6.1612,-6.1549,-6.1471,-6.6108,-6.8639,-6.3573,-6.8122,-7.2477,-7.1952,-7.6999,-8.4327,-9.3964,-9.0803,-8.9437,-9.4627,-9.5939,-9.6965,-9.8423,-9.9475,-10.0704,-10.2207,-10.2495,-10.2616,-10.262,-10.2499,-10.2285,-10.2087,-10.1903,-10.1997,-10.2482,-10.2597,-10.3289,-10.4713,-10.4982,-10.5482,-10.6213,-10.629,-10.6405,-10.6405,0.0,-10.6405,-10.6405,-10.6405,-10.6405,-10.6521,-10.7213,-10.7598,-10.7905,-10.929,-10.9983,-11.0291,-11.1021,-11.1406,-11.1522,-11.1522,-11.1522,-11.1522,-11.1522,-11.1522,-11.1522,-11.1522,-11.1522,-11.1522,-11.1522,-11.1522,-11.1522,-11.1522,-11.1522,-11.1522,-11.1522,-11.1522,-11.1522,-11.1522,-11.1522,-11.1522,-11.1522,-11.1522,-11.1522,-11.1522,-11.1522,-11.1522,-11.1522,-11.1522,-11.1522,-11.1522,-11.1522,-11.1522,-11.1522,-11.1522,-11.1522,-11.1522,-11.1522,-11.1522,-11.1522,-11.1522,-11.1522,-11.1522,-11.1522,-11.1522,-11.1522,-11.1522,-11.1906,-11.2522,-11.2522,-11.2906,-6.1711,-6.1709,-6.1713,-6.1718,-6.1719,-6.1718,-6.1717,-6.1674,-6.1785,-6.2201,-6.4476,-6.5925,-6.448,-6.9039,-7.4155,-7.7541,-8.0407,-8.4915,-9.2475,-9.146,-9.0984,-9.3825,-9.4841,-9.5666,-9.6511,-9.7369,-9.9226,-10.2406,-10.2712,-10.2782,-10.2803,-10.2694,-10.2484,-10.23,-10.2472,-10.2902,-10.3476,-10.3791,-10.4289,-10.5097,-10.5597,-10.602,-10.6405,-10.6405,-10.6405,-10.6405,0.0,-10.6405,-10.6405,-10.6405,-10.6713,-10.7098,-10.7521,-10.829,-10.9213,-11.0406,-11.0906,-11.0983,-11.1406,-11.1522,-11.1522,-11.1522,-11.1522,-11.1522,-11.1522,-11.1522,-11.1522,-11.1522,-11.1522,-11.1522,-11.1522,-11.1522,-11.1522,-11.1522,-11.1522,-11.1522,-11.1522,-11.1522,-11.1522,-11.1522,-11.1522,-11.1522,-11.1522,-11.1522,-11.1522,-11.1522,-11.1522,-11.1522,-11.1522,-11.1522,-11.1522,-11.1522,-11.1522,-11.1522,-11.1522,-11.1522,-11.1522,-11.1522,-11.1522,-11.1522,-11.1522,-11.1522,-11.1522,-11.1522,-11.1906,-11.2099,-11.2099,-11.2599,-11.3022,-11.3407,-11.3407,-11.3599,-6.1719,-6.1719,-6.1719,-6.1719,-6.1719,-6.1719,-6.1719,-6.1875,-6.2187,-6.2848,-6.3266,-6.395,-6.5295,-7.0895,-7.6872,-8.1524,-8.4323,-8.7297,-9.1263,-9.1999,-9.234,-9.2958,-9.3942,-9.4812,-9.5483,-9.6329,-9.8474,-10.2398,-10.2802,-10.281,-10.28,-10.2803,-10.2605,-10.2513,-10.3002,-10.3598,-10.43,-10.4905,-10.5293,-10.5405,-10.6097,-10.6405,-10.6405,-10.6405,-10.6405,-10.6405,-10.6405,-10.6405,-10.6405,-10.6597,-10.7098,-10.7713,-10.8098,-10.9213,-11.0598,-11.1291,-11.1522,-11.1522,-11.1522,-11.1522,-11.1522,-11.1522,-11.1522,-11.1522,-11.1522,-11.1522,-11.1522,-11.1522,-11.1522,-11.1522,-11.1522,-11.1522,-11.1522,-11.1522,-11.1522,-11.1522,-11.1522,-11.1522,-11.1522,-11.1522,-11.1522,-11.1522,-11.1522,-11.1522,-11.1522,-11.1522,-11.1522,-11.1522,-11.1522,-11.1522,-11.1522,-11.1522,-11.1522,-11.1522,-11.1478,-11.1478,-11.1478,-11.1478,-11.1522,-11.1522,-11.1522,-11.1906,-11.1983,-11.1906,-11.2599,-11.3022,-11.3022,-11.3714,-11.4099,-11.4291,-11.4291,-11.4407,-6.1719,-6.1719,-6.1719,-6.1719,-6.1719,-6.1719,-6.1719,-6.2344,-6.293,-6.3008,-6.4293,-6.5459,-6.5573,-7.4388,-8.1798,-8.2232,-9.0346,-9.6718,-9.7109,-9.7846,-9.8383,-9.8418,-9.9921,-10.0993,-10.0985,-10.1805,-10.2507,-10.2898,-10.2906,-10.2894,-10.289,-10.2803,-10.2679,-10.2595,-10.3219,-10.391,-10.4497,-10.5112,-10.5829,-10.629,-10.6405,-10.6405,-10.6405,-10.6405,-10.6405,-10.6405,-10.6405,-10.6405,-10.6521,-10.729,-10.7598,-10.7905,-10.9406,-11.0598,-11.1406,-11.1522,-11.1522,-11.1522,-11.1522,-11.1522,-11.1522,-11.1522,-11.1522,-11.1522,-11.1522,-11.1522,-11.1522,-11.1522,-11.1522,-11.1522,-11.1522,-11.1522,-11.1522,-11.1522,-11.1522,-11.1522,-11.1522,-11.1522,-11.1522,-11.1522,-11.1522,-11.1522,-11.1522,-11.1522,-11.1522,-11.1522,-11.1522,-11.1522,-11.1522,-11.1522,-11.1522,-11.1478,-11.1478,-11.1517,-11.1473,-11.1473,-11.1473,-11.1473,-11.1478,-11.1522,-11.1478,-11.2983,-11.3599,-11.2978,-11.3599,-11.3907,-11.3907,-11.3984,-11.4407,-11.5215,-11.5215,-11.5599,-6.1719,-6.1719,-6.1719,-6.1719,-6.2109,-6.3359,-6.6562,-6.7539,-6.9023,-7.332,-7.2148,-7.0545,-7.1092,-7.7263,-8.3354,-8.6557,-9.3046,-9.789,-9.8437,-9.8788,-9.9412,-10.0505,-10.1205,-10.1785,-10.2392,-10.2686,-10.2906,-10.2906,-10.2905,-10.2886,-10.289,-10.2806,-10.2816,-10.2714,-10.3815,-10.4494,-10.4725,-10.5797,-10.6498,-10.6712,-10.6488,-10.6409,-10.6405,-10.6405,-10.6405,-10.6405,-10.6405,-10.6405,-10.6521,-10.729,-10.7982,-10.8598,-11.0291,-11.1214,-11.1522,-11.1522,-11.1522,-11.1522,-11.1522,-11.1522,-11.1522,-11.1522,-11.1522,-11.1522,-11.1522,-11.1522,-11.1522,-11.1522,-11.1522,-11.1522,-11.1522,-11.1522,-11.1522,-11.1522,-11.1522,-11.1522,-11.1522,-11.1522,-11.1522,-11.1522,-11.1522,-11.1522,-11.1522,-11.1522,-11.1714,-11.2214,-11.2214,-11.2291,-11.2522,-11.1901,-11.1517,-11.1517,-11.3407,-11.4604,-11.4599,-11.4599,-11.4599,-11.4599,-11.267,-11.1517,-11.1517,-11.4099,-11.5105,-11.4176,-11.4407,-11.4599,-11.4791,-11.5291,-11.5676,-11.5984,-11.5984,-11.6176,-6.1719,-6.1719,-6.1758,-6.2031,-6.2578,-6.4922,-7.2265,-7.2695,-7.332,-7.9687,-7.8398,-7.582,-7.4805,-7.8828,-8.3984,-8.914,-9.2969,-9.6133,-9.8633,-9.9258,-9.9961,-10.1406,-10.1797,-10.2187,-10.2806,-10.291,-10.29,-10.29,-10.2886,-10.289,-10.289,-10.2888,-10.291,-10.3101,-10.4389,-10.5083,-10.5282,-10.66,-10.7115,-10.7006,-10.6817,-10.6603,-10.6407,-10.6405,-10.6405,-10.6405,-10.6405,-10.6405,-10.6521,-10.7598,-10.8713,-10.979,-11.1021,-11.1522,-11.1522,-11.1522,-11.1522,-11.1522,-11.1522,-11.1522,-11.1522,-11.1522,-11.1522,-11.1522,-11.1522,-11.1522,-11.1522,-11.1522,-11.1522,-11.1522,-11.1522,-11.1522,-11.1522,-11.1522,-11.1522,-11.1522,-11.1522,-11.1522,-11.1522,-11.1522,-11.1522,-11.1598,-11.1791,-11.1906,-11.2214,-11.2983,-11.3099,-11.3214,-11.3599,-11.2786,-11.2517,-11.2978,-11.5099,-11.649,-11.649,-11.649,-11.649,-11.649,-11.433,-11.3093,-11.3093,-11.5297,-11.6105,-11.5368,-11.5291,-11.5407,-11.5676,-11.6176,-11.6484,-11.6484,-11.6484,-11.6484,-6.1719,-6.1758,-6.1992,-6.2851,-6.3086,-6.625,-7.832,-7.707,-7.4844,-8.0039,-8.1758,-8.0781,-7.5625,-7.8906,-8.4062,-8.9179,-9.0039,-9.2187,-9.8164,-9.9765,-10.0586,-10.1484,-10.2383,-10.289,-10.289,-10.289,-10.289,-10.289,-10.289,-10.289,-10.289,-10.289,-10.3314,-10.4085,-10.4897,-10.569,-10.6391,-10.7204,-10.7516,-10.7197,-10.7096,-10.6774,-10.6488,-10.6407,-10.6405,-10.6405,-10.6405,-10.6405,-10.6521,-10.8213,-10.9906,-11.1522,-11.1522,-11.1522,-11.1522,-11.1522,-11.1522,-11.1522,-11.1522,-11.1522,-11.1522,-11.1522,-11.1522,-11.1522,-11.1522,-11.1522,-11.1522,-11.1522,-11.1522,-11.1522,-11.1522,-11.1522,-11.1522,-11.1522,-11.1522,-11.1522,-11.1522,-11.1522,-11.1522,-11.1522,-11.1522,-11.1791,-11.2599,-11.2714,-11.3022,-11.3907,-11.3984,-11.4176,-11.4676,-11.4407,-11.4676,-11.6298,-11.6484,-11.6484,-11.6484,-11.6484,-11.6484,-11.6484,-11.6484,-11.6484,-11.649,-11.649,-11.6529,-11.6484,-11.6484,-11.6484,-11.6484,-11.6484,-11.6484,-11.6484,-11.6484,-11.6484,-6.1719,-6.4805,-6.8086,-6.8359,-6.9336,-7.3086,-8.3945,-8.2422,-8.0351,-8.6133,-8.7539,-8.6133,-8.0976,-8.4258,-8.8203,-8.9765,-9.3554,-9.7187,-9.957,-10.0703,-10.1484,-10.2383,-10.2695,-10.289,-10.289,-10.289,-10.289,-10.289,-10.289,-10.289,-10.289,-10.289,-10.3281,-10.4095,-10.4984,-10.579,-10.6597,-10.7415,-10.7714,-10.7516,-10.7394,-10.7125,-10.6676,-10.6488,-10.6487,-10.6526,-10.6407,-10.6713,-10.7405,-10.9098,-11.0483,-11.1522,-11.1522,-11.1522,-11.1522,-11.1522,-11.1522,-11.1522,-11.1522,-11.1522,-11.1522,-11.1522,-11.1522,-11.1522,-11.1522,-11.1522,-11.1522,-11.1522,-11.1522,-11.1522,-11.1522,-11.1522,-11.1522,-11.1522,-11.1522,-11.1522,-11.1522,-11.1522,-11.1522,-11.1522,-11.2022,-11.2406,-11.2714,-11.3214,-11.3907,-11.4791,-11.4907,-11.5176,-11.5907,-11.5907,-11.5907,-11.6369,-11.6484,-11.6484,-11.6484,-11.6484,-11.6484,-11.6484,-11.6484,-11.6484,-11.6484,-11.6484,-11.6484,-11.6484,-11.6484,-11.6484,-11.6484,-11.6484,-11.6484,-11.6484,-11.6484,-11.6484,-6.2226,-6.6601,-7.1289,-7.164,-7.2539,-7.5547,-8.4179,-8.6914,-8.8086,-8.9687,-9.164,-9.1484,-8.6328,-8.789,-9.0781,-9.3203,-9.4922,-9.707,-10.039,-10.1289,-10.1914,-10.2812,-10.289,-10.289,-10.289,-10.289,-10.289,-10.289,-10.289,-10.289,-10.289,-10.3203,-10.3789,-10.4687,-10.5505,-10.6282,-10.7181,-10.7708,-10.7786,-10.7794,-10.7605,-10.742,-10.7104,-10.6807,-10.6676,-10.6602,-10.6873,-10.7488,-10.8374,-10.9801,-11.092,-11.1691,-11.1692,-11.1731,-11.1729,-11.1729,-11.1571,-11.1487,-11.1487,-11.1526,-11.1522,-11.1522,-11.1522,-11.1522,-11.1522,-11.1522,-11.1522,-11.1522,-11.1522,-11.1522,-11.1522,-11.1522,-11.1522,-11.1522,-11.1522,-11.1522,-11.1522,-11.1791,-11.2022,-11.2022,-11.2599,-11.3291,-11.3714,-11.4214,-11.4791,-11.5599,-11.5792,-11.5984,-11.6407,-11.6484,-11.6484,-11.6484,-11.6484,-11.6484,-11.6484,-11.6484,-11.6484,-11.6522,-11.6522,-11.6522,-11.6477,-11.6522,-11.6484,-11.6484,-11.6484,-11.6484,-11.6484,-11.6484,-11.6484,-11.6484,-11.6907,-11.6984,-6.3086,-6.7851,-7.3008,-7.3789,-7.4765,-7.6836,-8.1875,-9.0625,-9.6367,-9.1679,-9.4414,-9.6289,-9.1562,-9.0781,-9.2617,-9.8125,-9.5195,-9.4414,-10.0703,-10.1719,-10.1992,-10.2812,-10.289,-10.289,-10.289,-10.289,-10.289,-10.289,-10.289,-10.289,-10.3008,-10.3789,-10.4609,-10.5586,-10.6289,-10.7109,-10.8008,-10.8008,-10.8001,-10.7911,-10.7807,-10.7704,-10.7605,-10.721,-10.6982,-10.701,-10.7793,-10.8606,-10.9377,-11.0414,-11.1184,-11.188,-11.1985,-11.1989,-11.188,-11.1918,-11.1808,-11.1614,-11.1614,-11.1609,-11.1483,-11.1483,-11.1483,-11.1522,-11.1522,-11.1522,-11.1522,-11.1522,-11.1522,-11.1522,-11.1522,-11.1522,-11.1522,-11.1522,-11.1522,-11.1522,-11.1598,-11.2214,-11.2714,-11.2791,-11.3483,-11.4407,-11.5176,-11.5407,-11.5676,-11.6407,-11.6484,-11.6484,-11.6484,-11.6484,-11.6484,-11.6484,-11.6484,-11.6484,-11.6484,-11.6484,-11.6522,-11.6516,-11.6785,-11.6977,-11.7016,-11.667,-11.6484,-11.6484,-11.6484,-11.6599,-11.6676,-11.6676,-11.6676,-11.6792,-11.7484,-11.7907,-6.3828,-7.1367,-7.9101,-7.9297,-8.5937,-9.1719,-8.8984,-9.3203,-9.7383,-9.6289,-9.6914,-9.7344,-9.625,-9.6601,-9.75,-9.8789,-9.9219,-9.9883,-10.1406,-10.2187,-10.2695,-10.289,-10.289,-10.289,-10.289,-10.289,-10.289,-10.289,-10.289,-10.3203,-10.3906,-10.4101,-10.4883,-10.6406,-10.6601,-10.7109,-10.8008,-10.8008,-10.8007,-10.8003,-10.7909,-10.7918,-10.7788,-10.742,-10.7502,-10.7989,-10.8801,-10.973,-11.0505,-11.1395,-11.1892,-11.2073,-11.2182,-11.2104,-11.2111,-11.2086,-11.1985,-11.188,-11.1884,-11.1693,-11.1609,-11.1609,-11.1529,-11.1522,-11.1522,-11.1522,-11.1522,-11.1522,-11.1522,-11.1522,-11.1522,-11.1522,-11.1522,-11.1522,-11.1522,-11.1714,-11.2291,-11.2599,-11.2906,-11.3599,-11.4407,-11.5099,-11.5291,-11.5792,-11.6292,-11.6484,-11.6484,-11.6484,-11.6484,-11.6484,-11.6484,-11.6477,-11.6477,-11.6477,-11.6516,-11.6516,-11.6516,-11.647,-11.8985,-12.0492,-12.0492,-11.7862,-11.6516,-11.6516,-11.6516,-11.69,-11.783,-11.783,-11.81,-11.8484,-11.8715,-11.8792,-6.7812,-7.4961,-8.2226,-8.4687,-9.1562,-9.6367,-9.1172,-9.3984,-9.7812,-9.8242,-9.832,-9.832,-9.832,-9.9023,-9.9765,-10.0195,-10.1015,-10.1719,-10.2187,-10.2617,-10.289,-10.289,-10.289,-10.289,-10.289,-10.289,-10.289,-10.289,-10.3281,-10.3711,-10.4219,-10.5,-10.5781,-10.6719,-10.7109,-10.75,-10.8008,-10.8008,-10.8007,-10.8003,-10.7987,-10.8205,-10.8511,-10.8212,-10.8272,-10.8684,-10.9799,-11.0589,-11.1093,-11.1998,-11.2386,-11.2375,-11.2479,-11.2492,-11.2386,-11.24,-11.2309,-11.2174,-11.2111,-11.1985,-11.1807,-11.1809,-11.1693,-11.1691,-11.1609,-11.1491,-11.1487,-11.1483,-11.1522,-11.1522,-11.1522,-11.1522,-11.1598,-11.2022,-11.2099,-11.2214,-11.2599,-11.3407,-11.4099,-11.4484,-11.5291,-11.5907,-11.5907,-11.6176,-11.6484,-11.6484,-11.6907,-11.6984,-11.6599,-11.6477,-11.6477,-11.6516,-11.8023,-11.8908,-11.8908,-11.8908,-11.8908,-11.8908,-12.0608,-12.1608,-12.1608,-11.9908,-11.89,-11.8908,-11.8908,-11.9215,-11.9792,-11.9292,-11.9215,-11.9485,-11.96,-11.9715,-7.207,-7.8476,-8.4883,-9.0039,-9.4531,-9.6601,-9.25,-9.4844,-9.8164,-9.9023,-9.9101,-9.9062,-9.9219,-9.9922,-10.0781,-10.1484,-10.1719,-10.2109,-10.2812,-10.289,-10.289,-10.289,-10.289,-10.289,-10.289,-10.289,-10.3008,-10.3086,-10.3789,-10.4297,-10.4609,-10.5898,-10.6797,-10.6914,-10.7617,-10.8008,-10.8008,-10.8008,-10.8007,-10.7995,-10.8211,-10.8601,-10.9202,-10.9405,-10.939,-10.9475,-11.0809,-11.1491,-11.1704,-11.2422,-11.2811,-11.2814,-11.2893,-11.2793,-11.282,-11.2805,-11.262,-11.2487,-11.2414,-11.2292,-11.2111,-11.2019,-11.2028,-11.1882,-11.1732,-11.1575,-11.1612,-11.1487,-11.1483,-11.1522,-11.1522,-11.1598,-11.1906,-11.2522,-11.2906,-11.3099,-11.3099,-11.4291,-11.5291,-11.5484,-11.5984,-11.6484,-11.6484,-11.6484,-11.6599,-11.6676,-11.7292,-11.76,-11.7093,-11.7016,-11.7131,-11.7323,-11.9869,-12.157,-12.157,-12.157,-12.1608,-12.1608,-12.1608,-12.1608,-12.16,-12.16,-12.1608,-12.157,-12.157,-12.157,-12.157,-12.0723,-12.0177,-12.0177,-12.0408,-12.0485,-7.2812,-8.1562,-9.0195,-9.539,-9.7187,-9.7734,-9.7773,-9.832,-9.9062,-9.9961,-9.9531,-9.9219,-10.0,-10.0781,-10.1484,-10.1601,-10.2187,-10.2812,-10.289,-10.289,-10.289,-10.289,-10.289,-10.289,-10.289,-10.289,-10.3203,-10.3984,-10.4101,-10.4804,-10.6289,-10.6601,-10.6992,-10.7812,-10.789,-10.8008,-10.8008,-10.8008,-10.8008,-10.8007,-10.8788,-10.9214,-10.9319,-11.0794,-11.1416,-11.1279,-11.1591,-11.2095,-11.2793,-11.291,-11.2992,-11.2989,-11.2989,-11.2989,-11.2989,-11.3021,-11.2918,-11.2709,-11.2693,-11.2517,-11.2375,-11.2297,-11.2195,-11.2091,-11.1989,-11.1807,-11.1693,-11.1612,-11.1529,-11.1522,-11.1522,-11.2022,-11.2599,-11.2714,-11.3907,-11.4984,-11.4984,-11.5099,-11.5484,-11.6176,-11.6407,-11.6484,-11.6484,-11.6484,-11.6792,-11.7484,-11.7715,-11.8215,-11.9292,-11.8985,-11.9292,-12.0839,-12.1301,-12.1608,-12.16,-12.16,-12.16,-12.16,-12.16,-12.16,-12.16,-12.16,-12.16,-12.16,-12.16,-12.16,-12.16,-12.1408,-12.1408,-12.1408,-12.1408,-12.1408,-7.6601,-8.6445,-9.4961,-9.7734,-9.8437,-9.8672,-9.9531,-9.9726,-9.9961,-10.0781,-10.0703,-10.0586,-10.1015,-10.1719,-10.2304,-10.2304,-10.2617,-10.289,-10.289,-10.289,-10.289,-10.289,-10.289,-10.289,-10.289,-10.3281,-10.3789,-10.4219,-10.5117,-10.5898,-10.6719,-10.7187,-10.7617,-10.8008,-10.8008,-10.8008,-10.8008,-10.8008,-10.8203,-10.8711,-10.9101,-10.9804,-11.0818,-11.1599,-11.1904,-11.1809,-11.2298,-11.2704,-11.3106,-11.3112,-11.3095,-11.3103,-11.3103,-11.3112,-11.3112,-11.3098,-11.3086,-11.2986,-11.2889,-11.2797,-11.2717,-11.2619,-11.2511,-11.2401,-11.2212,-11.2019,-11.1807,-11.1731,-11.1606,-11.1598,-11.2099,-11.2406,-11.2906,-11.3907,-11.4714,-11.5407,-11.5907,-11.5984,-11.6099,-11.6407,-11.6484,-11.6676,-11.71,-11.7215,-11.7484,-11.8407,-11.8908,-11.9408,-11.9792,-12.0292,-12.0793,-12.1485,-12.1562,-12.16,-12.16,-12.16,-12.16,-12.16,-12.16,-12.16,-12.16,-12.16,-12.16,-12.16,-12.16,-12.16,-12.16,-12.16,-12.16,-12.16,-12.16,-12.16,-7.8242,-8.707,-9.4258,-9.4922,-9.5234,-9.5976,-9.8164,-9.8672,-9.9297,-10.1484,-10.1914,-10.1914,-10.1914,-10.25,-10.289,-10.289,-10.289,-10.289,-10.289,-10.289,-10.289,-10.289,-10.289,-10.3008,-10.3203,-10.3789,-10.4414,-10.4804,-10.6015,-10.6797,-10.6992,-10.7617,-10.8008,-10.8008,-10.8008,-10.8008,-10.8008,-10.8203,-10.8711,-10.9297,-10.9687,-11.0586,-11.1914,-11.2109,-11.2187,-11.2304,-11.2886,-11.3115,-11.3115,-11.3215,-11.3203,-11.3209,-11.32,-11.3203,-11.3203,-11.3203,-11.32,-11.3112,-11.3098,-11.2986,-11.3006,-11.2879,-11.2805,-11.2679,-11.2388,-11.2174,-11.2024,-11.1693,-11.1686,-11.1906,-11.2522,-11.3022,-11.3714,-11.4984,-11.5484,-11.5792,-11.6407,-11.6484,-11.6484,-11.6484,-11.6676,-11.6984,-11.7715,-11.8023,-11.8407,-11.9292,-11.9908,-12.0292,-12.0292,-12.11,-12.16,-12.16,-12.16,-12.16,-12.16,-12.16,-12.16,-12.16,-12.16,-12.16,-12.16,-12.16,-12.16,-12.16,-12.16,-12.16,-12.16,-12.16,-12.16,-12.16,-12.16,-12.16,-7.4844,-7.957,-8.4336,-8.4375,-8.5039,-8.7148,-9.2929,-9.4219,-9.5859,-10.1601,-10.2812,-10.2812,-10.2812,-10.289,-10.289,-10.289,-10.289,-10.289,-10.289,-10.289,-10.289,-10.289,-10.289,-10.3203,-10.4101,-10.4219,-10.4883,-10.6484,-10.6719,-10.7109,-10.789,-10.8008,-10.8008,-10.8008,-10.8008,-10.8008,-10.8008,-10.8789,-10.9297,-10.9297,-11.1015,-11.1797,-11.1914,-11.2812,-11.3086,-11.3086,-11.3203,-11.3203,-11.3203,-11.3203,-11.3203,-11.3203,-11.3203,-11.3203,-11.3203,-11.3203,-11.3203,-11.3203,-11.3203,-11.3081,-11.3103,-11.3103,-11.3008,-11.2898,-11.2698,-11.2401,-11.2124,-11.188,-11.2193,-11.2599,-11.2714,-11.3907,-11.5176,-11.5291,-11.5907,-11.6407,-11.6484,-11.6484,-11.6484,-11.6484,-11.7215,-11.7715,-11.7792,-11.8484,-11.9292,-12.01,-12.0292,-12.06,-12.1408,-12.16,-12.16,-12.16,-12.16,-12.16,-12.16,-12.16,-12.16,-12.16,-12.16,-12.16,-12.16,-12.16,-12.16,-12.16,-12.16,-12.16,-12.16,-12.16,-12.16,-12.16,-12.16,-12.16,-7.6133,-8.0273,-8.457,-8.5117,-8.5508,-8.6445,-8.9179,-8.9804,-9.039,-9.2578,-9.3008,-9.4023,-9.7344,-10.0703,-10.289,-10.289,-10.289,-10.289,-10.289,-10.289,-10.3086,-10.3711,-10.3711,-10.4101,-10.4883,-10.5508,-10.6093,-10.6719,-10.7187,-10.7695,-10.8008,-10.8008,-10.8008,-10.8008,-10.8008,-10.8281,-10.8789,-10.9101,-10.9883,-11.1015,-11.1601,-11.2187,-11.2695,-11.3086,-11.3203,-11.3203,-11.3203,-11.3203,-11.3203,-11.3203,-11.3203,-11.3203,-11.3203,-11.3203,-11.3203,-11.3203,-11.3203,-11.3203,-11.3203,-11.3203,-11.32,-11.32,-11.3108,-11.3008,-11.2812,-11.2478,-11.2379,-11.2783,-11.2812,-11.3111,-11.4312,-11.5002,-11.5499,-11.6115,-11.6423,-11.6804,-11.7176,-11.6907,-11.6676,-11.7215,-11.76,-11.81,-11.9215,-11.9715,-12.0177,-12.0985,-12.11,-12.1177,-12.16,-12.16,-12.16,-12.16,-12.16,-12.16,-12.16,-12.16,-12.16,-12.16,-12.16,-12.16,-12.16,-12.16,-12.16,-12.16,-12.16,-12.16,-12.16,-12.16,-12.16,-12.16,-12.16,-12.16,-7.4414,-7.7305,-8.0273,-8.0859,-8.1211,-8.2031,-8.4336,-8.4883,-8.539,-8.7148,-8.8867,-9.1133,-9.457,-9.9414,-10.289,-10.289,-10.289,-10.289,-10.289,-10.3203,-10.3594,-10.4101,-10.4492,-10.5,-10.5781,-10.6406,-10.6797,-10.7109,-10.7695,0.0,-10.8008,-10.8008,-10.8008,-10.8008,-10.8281,-10.8711,-10.9297,-10.9883,-11.0781,-11.1914,-11.2187,-11.2617,-11.3203,-11.3203,-11.3203,-11.3203,-11.3203,-11.3203,-11.3203,-11.3203,-11.3203,-11.3203,-11.3203,-11.3203,-11.3203,-11.3203,-11.3203,-11.3203,-11.3203,-11.3203,-11.3203,-11.3203,-11.3199,-11.3098,-11.29,-11.2892,-11.301,-11.3388,-11.3726,-11.4084,-11.5283,-11.5823,-11.6128,-11.6627,-11.6894,-11.7271,-11.7722,-11.7292,-11.7215,-11.81,-11.8484,-11.8985,-12.01,-12.0485,-12.0908,-12.1485,-12.16,-12.16,-12.16,-12.16,-12.16,-12.16,-12.16,-12.16,-12.16,-12.16,-12.16,-12.16,-12.16,-12.16,-12.1639,-12.1639,-12.1639,-12.1639,-12.1639,-12.1639,-12.1639,-12.16,-12.16,-12.16,-12.16,-12.16,0.0,0.0,0.0,-7.0742,-7.1367,-7.332,-7.832,-7.9609,-8.1133,-8.6211,-9.1367,-9.5039,-9.5195,-9.9336,-10.2812,-10.289,-10.3008,-10.289,-10.289,-10.3711,-10.4219,-10.4297,-10.5,-10.5898,-10.6719,-10.6719,-10.7109,-10.789,-10.8008,-10.8008,-10.8008,-10.8008,-10.8008,-10.8008,-10.8906,-10.9297,-10.9414,-11.1093,-11.1914,-11.1914,-11.2812,-11.3203,-11.3203,-11.3203,-11.3203,-11.3203,-11.3203,-11.3203,-11.3203,-11.3203,-11.3203,-11.3203,-11.3203,-11.3203,-11.3203,-11.3203,-11.3203,-11.3203,-11.3203,-11.3203,-11.3203,-11.3203,-11.3199,-11.3103,-11.3111,-11.3405,-11.3809,-11.3813,-11.4732,-11.5706,-11.5815,-11.6398,-11.702,-11.6903,-11.7398,-11.8007,-11.7914,-11.7907,-11.81,-11.8985,-11.9792,-12.0292,-12.0292,-12.0985,-12.16,-12.16,-12.16,-12.16,-12.16,-12.16,-12.16,-12.16,-12.16,-12.16,-12.16,-12.16,-12.16,-12.1592,-12.1707,-12.1784,-12.1775,-12.1775,-12.1775,-12.1775,-12.1775,-12.1775,-12.1775,-12.1639,-12.16,-12.16,-12.16,-12.16,-7.1094,0.0,0.0,0.0,0.0,0.0,-7.3789,-7.7031,-8.0117,-8.1562,-8.6015,-9.0976,-9.5351,-9.7304,-9.9687,-10.4101,-10.4297,-10.3789,-10.3789,-10.4609,-10.539,-10.5898,-10.6211,-10.6719,-10.7617,-10.7617,-10.7695,0.0,-10.8008,-10.8008,-10.8008,-10.8008,-10.8281,-10.8906,-10.9218,-10.9883,-11.1211,-11.1718,-11.2187,-11.2812,-11.3086,-11.3203,-11.3203,-11.3203,-11.3203,-11.3203,-11.3203,-11.3203,-11.3203,-11.3203,-11.3203,-11.3203,-11.3203,-11.3203,-11.3203,-11.3203,-11.3203,-11.3203,-11.3203,-11.3203,-11.3203,-11.3203,-11.3593,-11.4019,-11.4016,-11.4511,-11.5088,-11.5599,-11.5872,-11.6181,-11.681,-11.7228,-11.7508,-11.7897,-11.8102,-11.8368,-11.951,-11.9684,-11.9715,-11.9908,-12.01,-12.0485,-12.11,-12.1408,-12.16,-12.16,-12.16,-12.16,-12.16,-12.16,-12.16,-12.16,-12.16,-12.1592,-12.1592,-12.1592,-12.163,-12.163,-12.3909,-12.5303,-12.5303,-12.5303,-12.5303,-12.5303,-12.5303,-12.5303,-12.5303,-12.2784,-12.1592,-12.1592,-12.1592,-12.1592,-7.1875,-7.1992,-7.1992,-7.1992,0.0,0.0,-7.2461,-7.6523,-8.0351,-8.0703,-8.4922,-9.0273,-9.5976,-9.6992,-9.8867,-10.4609,-10.539,-10.5117,-10.4804,-10.5508,-10.6211,-10.6601,-10.6992,-10.7383,-10.8008,-10.8008,-10.8008,-10.8008,-10.8008,-10.8008,-10.8008,-10.8281,-10.8789,-10.9297,-11.0,-11.0898,-11.1914,-11.2304,-11.2695,-11.3203,-11.3203,-11.3203,-11.3203,-11.3203,-11.3203,-11.3203,-11.3203,-11.3203,-11.3203,-11.3203,-11.3203,-11.3203,-11.3203,-11.3203,-11.3203,-11.3203,-11.3203,-11.3203,-11.3203,-11.3203,-11.3281,-11.3593,-11.3984,-11.4491,-11.481,-11.5415,-11.6101,-11.6609,-11.6787,-11.7075,-11.7906,-11.8203,-11.8411,-11.9004,-11.9283,-11.9608,-12.0374,-12.0786,-12.0929,-12.0916,-12.0793,-12.0985,-12.1485,-12.16,-12.16,-12.16,-12.16,-12.16,-12.16,-12.1908,-12.2216,-12.2293,-12.1899,-12.2207,-12.3601,-12.3716,-12.3716,-12.3668,-12.5611,-12.6688,-12.6688,-12.6688,-12.6688,-12.6688,-12.6688,-12.6688,-12.6688,-12.4678,-12.3716,-12.3716,-12.3716,-12.3716,-7.2305,-7.2305,-7.2305,-7.2305,-7.2305,0.0,-7.3281,-7.7422,-8.1367,-8.2148,-8.6406,-9.1445,-9.6133,-9.6992,-9.8554,-10.3281,-10.5117,-10.5898,-10.5703,-10.6289,-10.6797,-10.6797,-10.75,-10.8008,-10.8008,-10.8008,-10.8008,-10.8008,-10.8008,-10.8008,-10.8086,-10.8906,-10.9414,-10.9609,-11.1093,-11.1914,-11.1992,-11.2812,-11.3203,-11.3203,-11.3203,-11.3203,-11.3203,-11.3203,-11.3203,-11.3203,-11.3203,-11.3203,-11.3203,-11.3203,-11.3203,-11.3203,-11.3203,-11.3203,-11.3203,-11.3203,-11.3203,-11.3203,-11.3203,-11.3281,-11.3515,-11.4218,-11.4609,-11.4804,-11.5607,-11.6417,-11.6991,-11.7007,-11.7506,-11.8326,-11.9008,-11.9202,-11.9375,-12.0108,-12.0703,-12.0987,-12.1,-12.1501,-12.1914,-12.1731,-12.1608,-12.1562,-12.16,-12.16,-12.16,-12.16,-12.1677,-12.1677,-12.1677,-12.2485,-12.3216,-12.3485,-12.2476,-12.3168,-12.638,-12.6688,-12.6688,-12.6727,-12.6727,-12.6727,-12.6678,-12.6678,-12.6678,-12.6678,-12.6678,-12.6678,-12.6678,-12.6688,-12.6688,-12.6688,-12.6688,-12.6688,-7.4101,-7.4101,-7.4101,-7.4101,-7.4101,0.0,-7.4297,-7.8359,-8.2109,-8.2265,-8.6406,-9.0508,-9.2226,-9.2539,-9.3125,-9.4844,-9.875,-10.2695,-10.6015,-10.7187,-10.7695,-10.7695,-10.789,-10.8008,-10.8008,-10.8008,-10.8008,-10.8008,-10.8008,-10.8281,-10.8984,-10.9218,-10.9883,-11.1289,-11.1718,-11.2187,-11.289,-11.3086,-11.3203,-11.3203,-11.3203,-11.3203,-11.3203,-11.3203,-11.3203,-11.3203,-11.3203,-11.3203,-11.3203,-11.3203,-11.3203,-11.3203,-11.3203,-11.3203,-11.3203,-11.3203,-11.3203,-11.3203,-11.3203,-11.3711,-11.4297,-11.4414,-11.539,-11.6484,-11.6717,-11.7287,-11.7983,-11.7897,-11.8508,-11.9197,-11.9406,-11.9886,-12.059,-12.1208,-12.1378,-12.1371,-12.1916,-12.2005,-12.2001,-12.1783,-12.1777,-12.1738,-12.1562,-12.16,-12.16,-12.16,-12.2216,-12.2601,-12.2601,-12.3408,-12.4101,-12.4562,-12.4024,-12.4524,-12.6496,-12.6727,-12.6678,-12.6678,-12.6678,-12.6678,-12.6678,-12.6678,-12.6678,-12.6678,-12.6678,-12.6678,-12.6678,-12.6678,-12.6678,-12.6678,-12.6678,-12.6678,-7.4609,-7.4609,-7.4609,-7.4609,-7.4609,0.0,0.0,-7.9258,-8.3086,-8.3515,-8.5664,-8.8398,-9.1406,-8.9844,-8.9101,-9.2109,-9.6914,-10.1094,-10.3203,-10.6093,-10.8008,-10.8008,-10.8008,-10.8008,-10.8008,-10.8008,-10.8008,-10.8008,-10.8398,-10.8789,-10.9297,-11.0117,-11.1015,-11.1914,-11.2304,-11.2812,-11.3203,-11.3203,-11.3203,-11.3203,-11.3203,-11.3203,-11.3203,-11.3203,-11.3203,-11.3203,-11.3203,-11.3203,-11.3203,-11.3203,-11.3203,-11.3203,-11.3203,-11.3203,-11.3203,-11.3203,-11.3203,-11.3281,-11.3711,-11.4101,-11.4609,-11.5508,-11.6289,-11.7109,-11.75,-11.8003,-11.8414,-11.8794,-11.9185,-11.9701,-12.0615,-12.1104,-12.1605,-12.2293,-12.2415,-12.2306,-12.2509,-12.2401,-12.2232,-12.2001,-12.1914,-12.1827,-12.1608,-12.16,-12.1677,-12.2216,-12.2601,-12.3024,-12.3408,-12.4216,-12.4909,-12.5178,-12.5293,-12.5794,-12.6563,-12.6678,-12.6678,-12.6678,-12.6678,-12.6678,-12.6678,-12.6678,-12.6678,-12.6678,-12.6678,-12.6678,-12.6678,-12.6678,-12.6678,-12.6678,-12.6678,-12.6678,-7.5117,-7.5117,-7.5117,-7.5117,-7.5117,-7.5273,0.0,0.0,0.0,-8.3281,-8.3437,-8.4687,-8.8867,-8.6211,-8.4765,-8.8945,-9.3984,-9.7344,-9.7344,-10.1797,-10.5781,-10.7812,-10.8008,-10.8008,-10.8008,-10.7109,-10.6601,-10.6797,-10.7383,-10.8008,-10.8281,-11.0586,-11.1992,-11.2109,-11.2812,-11.3203,-11.3203,-11.3203,-11.3203,-11.3203,-11.3203,-11.3203,-11.3203,-11.3203,-11.3203,-11.3203,-11.3203,-11.3203,-11.3203,-11.3203,-11.3203,-11.3203,-11.3203,-11.3203,-11.3203,-11.3203,-11.3281,-11.3593,-11.4297,-11.4687,-11.5195,-11.6601,-11.7109,-11.7383,-11.8281,-11.8593,-11.871,-11.9602,-12.0016,-12.0388,-12.1782,-12.2185,-12.2499,-12.3206,-12.3214,-12.309,-12.2896,-12.27,-12.2504,-12.2197,-12.2196,-12.211,-12.1878,-12.1908,-12.21,-12.2985,-12.3293,-12.3601,-12.4293,-12.5101,-12.5678,-12.5678,-12.6294,-12.6678,-12.6678,-12.6678,-12.6678,-12.6678,-12.6678,-12.6678,-12.6678,-12.6678,-12.6678,-12.6678,-12.6678,-12.6678,-12.6678,-12.6678,-12.6678,-12.6678,-12.6678,-12.6678,-7.6914,-7.6914,-7.6914,-7.6914,-7.6914,-7.6914,-7.7031,0.0,-7.7969,-7.8047,0.0,-7.8242,-7.8828,0.0,0.0,-7.8867,-8.3281,-8.664,-8.664,-9.1094,-9.7734,-10.6914,-10.8008,-10.8008,-10.8008,-10.3906,-10.1484,-10.2304,-10.2383,-10.3086,-10.4687,-10.9297,-11.2304,-11.3008,-11.3086,-11.3203,-11.3203,-11.3203,-11.3203,-11.3203,-11.3203,-11.3203,-11.3203,-11.3203,-11.3203,-11.3203,-11.3203,-11.3203,-11.3203,-11.3203,-11.3203,-11.3203,-11.3203,-11.3203,-11.3203,-11.3203,-11.3711,-11.4414,-11.4492,-11.5508,-11.6718,-11.6914,-11.75,-11.8281,-11.9218,-11.9492,-11.9609,-12.0507,-12.1288,-12.1913,-12.2109,-12.2695,-12.3281,-12.3397,-12.3291,-12.3214,-12.2989,-12.2918,-12.2683,-12.23,-12.2815,-12.3202,-12.2809,-12.2793,-12.2985,-12.3793,-12.4601,-12.5101,-12.5216,-12.5986,-12.6601,-12.6601,-12.6601,-12.6678,-12.6678,-12.6678,-12.6678,-12.6678,-12.6678,-12.6678,-12.6678,-12.6678,-12.6678,-12.6678,-12.6678,-12.6678,-12.6678,-12.6678,-12.6678,-12.6678,-12.6678,-12.6678,-7.7187,-7.7187,-7.7187,-7.7187,-7.7187,-7.7187,-7.7187,-7.7187,-7.7187,-7.7187,0.0,0.0,0.0,0.0,0.0,0.0,-8.1523,-8.4883,-8.4883,-8.9336,-9.4219,-9.8554,-9.9062,0.0,-9.9765,-9.832,-9.75,-9.7851,-10.1094,-10.3398,-10.4219,-10.9609,-11.2812,-11.3203,-11.3203,-11.3203,-11.3203,-11.3203,-11.3203,-11.3203,-11.3203,-11.3203,-11.3203,-11.3203,-11.3203,-11.3203,-11.3203,-11.3203,-11.3203,-11.3203,-11.3203,-11.3203,-11.3203,-11.3203,-11.3281,-11.3789,-11.4218,-11.4609,-11.5586,-11.6406,-11.7109,-11.7617,-11.8281,-11.9101,-11.9492,-12.0,-12.0508,-12.1406,-12.1914,-12.2304,-12.2812,-12.3203,-12.3398,-12.3398,-12.3396,-12.3296,-12.3175,-12.3512,-12.3584,-12.3305,-12.3901,-12.4473,-12.4706,-12.4178,-12.4003,-12.4678,-12.5178,-12.5601,-12.6101,-12.6486,-12.6678,-12.6678,-12.6678,-12.6678,-12.6678,-12.6678,-12.6678,-12.6678,-12.6678,-12.6678,-12.6678,-12.6678,-12.6678,-12.6678,-12.6678,-12.6678,-12.6678,-12.6678,-12.6678,-12.6678,-12.6678,-12.6678,-8.2148,-8.1094,-8.0039,-8.0039,-7.8945,-7.789,-7.789,-7.789,-7.789,-7.789,-7.789,0.0,0.0,0.0,-7.7578,-7.7578,0.0,-8.2851,-8.3125,-8.6367,-8.9687,-9.2304,-9.2812,0.0,0.0,-9.3554,-9.3164,-9.3398,-9.8789,-10.1601,-10.039,-10.8515,-11.2617,-11.1093,-11.25,-11.3203,-11.3203,-11.3203,-11.3203,-11.3203,-11.3203,-11.3203,-11.3203,-11.3203,-11.3203,-11.3203,-11.3203,-11.3203,-11.3203,-11.3203,-11.3203,-11.3203,-11.3515,-11.3593,-11.3593,-11.4297,-11.4804,-11.539,-11.6601,-11.7187,-11.75,-11.8398,-11.9101,-11.9687,-12.0195,-12.0781,-12.1406,-12.2304,-12.2617,-12.2695,-12.3281,-12.3515,-12.3515,-12.3398,-12.3398,-12.3514,-12.3603,-12.4104,-12.4491,-12.4402,-12.4995,-12.5702,-12.6022,-12.5285,-12.4904,-12.5735,-12.5803,-12.5986,-12.6601,-12.6678,-12.6678,-12.6678,-12.6678,-12.6678,-12.6678,-12.6678,-12.6678,-12.6678,-12.6678,-12.6678,-12.6678,-12.6678,-12.6678,-12.6678,-12.6678,-12.6678,-12.6678,-12.6678,-12.6678,-12.6678,-12.6678,-12.6678,-9.4609,0.0,-8.7187,-8.7187,-8.3359,-7.9609,-7.9609,-7.9609,-7.9609,-7.9609,-7.9609,-7.9609,-7.9609,-7.8984,-7.8476,-7.8476,-7.789,0.0,0.0,-7.8867,-8.2344,-9.1523,-9.3359,-9.4219,0.0,-9.0664,-8.8086,-8.8867,-9.3789,-9.4922,-9.0664,-10.4883,-11.0898,-10.5898,-11.0586,-11.3203,-11.3203,-11.3203,-11.3203,-11.3203,-11.3203,-11.3203,-11.3203,-11.3203,-11.3203,-11.3203,-11.3203,-11.3203,-11.3203,-11.3203,-11.3203,-11.3281,-11.4101,-11.4492,-11.4492,-11.4492,-11.5508,-11.6914,-11.6992,-11.7617,-11.8398,-11.9297,-11.9609,-11.9883,-12.1601,-12.2109,-12.2304,-12.3203,-12.3515,-12.3515,-12.3515,-12.3515,-12.3515,-12.3515,-12.3398,-12.3593,-12.4492,-12.4585,-12.4797,-12.5415,-12.6195,-12.6576,-12.6306,-12.5911,-12.5886,-12.6599,-12.6698,-12.6678,-12.6678,-12.6678,-12.6678,-12.6678,-12.6678,-12.6678,-12.6678,-12.6678,-12.6678,-12.6678,-12.6678,-12.6678,-12.6678,-12.6678,-12.6678,-12.6678,-12.6678,-12.6678,-12.6678,-12.6678,-12.6678,-12.6678,-12.6678,-12.6678,0.0,0.0,-8.75,-8.75,0.0,0.0,0.0,-7.9687,-8.0664,-8.414,-8.4844,-8.4844,-8.4844,-8.4648,-8.332,-7.9844,-7.9062,-7.8945,0.0,-7.9297,-8.0703,-8.4453,-8.5195,-8.5469,-8.5781,-8.4765,-8.4179,-8.4453,-8.9258,-9.3047,-9.5,-10.3398,-10.8906,-11.0508,-11.2304,-11.3203,-11.3203,-11.3203,-11.3203,-11.3203,-11.3203,-11.3203,-11.3203,-11.3203,-11.3203,-11.3203,-11.3203,-11.3203,-11.3203,-11.3203,-11.3515,-11.4101,-11.4414,-11.5195,-11.6211,-11.6211,-11.6484,-11.7109,-11.7695,-11.8398,-11.9218,-11.9492,-12.039,-12.1406,-12.1992,-12.2617,-12.3086,-12.3398,-12.3515,-12.3515,-12.3515,-12.3515,-12.3593,-12.4218,-12.4297,-12.4609,-12.539,-12.6013,-12.6391,-12.6597,-12.7284,-12.7786,-12.749,-12.7208,-12.6878,-12.6806,-12.6698,-12.6678,-12.6678,-12.6678,-12.6678,-12.6678,-12.6678,-12.6678,-12.6678,-12.6678,-12.6678,-12.6678,-12.6678,-12.6678,-12.6678,-12.6678,-12.6678,-12.6678,-12.6678,-12.6678,-12.6678,-12.6678,-12.6678,-12.6678,-12.6678,-12.6678,-10.1601,-9.7812,0.0,-9.3906,-8.9961,0.0,-8.6094,0.0,-8.707,-9.0429,-8.9687,-8.8398,-8.8398,-8.664,-8.4101,-8.0703,-7.9883,-7.9805,0.0,-8.0429,-8.082,-8.1406,-8.1172,-8.1133,-8.1445,-8.1953,-8.2304,-8.2304,-8.707,-9.0664,-9.2148,-9.8906,-10.3398,-10.4883,-10.6719,-10.8593,-11.039,-11.0508,-11.1406,-11.3203,-11.3203,-11.3203,-11.3203,-11.3203,-11.3203,-11.3203,-11.3203,-11.3203,-11.3203,-11.3515,-11.3984,-11.4609,-11.5195,-11.6015,-11.6992,-11.6992,-11.7187,-11.7617,-11.8515,-11.9101,-11.9687,-12.0312,-12.1289,-12.2304,-12.2617,-12.3086,-12.3515,-12.3515,-12.3515,-12.3515,-12.3515,-12.3711,-12.4101,-12.4687,-12.5,-12.5508,-12.6289,-12.6914,-12.7382,-12.7612,-12.81,-12.8398,-12.8207,-12.7918,-12.7502,-12.7104,-12.6914,-12.6736,-12.6736,-12.6727,-12.6678,-12.6678,-12.6678,-12.6678,-12.6678,-12.6678,-12.6678,-12.6678,-12.6678,-12.6678,-12.6678,-12.6678,-12.6678,-12.6678,-12.6678,-12.6678,-12.6678,-12.6678,-12.6678,-12.6678,-12.6678,-12.6678]}]]